[[{"header":{"parameterUnit":"m.s-1","parameterCategory":1,"la1":31.0,"la2":29.5877,"lo1":-88.7671,"lo2":-86.6584,"dy":0.0162,"dx":0.0185,"nx":115,"ny":88,"refTime":"2024-05-29T00:00:00:Z","depth":0,"parameterNumber":2,"parameterNumberName":"U-component_of_WINDS"},"data":[0.0,0.0,0.0,0.0,0.0,0.0,0.0,0.0,0.0,0.0,0.0,0.0,0.0,0.0,0.0,0.0,0.0,0.0,0.0,0.0,0.0,0.0,0.0,0.0,0.0,0.0,0.0,0.0,0.0,0.0,0.0,0.0,0.0,0.0,0.0,0.0,0.0,0.0,0.0,0.0,0.0,0.0,0.0,0.0,0.0,0.0,0.0,0.0,0.0,0.0,0.0,0.0,0.0,0.0,0.0,0.0,0.0,0.0,0.0,0.0,0.0,0.0,0.0,0.0,0.0,0.0,0.0,0.0,0.0,0.0,0.0,0.0,0.0,0.0,0.0,0.0,0.0,0.0,0.0,0.0,0.0,0.0,0.0,0.0,0.0,0.0,0.0,0.0,0.0,0.0,0.0,0.0,0.0,0.0,0.0,0.0,0.0,0.0,0.0,0.0,0.0,0.0,0.0,0.0,0.0,0.0,0.0,0.0,0.0,0.0,0.0,0.0,0.0,0.0,0.0,0.0,0.0,0.0,0.0,0.0,0.0,0.0,0.0,0.0,0.0,0.0,0.0,0.0,0.0,0.0,0.0,0.0,0.0,0.0,0.0,0.0,0.0,0.0,0.0,0.0,0.0,0.0,0.0,0.0,0.0,0.0,0.0,0.0,0.0,0.0,0.0,0.0,0.0,0.0,0.0,0.0,0.0,0.0,0.0,0.0,0.0,0.0,0.0,0.0,0.0,0.0,0.0,0.0,0.0,0.0,0.0,0.0,0.0,0.0,0.0,0.0,0.0,0.0,0.0,0.0,0.0,0.0,0.0,0.0,0.0,0.0,0.0,0.0,0.0,0.0,0.0,0.0,0.0,0.0,0.0,0.0,0.0,0.0,0.0,0.0,0.0,0.0,0.0,0.0,0.0,0.0,0.0,0.0,0.0,0.0,0.0,0.0,0.0,0.0,0.0,0.0,0.0,0.0,0.0,0.0,0.0,0.0,0.0,0.0,0.0,0.0,0.0,0.0,0.0,0.0,0.0,0.0,0.0,0.0,0.0,0.0,0.0,0.0,0.0,0.0,0.0,0.0,0.0,0.0,0.0,0.0,0.0,0.0,0.0,0.0,0.0,0.0,0.0,0.0,0.0,0.0,0.0,0.0,0.0,0.0,0.0,0.0,0.0,0.0,0.0,0.0,0.0,0.0,0.0,0.0,0.0,0.0,0.0,0.0,0.0,0.0,0.0,0.0,0.0,0.0,0.0,0.0,0.0,0.0,0.0,0.0,0.0,0.0,0.0,0.0,0.0,0.0,0.0,0.0,0.0,0.0,0.0,0.0,0.0,0.0,0.0,0.0,0.0,0.0,0.0,0.0,0.0,0.0,0.0,0.0,0.0,0.0,0.0,0.0,0.0,0.0,0.0,0.0,0.0,0.0,0.0,0.0,0.0,0.0,0.0,0.0,0.0,0.0,0.0,0.0,0.0,0.0,0.0,0.0,0.0,0.0,0.0,0.0,0.0,0.0,0.0,0.0,0.0,0.0,0.0,0.0,0.0,0.0,0.0,0.0,0.0,0.0,0.0,0.0,0.0,0.0,0.0,0.0,0.0,0.0,0.0,0.0,0.0,0.0,0.0,0.0,0.0,0.0,0.0,0.0,0.0,0.0,0.0,0.0,0.0,0.0,0.0,0.0,0.0,0.0,0.0,0.0,0.0,0.0,0.0,0.0,0.0,0.0,0.0,0.0,0.0,0.0,0.0,0.0,0.0,0.0,0.0,0.0,0.0,0.0,0.0,0.0,0.0,0.0,0.0,0.0,0.0,0.0,0.0,0.0,0.0,0.0,0.0,0.0,0.0,0.0,0.0,0.0,0.0,0.0,0.0,0.0,0.0,0.0,0.0,0.0,0.0,0.0,0.0,0.0,0.0,0.0,0.0,0.0,0.0,0.0,0.0,0.0,0.0,0.0,0.0,0.0,0.0,0.0,0.0,0.0,0.0,0.0,0.0,0.0,0.0,0.0,0.0,0.0,0.0,0.0,0.0,0.0,0.0,0.0,0.0,0.0,0.0,0.0,0.0,0.0,0.0,0.0,0.0,0.0,0.0,0.0,0.0,0.0,0.0,0.0,0.0,0.0,0.0,0.0,0.0,0.0,0.0,0.0,0.0,0.0,0.0,0.0,0.0,0.0,0.0,0.0,0.0,0.0,0.0,0.0,0.0,0.0,0.0,0.0,0.0,0.0,0.0,0.0,0.0,0.0,0.0,0.0,0.0,0.0,0.0,0.0,0.0,0.0,0.0,0.0,0.0,0.0,0.0,0.0,0.0,0.0,0.0,0.0,0.0,0.0,0.0,0.0,0.0,0.0,0.0,0.0,0.0,0.0,0.0,0.0,0.0,0.0,0.0,0.0,0.0,0.0,0.0,0.0,0.0,0.0,0.0,0.0,0.0,0.0,0.0,0.0,0.0,0.0,0.0,0.0,0.0,0.0,0.0,0.0,0.0,0.0,0.0,0.0,0.0,0.0,0.0,0.0,0.0,0.0,0.0,0.0,0.0,0.0,0.0,0.0,0.0,0.0,0.0,0.0,0.0,0.0,0.0,0.0,0.0,0.0,0.0,0.0,0.0,0.0,0.0,0.0,0.0,0.0,0.0,0.0,0.0,0.0,0.0,0.0,0.0,0.0,0.0,0.0,0.0,0.0,0.0,0.0,0.0,0.0,0.0,0.0,0.0,0.0,0.0,0.0,0.0,0.0,0.0,0.0,0.0,0.0,0.0,0.0,0.0,0.0,0.0,0.0,0.0,0.0,0.0,0.0,0.0,0.0,0.0,0.0,0.0,0.0,0.0,0.0,0.0,0.0,0.0,0.0,0.0,0.0,0.0,0.0,0.0,0.0,0.0,0.0,0.0,0.0,0.0,0.0,0.0,0.0,0.0,0.0,0.0,0.0,0.0,0.0,0.0,0.0,0.0,0.0,0.0,0.0,0.0,0.0,0.0,0.0,0.0,0.0,0.0,0.0,0.0,0.0,0.0,0.0,0.0,0.0,0.0,0.0,0.0,0.0,0.0,0.0,0.0,0.0,0.0,0.0,0.0,0.0,0.0,0.0,0.0,0.0,0.0,0.0,0.0,0.0,0.0,0.0,0.0,0.0,0.0,0.0,0.0,0.0,0.0,0.0,0.0,0.0,0.0,0.0,0.0,0.0,0.0,0.0,0.0,0.0,0.0,0.0,0.0,0.0,0.0,0.0,0.0,0.0,0.0,0.0,0.0,0.0,0.0,0.0,0.0,0.0,0.0,0.0,0.0,0.0,0.0,0.0,0.0,0.0,0.0,0.0,0.0,0.0,0.0,0.0,0.0,0.0,0.0,0.0,0.0,0.0,0.0,0.0,0.0,0.0,0.0,0.0,0.0,0.0,0.0,0.0,0.0,0.0,0.0,0.0,0.0,0.0,0.0,0.0,0.0,0.0,0.0,0.0,0.0,0.0,0.0,0.0,0.0,0.0,0.0,0.0,0.0,0.0,0.0,0.0,0.0,0.0,0.0,0.0,0.0,0.0,0.0,0.0,0.0,0.0,0.0,0.0,0.0,0.0,0.0,0.0,0.0,0.0,0.0,0.0,0.0,0.0,0.0,0.0,0.0,0.0,0.0,0.0,0.0,0.0,0.0,0.0,0.0,0.0,0.0,0.0,0.0,0.0,0.0,0.0,0.0,0.0,0.0,0.0,0.0,0.0,0.0,0.0,0.0,0.0,0.0,0.0,0.0,0.0,0.0,0.0,0.0,0.0,0.0,0.0,0.0,0.0,0.0,0.0,0.0,0.0,0.0,0.0,0.0,0.0,0.0,0.0,0.0,0.0,0.0,0.0,0.0,0.0,0.0,0.0,0.0,0.0,0.0,0.0,0.0,0.0,0.0,0.0,0.0,0.0,0.0,0.0,0.0,0.0,0.0,0.0,0.0,0.0,0.0,0.0,0.0,0.0,0.0,0.0,0.0,0.0,0.0,0.0,0.0,0.0,0.0,0.0,0.0,0.0,0.0,0.0,0.0,0.0,0.0,0.0,0.0,0.0,0.0,0.0,0.0,0.0,0.0,0.0,0.0,0.0,0.0,0.0,0.0,0.0,0.0,0.0,0.0,0.0,0.0,0.0,0.0,0.0,0.0,0.0,0.0,0.0,0.0,0.0,0.0,0.0,0.0,0.0,0.0,0.0,0.0,0.0,0.0,0.0,0.0,0.0,0.0,0.0,0.0,0.0,0.0,0.0,0.0,0.0,0.0,0.0,0.0,0.0,-1.4414,0.0,0.0,0.0,0.0,0.0,0.0,0.0,0.0,0.0,0.0,0.0,0.0,0.0,0.0,0.0,0.0,0.0,0.0,0.0,0.0,0.0,0.0,0.0,0.0,0.0,0.0,0.0,0.0,0.0,0.0,0.0,0.0,0.0,0.0,0.0,0.0,0.0,0.0,0.0,0.0,0.0,0.0,0.0,0.0,0.0,0.0,0.0,0.0,0.0,0.0,0.0,0.0,0.0,0.0,0.0,0.0,0.0,0.0,0.0,0.0,0.0,0.0,0.0,0.0,0.0,0.0,0.0,0.0,0.0,0.0,0.0,0.0,0.0,0.0,0.0,0.0,0.0,0.0,0.0,0.0,0.0,0.0,0.0,0.0,0.0,0.0,0.0,0.0,0.0,0.0,0.0,0.0,0.0,0.0,0.0,0.0,0.0,0.0,0.0,0.0,0.0,0.0,0.0,0.0,0.0,0.0,0.0,0.0,0.0,0.0,-1.4485,-1.4485,-1.4485,-1.4485,-1.4476,0.0,0.0,0.0,0.0,0.0,0.0,0.0,0.0,0.0,0.0,0.0,0.0,0.0,0.0,0.0,0.0,0.0,0.0,0.0,0.0,0.0,0.0,0.0,0.0,0.0,0.0,0.0,0.0,0.0,0.0,0.0,0.0,0.0,0.0,0.0,0.0,0.0,0.0,0.0,0.0,0.0,0.0,0.0,0.0,0.0,0.0,0.0,0.0,0.0,0.0,0.0,0.0,0.0,0.0,0.0,0.0,0.0,0.0,0.0,0.0,0.0,0.0,0.0,0.0,0.0,0.0,0.0,0.0,0.0,0.0,0.0,0.0,0.0,0.0,0.0,0.0,0.0,0.0,0.0,0.0,0.0,0.0,0.0,0.0,0.0,0.0,0.0,0.0,0.0,0.0,0.0,0.0,0.0,0.0,0.0,0.0,0.0,0.0,0.0,0.0,0.0,0.0,0.0,0.0,0.0,0.0,0.0,0.0,0.0,0.0,0.0,0.0,-1.4643,-1.4552,-1.4378,0.0,0.0,0.0,0.0,0.0,0.0,0.0,0.0,0.0,0.0,0.0,0.0,0.0,0.0,0.0,0.0,0.0,0.0,0.0,0.0,0.0,0.0,0.0,0.0,0.0,0.0,0.0,0.0,0.0,0.0,0.0,0.0,0.0,0.0,0.0,0.0,0.0,0.0,0.0,0.0,0.0,0.0,0.0,0.0,0.0,0.0,0.0,0.0,0.0,0.0,0.0,0.0,0.0,0.0,0.0,0.0,0.0,0.0,0.0,0.0,0.0,0.0,0.0,0.0,0.0,0.0,0.0,0.0,0.0,0.0,0.0,0.0,0.0,0.0,0.0,0.0,0.0,0.0,0.0,0.0,0.0,0.0,0.0,0.0,0.0,0.0,0.0,0.0,0.0,0.0,0.0,0.0,0.0,0.0,0.0,0.0,0.0,0.0,0.0,0.0,0.0,0.0,0.0,0.0,0.0,0.0,0.0,0.0,0.0,0.0,-1.468,-1.5029,-1.5047,0.0,-1.4029,0.0,0.0,0.0,0.0,0.0,0.0,0.0,0.0,0.0,0.0,0.0,0.0,0.0,0.0,0.0,0.0,0.0,0.0,0.0,0.0,0.0,0.0,0.0,0.0,0.0,0.0,0.0,0.0,0.0,0.0,0.0,0.0,0.0,0.0,0.0,0.0,0.0,0.0,0.0,0.0,0.0,0.0,0.0,0.0,0.0,0.0,0.0,0.0,0.0,0.0,0.0,0.0,0.0,0.0,0.0,0.0,0.0,0.0,0.0,0.0,0.0,0.0,0.0,0.0,0.0,0.0,0.0,0.0,0.0,0.0,0.0,0.0,0.0,0.0,0.0,0.0,0.0,0.0,0.0,0.0,0.0,0.0,0.0,0.0,0.0,0.0,0.0,0.0,0.0,0.0,0.0,0.0,0.0,0.0,0.0,0.0,0.0,0.0,0.0,0.0,0.0,0.0,0.0,0.0,0.0,0.0,0.0,0.0,0.0,0.0,-1.4937,-1.5102,-1.5111,-1.4717,0.0,0.0,0.0,0.0,0.0,0.0,0.0,0.0,0.0,0.0,0.0,0.0,0.0,0.0,0.0,0.0,0.0,0.0,0.0,0.0,0.0,0.0,0.0,0.0,0.0,0.0,0.0,0.0,0.0,0.0,0.0,0.0,0.0,0.0,0.0,0.0,0.0,0.0,0.0,0.0,0.0,0.0,0.0,0.0,0.0,0.0,0.0,0.0,0.0,0.0,0.0,0.0,0.0,0.0,0.0,0.0,0.0,0.0,0.0,0.0,0.0,0.0,0.0,0.0,0.0,0.0,0.0,0.0,0.0,0.0,0.0,0.0,0.0,0.0,0.0,0.0,0.0,0.0,0.0,0.0,0.0,0.0,0.0,0.0,0.0,0.0,0.0,0.0,0.0,0.0,0.0,0.0,0.0,0.0,0.0,0.0,0.0,0.0,0.0,0.0,0.0,0.0,0.0,0.0,0.0,0.0,0.0,0.0,0.0,0.0,-1.501,0.0,-1.5258,-1.5267,-1.4827,-1.391,0.0,0.0,0.0,0.0,0.0,0.0,0.0,0.0,0.0,0.0,0.0,0.0,0.0,0.0,0.0,0.0,0.0,0.0,0.0,0.0,0.0,0.0,0.0,0.0,0.0,0.0,0.0,0.0,0.0,0.0,0.0,0.0,0.0,0.0,0.0,0.0,0.0,0.0,0.0,0.0,0.0,0.0,0.0,0.0,0.0,0.0,0.0,0.0,0.0,0.0,0.0,0.0,0.0,0.0,0.0,0.0,0.0,0.0,0.0,0.0,0.0,0.0,0.0,0.0,0.0,0.0,0.0,0.0,0.0,0.0,0.0,0.0,0.0,0.0,0.0,0.0,0.0,0.0,0.0,0.0,0.0,0.0,0.0,0.0,0.0,0.0,0.0,0.0,0.0,0.0,0.0,0.0,0.0,0.0,0.0,0.0,0.0,0.0,0.0,0.0,0.0,0.0,0.0,0.0,0.0,0.0,0.0,0.0,0.0,-1.5285,-1.5285,-1.5652,-1.5661,-1.5102,0.0,0.0,0.0,0.0,0.0,0.0,0.0,0.0,0.0,0.0,0.0,0.0,0.0,0.0,0.0,0.0,0.0,0.0,0.0,0.0,0.0,0.0,0.0,0.0,0.0,0.0,0.0,0.0,0.0,0.0,0.0,0.0,0.0,0.0,0.0,0.0,0.0,0.0,0.0,0.0,0.0,0.0,0.0,0.0,0.0,0.0,0.0,0.0,0.0,0.0,0.0,0.0,0.0,0.0,0.0,0.0,0.0,0.0,0.0,0.0,0.0,0.0,0.0,0.0,0.0,0.0,0.0,0.0,0.0,0.0,0.0,0.0,0.0,0.0,0.0,0.0,0.0,0.0,0.0,0.0,0.0,0.0,0.0,0.0,0.0,0.0,0.0,0.0,0.0,0.0,0.0,0.0,0.0,0.0,0.0,0.0,0.0,0.0,0.0,0.0,0.0,0.0,0.0,0.0,0.0,0.0,0.0,0.0,0.0,-1.4919,-1.5038,-1.5423,-1.6046,-1.5588,-1.4983,0.0,0.0,0.0,0.0,0.0,0.0,0.0,0.0,0.0,0.0,0.0,0.0,0.0,0.0,0.0,0.0,0.0,0.0,0.0,0.0,0.0,0.0,0.0,0.0,0.0,0.0,0.0,0.0,0.0,0.0,0.0,0.0,0.0,0.0,0.0,0.0,0.0,0.0,0.0,0.0,0.0,0.0,0.0,0.0,0.0,0.0,0.0,0.0,0.0,0.0,0.0,0.0,0.0,0.0,0.0,0.0,0.0,0.0,0.0,0.0,0.0,0.0,0.0,0.0,0.0,0.0,0.0,0.0,0.0,0.0,0.0,0.0,0.0,0.0,0.0,0.0,0.0,0.0,0.0,0.0,0.0,0.0,0.0,0.0,0.0,0.0,0.0,0.0,0.0,0.0,0.0,0.0,0.0,0.0,0.0,0.0,0.0,0.0,0.0,0.0,0.0,0.0,0.0,0.0,0.0,0.0,0.0,0.0,0.0,-1.49,0.0,-1.5689,0.0,-1.5579,-1.4983,0.0,0.0,0.0,0.0,0.0,0.0,0.0,0.0,0.0,0.0,0.0,0.0,0.0,0.0,0.0,0.0,0.0,0.0,0.0,0.0,0.0,0.0,0.0,0.0,0.0,0.0,0.0,0.0,0.0,0.0,0.0,0.0,0.0,0.0,0.0,0.0,0.0,0.0,0.0,0.0,0.0,0.0,0.0,0.0,0.0,0.0,0.0,0.0,0.0,0.0,0.0,0.0,0.0,0.0,0.0,0.0,0.0,0.0,0.0,0.0,0.0,0.0,0.0,0.0,0.0,0.0,0.0,0.0,0.0,0.0,0.0,0.0,0.0,0.0,0.0,0.0,0.0,0.0,0.0,0.0,0.0,0.0,0.0,0.0,0.0,0.0,0.0,0.0,0.0,0.0,0.0,0.0,0.0,0.0,0.0,0.0,0.0,0.0,0.0,0.0,0.0,0.0,0.0,0.0,0.0,0.0,0.0,0.0,-1.4909,-1.5634,-1.6056,-1.6074,-1.5758,-1.5703,-1.5111,0.0,0.0,0.0,0.0,0.0,0.0,0.0,0.0,0.0,0.0,0.0,0.0,0.0,0.0,0.0,0.0,0.0,0.0,0.0,0.0,0.0,0.0,0.0,0.0,0.0,0.0,0.0,0.0,0.0,0.0,0.0,0.0,0.0,0.0,0.0,0.0,0.0,0.0,0.0,0.0,0.0,0.0,0.0,0.0,0.0,0.0,0.0,0.0,0.0,0.0,0.0,0.0,0.0,0.0,0.0,0.0,0.0,0.0,0.0,0.0,0.0,0.0,0.0,0.0,0.0,0.0,0.0,0.0,0.0,0.0,0.0,0.0,0.0,0.0,0.0,0.0,0.0,0.0,0.0,0.0,0.0,0.0,0.0,0.0,0.0,0.0,0.0,0.0,0.0,0.0,0.0,0.0,0.0,0.0,0.0,0.0,0.0,0.0,0.0,0.0,0.0,0.0,0.0,0.0,0.0,0.0,0.0,0.0,0.0,-1.5285,-1.568,-1.5964,-1.6101,-1.5579,-1.5111,0.0,0.0,0.0,0.0,0.0,0.0,0.0,0.0,0.0,0.0,0.0,0.0,0.0,0.0,0.0,0.0,0.0,0.0,0.0,0.0,0.0,0.0,0.0,0.0,0.0,0.0,0.0,0.0,0.0,0.0,0.0,0.0,0.0,0.0,0.0,0.0,0.0,0.0,0.0,0.0,0.0,0.0,0.0,0.0,0.0,0.0,0.0,0.0,0.0,0.0,0.0,0.0,0.0,0.0,0.0,0.0,0.0,0.0,0.0,0.0,0.0,0.0,0.0,0.0,0.0,0.0,0.0,0.0,0.0,0.0,0.0,0.0,0.0,0.0,0.0,0.0,0.0,0.0,0.0,0.0,0.0,0.0,0.0,0.0,0.0,0.0,0.0,0.0,0.0,0.0,0.0,0.0,0.0,0.0,0.0,0.0,0.0,0.0,0.0,0.0,0.0,0.0,0.0,0.0,0.0,0.0,0.0,0.0,0.0,-1.579,-1.6019,-1.6266,-1.6489,-1.5753,-1.5249,-1.5084,0.0,0.0,0.0,0.0,0.0,0.0,0.0,0.0,0.0,0.0,0.0,0.0,0.0,0.0,0.0,0.0,0.0,0.0,0.0,0.0,0.0,0.0,0.0,0.0,0.0,0.0,0.0,0.0,0.0,0.0,0.0,0.0,0.0,0.0,0.0,0.0,0.0,0.0,0.0,0.0,0.0,0.0,0.0,0.0,0.0,0.0,0.0,0.0,0.0,0.0,0.0,0.0,0.0,0.0,0.0,0.0,0.0,0.0,0.0,0.0,0.0,0.0,0.0,0.0,0.0,0.0,0.0,0.0,0.0,0.0,0.0,0.0,0.0,0.0,0.0,0.0,0.0,0.0,0.0,0.0,0.0,0.0,0.0,0.0,0.0,0.0,0.0,0.0,0.0,0.0,0.0,0.0,0.0,0.0,0.0,0.0,0.0,0.0,0.0,0.0,0.0,0.0,0.0,0.0,0.0,0.0,0.0,0.0,-1.6972,-1.6982,-1.6963,-1.6927,-1.6175,-1.556,0.0,0.0,0.0,0.0,0.0,0.0,0.0,0.0,0.0,0.0,0.0,0.0,0.0,0.0,0.0,0.0,0.0,0.0,0.0,0.0,0.0,0.0,0.0,0.0,0.0,0.0,0.0,0.0,0.0,0.0,0.0,0.0,0.0,0.0,0.0,0.0,0.0,0.0,0.0,0.0,0.0,0.0,0.0,0.0,0.0,0.0,0.0,0.0,0.0,0.0,0.0,0.0,0.0,0.0,0.0,0.0,0.0,0.0,0.0,0.0,0.0,0.0,0.0,0.0,0.0,0.0,0.0,0.0,0.0,0.0,0.0,0.0,0.0,0.0,0.0,0.0,0.0,0.0,0.0,0.0,0.0,0.0,0.0,0.0,0.0,0.0,0.0,0.0,0.0,0.0,0.0,0.0,0.0,0.0,0.0,0.0,0.0,0.0,0.0,0.0,0.0,0.0,0.0,0.0,0.0,0.0,0.0,0.0,0.0,-1.7734,-1.777,-1.7624,-1.7348,-1.6853,-1.6257,0.0,0.0,0.0,0.0,0.0,0.0,0.0,0.0,0.0,0.0,0.0,0.0,0.0,0.0,0.0,0.0,0.0,0.0,0.0,0.0,0.0,0.0,0.0,0.0,0.0,0.0,0.0,0.0,0.0,0.0,0.0,0.0,0.0,0.0,0.0,0.0,0.0,0.0,0.0,0.0,0.0,0.0,0.0,0.0,0.0,0.0,0.0,0.0,0.0,0.0,0.0,0.0,0.0,0.0,0.0,0.0,0.0,0.0,0.0,0.0,0.0,0.0,0.0,0.0,0.0,0.0,0.0,0.0,0.0,0.0,0.0,0.0,0.0,0.0,0.0,0.0,0.0,0.0,0.0,0.0,0.0,0.0,0.0,0.0,0.0,0.0,0.0,0.0,0.0,0.0,0.0,0.0,0.0,0.0,0.0,0.0,0.0,0.0,0.0,0.0,0.0,0.0,0.0,0.0,0.0,0.0,0.0,0.0,-1.755,-1.8357,-1.8531,-1.843,-1.8018,-1.7458,-1.678,0.0,0.0,0.0,0.0,0.0,0.0,0.0,0.0,0.0,0.0,0.0,0.0,0.0,0.0,0.0,0.0,0.0,0.0,0.0,0.0,0.0,0.0,0.0,0.0,0.0,0.0,0.0,0.0,0.0,0.0,0.0,0.0,0.0,0.0,0.0,0.0,0.0,0.0,0.0,0.0,0.0,0.0,0.0,0.0,0.0,0.0,0.0,0.0,0.0,0.0,0.0,0.0,0.0,0.0,0.0,0.0,0.0,0.0,0.0,0.0,0.0,0.0,0.0,0.0,0.0,0.0,0.0,0.0,0.0,0.0,0.0,0.0,0.0,0.0,0.0,0.0,0.0,0.0,0.0,0.0,0.0,0.0,0.0,0.0,0.0,0.0,0.0,0.0,0.0,0.0,0.0,0.0,0.0,0.0,0.0,0.0,0.0,0.0,0.0,0.0,0.0,0.0,0.0,0.0,0.0,0.0,0.0,0.0,-1.7972,-1.8696,-1.91,-1.9136,-1.877,-1.8027,-1.7229,0.0,0.0,0.0,0.0,0.0,0.0,0.0,0.0,0.0,0.0,0.0,0.0,0.0,0.0,0.0,0.0,0.0,0.0,0.0,0.0,0.0,0.0,0.0,0.0,0.0,0.0,0.0,0.0,0.0,0.0,0.0,0.0,0.0,0.0,0.0,0.0,0.0,0.0,0.0,0.0,0.0,0.0,0.0,0.0,0.0,0.0,0.0,0.0,0.0,0.0,0.0,0.0,0.0,0.0,0.0,0.0,0.0,0.0,0.0,0.0,0.0,0.0,0.0,0.0,0.0,0.0,0.0,0.0,0.0,0.0,0.0,0.0,0.0,0.0,0.0,0.0,0.0,0.0,0.0,0.0,0.0,0.0,0.0,0.0,0.0,0.0,0.0,0.0,0.0,0.0,0.0,0.0,0.0,0.0,0.0,0.0,0.0,0.0,0.0,0.0,0.0,0.0,0.0,0.0,0.0,0.0,0.0,0.0,-1.854,-1.8715,-1.9091,-1.9256,-1.9182,-1.8705,-1.7935,0.0,0.0,0.0,0.0,0.0,0.0,0.0,0.0,0.0,0.0,0.0,0.0,0.0,0.0,0.0,0.0,0.0,0.0,0.0,0.0,0.0,0.0,0.0,0.0,0.0,0.0,0.0,0.0,0.0,0.0,0.0,0.0,0.0,0.0,0.0,0.0,0.0,0.0,0.0,0.0,0.0,0.0,0.0,0.0,0.0,0.0,0.0,0.0,-0.7899,0.0,0.0,0.0,0.0,0.0,0.0,0.0,0.0,0.0,0.0,0.0,0.0,0.0,0.0,0.0,0.0,0.0,0.0,0.0,0.0,0.0,0.0,0.0,0.0,0.0,0.0,0.0,0.0,0.0,0.0,0.0,0.0,0.0,0.0,0.0,0.0,0.0,0.0,0.0,0.0,0.0,0.0,0.0,0.0,0.0,0.0,0.0,0.0,0.0,0.0,0.0,0.0,0.0,0.0,0.0,0.0,0.0,0.0,0.0,-1.8806,-1.8981,-1.9191,-1.9292,-1.9283,-1.91,-1.8421,0.0,0.0,0.0,0.0,0.0,0.0,0.0,0.0,0.0,0.0,0.0,0.0,0.0,0.0,0.0,0.0,0.0,0.0,0.0,0.0,0.0,0.0,0.0,0.0,0.0,0.0,0.0,0.0,0.0,0.0,0.0,0.0,0.0,0.0,0.0,0.0,0.0,0.0,0.0,0.0,0.0,0.0,0.0,0.0,0.0,0.0,0.0,0.0,0.0,0.0,0.0,0.0,0.0,0.0,0.0,0.0,0.0,0.0,0.0,0.0,0.0,0.0,0.0,0.0,0.0,0.0,0.0,0.0,0.0,0.0,0.0,0.0,0.0,0.0,0.0,0.0,0.0,0.0,0.0,0.0,0.0,0.0,0.0,0.0,0.0,0.0,0.0,0.0,0.0,0.0,0.0,0.0,0.0,0.0,0.0,0.0,0.0,0.0,0.0,0.0,0.0,0.0,0.0,0.0,0.0,0.0,0.0,-1.8192,-1.8907,-1.9274,-1.9292,-1.9292,-1.9292,-1.9292,-1.876,-1.7642,0.0,0.0,0.0,0.0,0.0,0.0,0.0,0.0,0.0,0.0,0.0,0.0,0.0,0.0,0.0,0.0,0.0,0.0,0.0,0.0,0.0,0.0,0.0,0.0,0.0,0.0,0.0,0.0,0.0,0.0,0.0,0.0,0.0,0.0,0.0,0.0,0.0,0.0,-1.1309,-1.1848,0.0,0.0,0.0,0.0,0.0,0.0,0.0,0.0,-0.7165,0.0,0.0,0.0,0.0,0.0,0.0,0.0,0.0,0.0,0.0,0.0,0.0,0.0,0.0,0.0,0.0,0.0,0.0,0.0,0.0,0.0,0.0,0.0,0.0,0.0,0.0,0.0,0.0,0.0,0.0,0.0,0.0,0.0,0.0,0.0,0.0,0.0,0.0,0.0,0.0,0.0,0.0,0.0,0.0,0.0,0.0,0.0,0.0,0.0,0.0,0.0,0.0,0.0,0.0,0.0,0.0,-1.8394,-1.8614,-1.8907,-1.9283,-1.9292,-1.9292,-1.9292,-1.9292,-1.8898,-1.8008,0.0,0.0,0.0,0.0,0.0,0.0,0.0,0.0,0.0,0.0,0.0,0.0,0.0,0.0,0.0,0.0,0.0,0.0,0.0,0.0,0.0,0.0,0.0,0.0,0.0,0.0,0.0,0.0,0.0,0.0,0.0,0.0,0.0,0.0,0.0,0.0,0.0,0.0,0.0,-1.1998,-1.237,0.0,0.0,0.0,0.0,0.0,0.0,0.0,0.0,-0.6101,0.0,0.0,0.0,0.0,0.0,0.0,0.0,0.0,0.0,0.0,0.0,0.0,0.0,0.0,0.0,0.0,0.0,0.0,0.0,0.0,0.0,0.0,0.0,0.0,0.0,0.0,0.0,0.0,0.0,0.0,0.0,0.0,0.0,0.0,0.0,0.0,0.0,0.0,0.0,0.0,0.0,0.0,0.0,0.0,0.0,0.0,0.0,0.0,0.0,0.0,0.0,0.0,0.0,0.0,0.0,-1.7878,-1.8552,-1.8961,-1.9143,-1.9262,-1.9292,-1.9292,-1.9109,-1.8715,0.0,0.0,0.0,0.0,0.0,0.0,0.0,0.0,0.0,0.0,0.0,0.0,0.0,0.0,0.0,0.0,0.0,0.0,0.0,0.0,0.0,0.0,0.0,0.0,0.0,0.0,0.0,0.0,0.0,0.0,0.0,0.0,0.0,0.0,0.0,0.0,0.0,0.0,0.0,0.0,-1.2242,-1.2532,-1.241,0.0,0.0,0.0,0.0,0.0,0.0,-0.7481,-0.6308,0.0,0.0,0.0,0.0,0.0,0.0,0.0,0.0,0.0,0.0,0.0,0.0,0.0,0.0,0.0,0.0,0.0,0.0,0.0,0.0,0.0,0.0,0.0,0.0,0.0,0.0,0.0,0.0,0.0,0.0,0.0,0.0,0.0,0.0,0.0,0.0,0.0,0.0,0.0,0.0,0.0,0.0,0.0,0.0,0.0,0.0,0.0,0.0,0.0,0.0,0.0,0.0,0.0,0.0,0.0,-1.7279,-1.8276,-1.8881,-1.8993,-1.9152,-1.9262,-1.9292,-1.8999,-1.8568,0.0,0.0,0.0,0.0,0.0,0.0,0.0,0.0,0.0,0.0,0.0,0.0,0.0,0.0,0.0,0.0,0.0,0.0,0.0,0.0,0.0,0.0,0.0,0.0,0.0,0.0,0.0,0.0,0.0,0.0,0.0,0.0,0.0,0.0,0.0,0.0,0.0,0.0,0.0,0.0,0.0,-1.2643,-1.2427,-1.2671,0.0,0.0,0.0,0.0,-0.9091,-0.7653,0.0,0.0,0.0,0.0,0.0,0.0,0.0,0.0,0.0,0.0,0.0,0.0,0.0,0.0,0.0,0.0,0.0,0.0,0.0,0.0,0.0,0.0,0.0,0.0,0.0,0.0,0.0,0.0,0.0,0.0,0.0,0.0,0.0,0.0,0.0,0.0,0.0,0.0,0.0,0.0,0.0,0.0,0.0,0.0,0.0,0.0,0.0,0.0,0.0,0.0,0.0,0.0,0.0,0.0,0.0,0.0,-1.7424,-1.7959,-1.8446,-1.8984,-1.8993,-1.9121,-1.9301,-1.9256,-1.8705,0.0,0.0,0.0,0.0,0.0,0.0,0.0,0.0,0.0,0.0,0.0,0.0,0.0,0.0,0.0,0.0,0.0,0.0,0.0,0.0,0.0,0.0,0.0,0.0,0.0,0.0,0.0,0.0,0.0,0.0,0.0,0.0,0.0,0.0,0.0,0.0,0.0,0.0,0.0,0.0,0.0,-1.2674,-1.1739,-1.242,-1.2292,0.0,0.0,-0.9429,-0.8408,-0.7477,0.0,0.0,0.0,0.0,0.0,0.0,0.0,0.0,0.0,0.0,0.0,0.0,0.0,0.0,0.0,0.0,0.0,0.0,0.0,0.0,0.0,0.0,0.0,0.0,0.0,0.0,0.0,0.0,0.0,0.0,0.0,0.0,0.0,0.0,0.0,0.0,0.0,0.0,0.0,0.0,0.0,0.0,0.0,0.0,0.0,0.0,0.0,0.0,0.0,0.0,0.0,0.0,0.0,0.0,0.0,-1.6368,-1.7307,-1.796,-1.8395,-1.8634,-1.8772,-1.8891,-1.8962,-1.8728,-1.8208,0.0,0.0,0.0,0.0,0.0,0.0,0.0,0.0,0.0,0.0,0.0,0.0,0.0,0.0,0.0,0.0,0.0,0.0,0.0,0.0,0.0,0.0,0.0,0.0,0.0,0.0,0.0,0.0,0.0,0.0,0.0,0.0,0.0,0.0,0.0,0.0,0.0,0.0,0.0,0.0,0.0,0.0,-1.1549,-1.1615,0.0,0.0,0.0,-0.9095,-0.8572,0.0,0.0,0.0,0.0,0.0,0.0,0.0,0.0,0.0,0.0,0.0,0.0,0.0,0.0,0.0,0.0,0.0,0.0,0.0,0.0,0.0,0.0,0.0,0.0,0.0,0.0,0.0,0.0,0.0,0.0,0.0,0.0,0.0,0.0,0.0,0.0,0.0,0.0,0.0,0.0,0.0,0.0,0.0,0.0,0.0,0.0,0.0,0.0,0.0,0.0,0.0,0.0,0.0,0.0,0.0,0.0,0.0,-1.7128,-1.7922,-1.8313,-1.8402,-1.8571,-1.8652,-1.87,-1.8301,0.0,0.0,0.0,0.0,0.0,0.0,0.0,0.0,0.0,0.0,0.0,0.0,0.0,0.0,0.0,0.0,0.0,0.0,0.0,0.0,0.0,0.0,0.0,0.0,0.0,0.0,0.0,-0.9478,0.0,0.0,0.0,0.0,0.0,0.0,0.0,0.0,0.0,0.0,0.0,0.0,0.0,0.0,-1.1436,-1.099,-1.0813,-1.0496,0.0,0.0,-0.8811,-0.8495,-0.7759,-0.7136,0.0,0.0,0.0,0.0,0.0,0.0,0.0,0.0,0.0,0.0,0.0,0.0,0.0,0.0,0.0,0.0,0.0,0.0,0.0,0.0,0.0,0.0,0.0,0.0,0.0,0.0,0.0,0.0,0.0,0.0,0.0,0.0,0.0,0.0,0.0,0.0,0.0,0.0,0.0,0.0,0.0,0.0,0.0,0.0,0.0,0.0,0.0,0.0,0.0,0.0,0.0,0.0,0.0,0.0,0.0,-1.691,-1.7655,-1.8161,-1.8402,-1.8402,-1.8531,-1.8692,-1.8301,-1.7565,0.0,0.0,0.0,0.0,0.0,0.0,0.0,0.0,0.0,0.0,0.0,0.0,0.0,0.0,0.0,0.0,0.0,0.0,0.0,0.0,0.0,0.0,0.0,0.0,0.0,0.0,0.0,0.0,0.0,0.0,0.0,0.0,0.0,0.0,0.0,0.0,0.0,0.0,0.0,0.0,0.0,-1.1256,-0.9569,-1.0174,-1.0131,0.0,0.0,-0.8629,-0.7664,-0.7412,-0.7303,-0.6976,0.0,0.0,0.0,0.0,0.0,0.0,0.0,0.0,0.0,0.0,0.0,0.0,0.0,0.0,0.0,0.0,0.0,0.0,0.0,0.0,0.0,0.0,0.0,0.0,0.0,0.0,0.0,0.0,0.0,0.0,0.0,0.0,0.0,0.0,0.0,0.0,0.0,0.0,0.0,0.0,0.0,0.0,0.0,0.0,0.0,0.0,0.0,0.0,0.0,0.0,0.0,0.0,0.0,-1.6165,-1.6872,-1.7615,-1.804,-1.8161,-1.8152,-1.8193,-1.829,-1.8134,-1.7557,0.0,0.0,0.0,0.0,0.0,0.0,0.0,0.0,0.0,0.0,0.0,0.0,0.0,0.0,0.0,0.0,0.0,0.0,0.0,0.0,0.0,0.0,0.0,0.0,0.0,0.0,0.0,0.0,-0.96,-0.9553,-0.9553,0.0,0.0,0.0,0.0,0.0,0.0,0.0,0.0,0.0,0.0,-0.9886,-0.9272,-0.915,0.0,0.0,-0.8192,-0.8197,-0.7709,-0.757,-0.7407,-0.7065,-0.7014,0.0,0.0,0.0,0.0,0.0,0.0,0.0,0.0,0.0,0.0,0.0,0.0,0.0,0.0,0.0,0.0,0.0,0.0,0.0,0.0,0.0,0.0,0.0,0.0,0.0,0.0,0.0,0.0,0.0,0.0,0.0,0.0,0.0,0.0,0.0,0.0,0.0,0.0,0.0,0.0,0.0,0.0,0.0,0.0,0.0,0.0,0.0,0.0,0.0,0.0,0.0,0.0,-1.6173,-1.6918,-1.7615,-1.7991,-1.7991,-1.7991,-1.7991,-1.7991,-1.7889,-1.7428,0.0,0.0,0.0,0.0,0.0,0.0,0.0,0.0,0.0,0.0,0.0,0.0,0.0,0.0,0.0,0.0,0.0,0.0,0.0,0.0,0.0,0.0,0.0,0.0,0.0,0.0,0.0,0.0,-0.9679,-0.9574,-0.9466,0.0,0.0,0.0,0.0,0.0,0.0,0.0,0.0,0.0,0.0,-0.8744,-0.8627,-0.8213,-0.7892,-0.7892,-0.7902,-0.795,-0.7889,-0.776,-0.7543,-0.724,0.0,0.0,0.0,0.0,0.0,0.0,0.0,0.0,0.0,0.0,0.0,0.0,0.0,0.0,0.0,0.0,0.0,0.0,0.0,0.0,0.0,0.0,0.0,0.0,0.0,0.0,0.0,0.0,0.0,0.0,-1.3579,0.0,0.0,0.0,0.0,0.0,0.0,0.0,0.0,0.0,0.0,0.0,0.0,0.0,0.0,0.0,0.0,0.0,0.0,0.0,0.0,0.0,0.0,-1.6182,-1.688,-1.7624,-1.7991,-1.7991,-1.7991,-1.7991,-1.7991,-1.768,-1.7171,-1.6407,0.0,0.0,0.0,0.0,0.0,0.0,0.0,0.0,0.0,0.0,0.0,0.0,0.0,0.0,0.0,0.0,0.0,0.0,0.0,0.0,0.0,0.0,0.0,0.0,0.0,0.0,-0.9706,-0.9607,-0.935,0.0,0.0,0.0,0.0,0.0,0.0,0.0,0.0,0.0,0.0,-0.8773,-0.8139,-0.736,-0.749,-0.7596,-0.76,-0.7727,-0.7823,-0.7968,-0.7864,-0.7711,0.0,0.0,0.0,0.0,0.0,0.0,0.0,0.0,0.0,0.0,0.0,0.0,0.0,0.0,0.0,0.0,0.0,0.0,0.0,0.0,0.0,0.0,0.0,0.0,0.0,0.0,0.0,-1.5834,-1.493,0.0,0.0,0.0,0.0,0.0,0.0,0.0,0.0,0.0,0.0,0.0,-1.6254,-1.6952,0.0,0.0,0.0,0.0,0.0,0.0,0.0,0.0,0.0,0.0,0.0,0.0,-1.6533,-1.7269,-1.7743,-1.7991,-1.7991,-1.7991,-1.7991,-1.7991,-1.7912,-1.7372,-1.637,0.0,0.0,0.0,0.0,0.0,0.0,0.0,0.0,0.0,0.0,0.0,0.0,0.0,0.0,0.0,0.0,0.0,0.0,0.0,0.0,0.0,0.0,0.0,0.0,0.0,-0.9843,0.0,0.0,0.0,0.0,0.0,0.0,0.0,0.0,0.0,0.0,0.0,-0.9527,-0.9711,-0.8409,-0.7427,-0.7217,-0.7288,-0.7375,0.0,0.0,0.0,0.0,0.0,0.0,0.0,0.0,0.0,0.0,0.0,0.0,0.0,0.0,-0.6339,-0.6329,-0.6272,-0.623,-0.6182,0.0,0.0,0.0,0.0,0.0,0.0,0.0,0.0,0.0,0.0,0.0,0.0,0.0,0.0,-1.6223,0.0,-1.577,0.0,0.0,0.0,0.0,0.0,0.0,0.0,0.0,-1.7155,-1.7297,-1.6678,-1.7391,-1.7352,0.0,-1.6402,-1.6053,0.0,0.0,0.0,0.0,0.0,0.0,0.0,0.0,-1.6255,-1.701,-1.7354,-1.7546,-1.7546,-1.7716,-1.7797,-1.7789,-1.7502,-1.6789,-1.5656,-1.5174,-1.4308,0.0,0.0,0.0,0.0,0.0,0.0,0.0,0.0,0.0,0.0,0.0,0.0,0.0,0.0,0.0,0.0,0.0,0.0,0.0,0.0,0.0,0.0,0.0,-0.9871,0.0,0.0,0.0,0.0,0.0,0.0,0.0,0.0,0.0,-1.1138,-1.0298,-0.9533,-0.9247,-0.8139,-0.7236,-0.6974,0.0,0.0,0.0,0.0,0.0,0.0,0.0,-0.7501,-0.731,-0.7256,-0.7116,-0.6848,-0.6738,-0.6642,-0.6642,0.0,0.0,-0.6359,-0.6314,-0.6285,-0.6285,-0.636,-0.6406,-0.6278,-0.6325,-0.6406,0.0,0.0,0.0,0.0,0.0,0.0,0.0,0.0,-1.7185,-1.6966,0.0,-1.6894,0.0,0.0,0.0,0.0,0.0,-1.6267,0.0,0.0,-1.7051,-1.7391,-1.7648,-1.7652,-1.7687,-1.768,-1.7612,-1.7243,-1.6527,-1.5222,0.0,0.0,0.0,0.0,0.0,0.0,-1.55,-1.6214,-1.6563,-1.6697,-1.673,-1.7139,-1.7351,-1.7302,-1.6517,-1.5542,-1.434,-1.3715,-1.3068,-1.2416,-1.1964,0.0,0.0,0.0,0.0,0.0,0.0,0.0,0.0,0.0,0.0,0.0,0.0,0.0,0.0,0.0,0.0,0.0,0.0,0.0,0.0,-0.9732,0.0,0.0,0.0,0.0,0.0,0.0,0.0,0.0,0.0,0.0,-0.964,-1.0255,-0.9958,-0.8007,0.0,0.0,0.0,0.0,-0.6846,-0.6975,-0.7198,-0.7498,-0.7753,-0.7735,-0.7678,-0.7405,0.0,0.0,-0.6488,-0.645,-0.6406,-0.64,-0.6406,-0.6392,-0.6384,-0.6331,-0.6311,-0.6309,-0.6224,-0.6102,-0.6097,-0.615,-0.615,-2.3288,0.0,0.0,0.0,0.0,-2.0488,-1.9824,-1.9325,-1.8378,-1.7821,-1.7597,-1.7212,0.0,0.0,0.0,0.0,0.0,0.0,-1.6883,-1.6891,-1.7265,-1.7286,-1.7131,-1.7318,-1.731,-1.7124,-1.7131,-1.6906,-1.6479,-1.6062,-1.5484,-1.4745,0.0,0.0,0.0,0.0,-1.6095,-1.6563,-1.6642,-1.6689,-1.6689,-1.682,-1.6681,-1.6206,-1.5942,-1.5283,-1.4198,-1.3973,-1.3333,-1.2154,-1.1782,0.0,0.0,0.0,0.0,0.0,0.0,0.0,0.0,0.0,0.0,0.0,0.0,0.0,0.0,0.0,0.0,0.0,0.0,0.0,-0.9556,-0.9949,-1.0229,0.0,0.0,0.0,0.0,0.0,0.0,0.0,0.0,0.0,-0.8378,-0.8434,-0.8423,0.0,0.0,-0.6783,-0.6437,-0.6563,-0.6716,-0.6838,-0.6984,0.0,-0.7353,-0.7378,-0.7295,-0.716,-0.6989,-0.6882,-0.6711,-0.6698,-0.6698,-0.6698,-0.6627,-0.6516,-0.6562,-0.6472,-0.6344,-0.6385,-0.6358,-0.6287,-0.6284,-0.6336,-0.6333,-2.425,-2.3949,-2.318,-2.2282,-2.1294,-2.0726,-2.0048,-1.9367,-1.8672,-1.8243,-1.8021,-1.7711,-1.7352,-1.6956,-1.6615,0.0,0.0,0.0,-1.6862,-1.6981,-1.7169,-1.7189,-1.7047,-1.7238,-1.723,-1.7047,-1.704,-1.6925,-1.6609,-1.6602,-1.6104,-1.5172,0.0,0.0,-1.5708,-1.5936,-1.6223,-1.6572,-1.6465,-1.6369,-1.6362,-1.6438,-1.6188,-1.5628,-1.5338,-1.4705,-1.3692,-1.3361,-1.2697,-1.175,-1.1313,-1.0708,0.0,0.0,0.0,0.0,0.0,0.0,0.0,0.0,0.0,0.0,0.0,-0.9475,-0.9025,0.0,0.0,0.0,-0.9147,-0.9518,-1.0083,-1.0396,0.0,0.0,0.0,0.0,0.0,0.0,0.0,-0.9694,-0.8668,-0.7625,-0.7041,-0.69,-0.6993,-0.7319,-0.7179,-0.688,-0.6434,0.0,-0.6662,-0.6785,-0.6907,-0.7024,-0.7191,-0.721,-0.7172,-0.7005,-0.6926,-0.6855,-0.6809,-0.6804,-0.6804,-0.6793,-0.6741,-0.669,-0.669,-0.6627,-0.6543,-0.6408,-0.6387,-0.6387,-0.6387,-0.6387,-0.6387,-2.5039,-2.475,-2.2874,-2.1389,-2.0276,-2.0148,-1.9488,-1.8452,-1.8417,-1.8342,-1.829,-1.8253,-1.8184,-1.8145,-1.7359,0.0,-1.7,-1.661,-1.6653,-1.6932,-1.6939,-1.7047,-1.7326,-1.7286,-1.7286,-1.7286,-1.7286,-1.7179,-1.6947,-1.6939,-1.6631,-1.6009,-1.6016,-1.621,-1.6521,-1.615,-1.6089,-1.6404,-1.6089,-1.59,-1.582,-1.5928,-1.5707,-1.5144,-1.4559,-1.3802,-1.2918,-1.2075,-1.1545,-1.1302,-1.0705,-1.0234,-0.9976,0.0,0.0,0.0,0.0,0.0,0.0,0.0,0.0,0.0,0.0,0.0,0.0,0.0,0.0,0.0,-0.983,0.0,-1.0945,-1.1031,0.0,0.0,0.0,-1.085,-1.085,-0.9255,-0.8166,-0.8141,0.0,0.0,-0.5784,-0.5703,-0.5799,-0.63,-0.7188,-0.7481,-0.65,-0.6457,-0.6572,-0.6703,-0.6816,-0.6983,-0.7027,-0.7102,-0.7014,-0.692,-0.6945,-0.6853,-0.6762,-0.6738,-0.6783,-0.6741,-0.6772,-0.6711,-0.6709,-0.6698,-0.6626,-0.6364,-0.6364,-0.6403,-0.6389,-0.6387,-0.6387,-2.3807,-2.2492,-2.2023,-2.1815,-2.1734,-2.0566,-1.9554,-1.8672,-1.8345,-1.8164,-1.8141,-1.7718,-1.7445,-1.7206,-1.7003,-1.6928,-1.6936,-1.7042,-1.7135,-1.7216,-1.7223,-1.7252,-1.7286,-1.7286,-1.7286,-1.7286,-1.7286,-1.7289,-1.7216,-1.7216,-1.7018,-1.666,-1.6872,-1.6675,-1.6079,-1.6191,-1.6338,-1.6411,-1.6294,-1.5922,-1.5159,-1.4937,-1.4265,-1.3167,-1.2954,-1.2491,-1.1731,-1.1521,-1.137,-1.13,-1.1019,-1.0713,-1.0431,-0.9798,0.0,0.0,0.0,0.0,0.0,0.0,0.0,0.0,0.0,-1.0013,-0.927,0.0,-1.0249,0.0,-1.0179,-1.0646,-1.1171,-1.1071,0.0,0.0,-1.0981,-1.0585,-1.0498,-0.9096,-0.8038,-0.7753,-0.651,-0.5624,-0.5624,-0.5725,-0.5809,-0.5962,-0.6088,-0.6113,-0.595,-0.6059,-0.6167,-0.6273,-0.6381,-0.6465,-0.6543,-0.6495,-0.6541,-0.6463,-0.6455,-0.6448,-0.6421,-0.6421,-0.6418,-0.6413,-0.6347,-0.6246,-0.6293,-0.6173,-0.6104,-0.6041,-0.628,-0.6545,-0.6408,-0.6389,-0.6387,-2.375,-2.2589,-2.1828,-2.1554,-2.1517,-2.0121,-1.9142,-1.8465,-1.8226,-1.7939,-1.7707,-1.7419,-1.723,-1.7069,-1.7062,-1.7069,-1.7084,-1.7252,-1.7286,-1.7286,-1.7286,-1.7286,-1.7286,-1.7286,-1.7286,-1.7286,-1.7286,-1.7286,-1.7286,-1.7286,-1.7245,-1.7069,-1.7238,-1.7023,-1.6527,-1.6711,-1.6655,-1.6292,-1.615,-1.5688,-1.4907,-1.4378,-1.3677,-1.2881,-1.2577,-1.2192,-1.1817,-1.1478,-1.1257,-1.1144,-1.1058,-1.088,-1.0603,-1.0169,-0.9836,0.0,0.0,0.0,0.0,0.0,0.0,0.0,0.0,0.0,0.0,0.0,-1.0602,-1.0251,-1.0305,-1.0567,-1.106,-1.0979,-1.1,-1.1375,-1.0824,-1.0303,-0.9925,-0.8594,-0.7473,-0.6967,-0.5919,-0.5251,-0.5298,-0.54,-0.5453,-0.5493,-0.5401,-0.5489,-0.5808,-0.5958,-0.6051,-0.6108,-0.6205,-0.6272,-0.6272,-0.6272,-0.6272,-0.6272,-0.6272,-0.6272,-0.6272,-0.6272,-0.6272,-0.627,-0.6224,-0.6186,-0.6184,-0.6141,-0.6086,-0.6029,-0.6192,-0.6302,-0.6146,-0.6073,-0.6087,-2.4195,-2.3519,-2.1891,-2.0881,-2.0286,-1.9134,-1.8357,-1.7994,-1.7986,-1.7753,-1.7286,-1.7286,-1.7286,-1.7286,-1.7286,-1.7286,-1.7286,-1.7286,-1.7286,-1.7286,-1.7286,-1.7286,-1.7286,-1.7286,-1.7286,-1.7286,-1.7185,-1.7138,-1.7185,-1.7044,-1.7044,-1.7052,-1.6998,-1.6951,-1.6857,-1.6998,-1.6803,-1.6332,-1.5936,-1.5447,-1.4892,-1.4005,-1.3424,-1.3163,-1.2601,-1.224,-1.2235,-1.1645,-1.1209,-1.1047,-1.1031,-1.0939,-1.0694,-1.0482,-1.0342,0.0,-1.0078,0.0,0.0,0.0,0.0,0.0,0.0,0.0,0.0,-1.0783,-1.0867,-1.0591,-1.0359,-1.0366,-1.0796,-1.0785,-1.0865,-1.1105,-1.0668,-0.9961,-0.9023,-0.7879,-0.6839,-0.5939,-0.5247,-0.4883,-0.5006,-0.4988,-0.5041,-0.5165,-0.5192,-0.5305,-0.5736,-0.5901,-0.595,-0.602,-0.6104,-0.6107,-0.6107,-0.6163,-0.6161,-0.6163,-0.6163,-0.6163,-0.6163,-0.6163,-0.6163,-0.6163,-0.6158,-0.6158,-0.6163,-0.6158,-0.6128,-0.5987,-0.5952,-0.5922,-0.5839,-0.5775,-0.5706,-2.391,-2.2777,-2.1356,-2.0104,-1.9063,-1.8017,-1.7512,-1.7466,-1.7426,-1.7372,-1.7286,-1.7286,-1.7286,-1.7286,-1.7286,-1.7286,-1.7286,-1.7286,-1.7286,-1.7286,-1.7286,-1.7286,-1.7286,-1.7286,-1.7286,-1.7286,-1.6669,-1.6426,-1.6379,-1.5812,-1.5527,-1.5527,-1.5527,-1.5188,-1.4621,0.0,0.0,0.0,-1.6167,-1.5363,-1.4747,-1.3538,-1.2633,-1.2026,-1.1706,0.0,-1.1521,-1.1397,-1.1289,-1.1241,-1.1241,0.0,0.0,0.0,0.0,0.0,0.0,0.0,0.0,0.0,0.0,0.0,-1.0009,-1.0054,-1.0277,-1.047,-1.0591,-1.0543,-1.0599,-1.0777,-1.1065,-1.0747,-1.0583,-1.0811,-1.0207,-0.9175,-0.7783,-0.7338,-0.6637,-0.5186,-0.4999,-0.4951,-0.4981,-0.5098,-0.5142,-0.5164,-0.5284,-0.5382,-0.549,-0.5442,-0.5438,-0.5505,-0.5594,-0.5605,-0.5549,-0.5605,-0.5605,-0.5551,-0.5549,-0.5605,-0.5607,-0.5607,-0.5605,-0.5607,-0.5549,-0.5605,-0.5605,-0.5549,-0.5599,-0.5524,-0.5463,-0.5459,-0.5737,-0.5782,-0.5741,-2.3683,0.0,-2.0977,-1.9778,0.0,-1.7738,-1.7286,-1.7286,-1.7286,-1.7286,-1.7286,-1.7286,-1.7286,-1.7286,-1.7286,-1.7286,-1.7286,-1.7286,-1.7286,-1.7286,-1.7286,-1.7286,-1.7286,-1.7286,-1.7286,-1.7286,-1.6951,-1.6756,-1.6709,-1.6001,-1.5622,-1.5622,-1.5289,-1.4908,-1.4532,-1.4908,-1.5473,-1.619,-1.5282,-1.4584,-1.4127,-1.3084,-1.2293,-1.1709,-1.1585,0.0,0.0,0.0,0.0,0.0,0.0,0.0,0.0,0.0,0.0,-1.0941,-1.0505,-1.0228,-1.024,-1.005,-0.9986,-1.0176,-1.0081,-1.0098,-1.0333,-1.0306,-1.0308,-1.0312,-1.0249,-1.0259,-1.04,-1.0167,-1.0057,-1.0141,-0.9478,-0.8531,-0.7388,-0.6839,-0.6163,-0.5152,-0.4996,-0.5002,-0.5096,-0.5128,-0.5207,-0.5306,-0.5351,-0.5382,-0.538,-0.5343,-0.5333,-0.5373,-0.5382,-0.5384,-0.5382,-0.5382,-0.5382,-0.5384,-0.5382,-0.5382,-0.5382,-0.5382,-0.5382,-0.5382,-0.5382,-0.5382,-0.5382,-0.5382,-0.5382,-0.538,-0.5345,-0.5324,-0.5505,-0.5492,-0.5498,-2.3808,-2.2547,-2.1,-1.9845,-1.8972,-1.7777,-1.7286,-1.7286,0.0,0.0,0.0,-1.7286,-1.7286,-1.7286,-1.7286,-1.7286,-1.7286,-1.7286,-1.7286,-1.7286,-1.7286,-1.7286,-1.7286,-1.7286,-1.7286,-1.7286,-1.7138,-1.7099,-1.7091,-1.6379,-1.5954,-1.5758,-1.5194,-1.4813,-1.4723,-1.4717,-1.4717,-1.4669,-1.419,-1.3808,-1.3655,-1.2856,-1.2226,-1.1833,-1.1779,-1.165,-1.1375,-1.137,-1.1257,-1.1069,-1.1203,-1.1193,-1.1001,-1.1214,-1.1299,-1.1161,-1.0894,-1.0706,-1.0711,-1.0365,-1.0181,-1.0287,-1.0118,-1.0144,-1.0408,-1.0156,-1.004,-0.9987,-0.9739,-0.9624,-0.9624,-0.9624,-0.9624,-0.9575,-0.8981,-0.8283,-0.7338,-0.6662,-0.6007,-0.5216,-0.5002,-0.5073,-0.516,-0.5202,-0.5294,-0.5361,-0.538,-0.5382,-0.5382,-0.5377,-0.5375,-0.5382,-0.5382,-0.5382,-0.5382,-0.5382,-0.5382,-0.5382,-0.5382,-0.5382,-0.5382,-0.5382,-0.5382,-0.5382,-0.5382,-0.5382,-0.5382,-0.5382,-0.5382,-0.5382,-0.5382,-0.5361,-0.5286,-0.5156,-0.5256,-2.467,-2.3909,-2.171,-2.0486,-1.9877,-1.8056,-1.7286,-1.7286,-1.7286,-1.7286,-1.7286,-1.7286,-1.7286,-1.7286,-1.7286,-1.7286,-1.7286,-1.7286,-1.7286,-1.7286,-1.7286,-1.7286,-1.7286,-1.7286,-1.7286,-1.7232,-1.6669,-1.6339,-1.6285,-1.5622,-1.4914,-1.4334,-1.4094,-1.3763,-1.3195,-1.3098,-1.3147,-1.3147,-1.3619,-1.3884,-1.3849,-1.2892,-1.2388,-1.2312,-1.2154,-1.1937,-1.1666,-1.1655,-1.1542,-1.1273,-1.1289,-1.1158,-1.0967,-1.1357,-1.1334,-1.0695,-1.0979,-1.082,-1.002,-0.989,-0.9783,-0.9589,-0.9632,-0.9811,-1.0114,-0.9875,-0.969,-0.969,-0.9612,-0.9624,-0.9624,-0.9624,-0.9624,-0.9624,-0.948,-0.8832,-0.7394,-0.7131,-0.6541,-0.519,-0.5114,-0.515,-0.5192,-0.5312,-0.5359,-0.5377,-0.5382,-0.5382,-0.5382,-0.5382,-0.5382,-0.5382,-0.5382,-0.5382,-0.5382,-0.5382,-0.5382,-0.5382,-0.5382,-0.5382,-0.5382,-0.5382,-0.5382,-0.5382,-0.5382,-0.5382,-0.5382,-0.5382,-0.5382,-0.5382,-0.5382,-0.5371,-0.5353,-0.5335,-0.534,-2.4648,-2.3815,-2.2307,-2.0925,-1.9646,-1.7992,-1.7286,-1.7286,-1.7286,-1.7286,-1.7286,-1.7286,-1.7286,-1.7286,-1.7286,-1.7286,-1.7286,-1.7286,-1.7286,-1.7286,-1.7286,-1.7286,-1.7286,-1.7286,-1.7286,-1.7279,-1.6943,-1.681,-1.6716,-1.6048,-1.5439,-1.4914,-1.4106,-1.3576,-1.3383,-1.3001,-1.2662,-1.237,-1.2996,-1.3335,-1.3286,-1.2555,-1.2108,-1.1989,-1.1874,-1.1713,-1.149,-1.1751,-1.1748,-1.1323,-1.1279,-1.1145,-1.0737,-1.0929,-1.0882,-1.051,-1.0477,-1.0347,-0.9991,-0.9806,-0.9654,-0.9498,-0.9575,-0.9645,-0.9807,-0.9682,-0.9624,-0.9624,-0.9624,-0.9624,-0.9624,-0.9624,-0.9624,-0.9624,-0.9229,-0.8514,-0.7481,-0.6927,-0.6298,-0.5314,-0.5136,-0.5209,-0.5314,-0.5355,-0.5382,-0.5382,-0.5382,-0.5382,-0.5382,-0.5382,-0.5382,-0.5382,-0.5382,-0.5382,-0.5382,-0.5382,-0.5382,-0.5382,-0.5382,-0.5382,-0.5382,-0.5382,-0.5382,-0.5382,-0.5382,-0.5382,-0.5382,-0.5382,-0.5382,-0.5382,-0.5382,-0.5382,-0.5382,-0.5382,-0.5349,-2.4756,-2.3859,-2.2963,-2.1363,-1.9319,-1.8154,-1.7512,-1.7326,-1.7286,-1.7286,-1.7286,-1.7286,-1.7286,-1.7286,-1.7286,-1.7286,-1.7286,-1.7286,-1.7286,-1.7286,-1.7286,-1.7286,-1.7286,-1.7286,-1.7286,-1.7286,-1.7286,-1.7286,-1.7232,-1.6669,-1.6157,-1.5588,-1.4112,-1.3437,-1.3619,-1.2851,-1.2219,-1.1878,-1.2224,-1.2467,-1.2419,-1.2029,-1.1706,-1.1499,-1.1537,-1.138,-1.1213,-1.1569,-1.1595,-1.1175,-1.1124,-1.0918,-1.045,-1.0501,-1.0473,-1.028,-1.0059,-0.9936,-0.9944,-0.9747,-0.9624,-0.9624,-0.9624,-0.9624,-0.9624,-0.9624,-0.9624,-0.9624,-0.9624,-0.9529,-0.9327,-0.9327,-0.9278,-0.908,-0.8531,-0.7839,-0.7199,-0.6581,-0.5948,-0.532,-0.5209,-0.5306,-0.5361,-0.5382,-0.5382,-0.5382,-0.5382,-0.5382,-0.5382,-0.5382,-0.5382,-0.5382,-0.5382,-0.5382,-0.5382,-0.5382,-0.5382,-0.5382,-0.5382,-0.5382,-0.5382,-0.5382,-0.5382,-0.5382,-0.5382,-0.5382,-0.5382,-0.5382,-0.5382,-0.5382,-0.5382,-0.5382,-0.5382,-0.5382,-0.5382,-2.5382,-2.4831,-2.3869,-2.1882,-1.9516,-1.8892,-1.8156,-1.7372,-1.7286,-1.7286,-1.7286,-1.7286,-1.7286,-1.7286,-1.7286,-1.7286,-1.7286,-1.7286,-1.7286,-1.7286,-1.7286,-1.7286,-1.7286,-1.7286,-1.7286,-1.7286,-1.7286,-1.7286,-1.7286,-1.7019,-1.64,-1.5343,-1.3667,-1.2856,-1.2759,-1.1878,-1.1345,-1.1292,-1.134,-1.1345,-1.134,-1.1292,-1.1287,-1.1268,-1.1263,-1.1119,-1.0868,-1.0906,-1.082,-1.0589,-1.0579,-1.0431,-1.0222,-1.053,-1.0416,-0.98,-1.0107,-1.0177,-0.9694,-0.962,-0.9624,-0.9624,-0.9624,-0.9624,-0.9624,-0.9624,-0.9624,-0.9624,-0.9624,-0.9327,-0.8634,-0.8531,-0.8283,-0.7686,-0.7494,-0.7036,-0.6503,-0.6292,-0.6035,-0.5285,-0.5316,-0.5373,-0.538,-0.5382,-0.5382,-0.5382,-0.5382,-0.5382,-0.5382,-0.5326,-0.5326,-0.5326,-0.5382,-0.5382,-0.5382,-0.5382,-0.5382,-0.5382,-0.5382,-0.5382,-0.5382,-0.5382,-0.5382,-0.5382,-0.5382,-0.5382,-0.5382,-0.5382,-0.5382,-0.5382,-0.5382,-0.5382,-0.5382,-0.5382,-0.5382,-2.5577,-2.5401,-2.4727,-2.3213,-2.1093,-1.9745,-1.8792,-1.8156,-1.7559,-1.7286,-1.7286,-1.7286,-1.7286,-1.7286,-1.7286,-1.7286,-1.7286,-1.7286,-1.7286,-1.7286,-1.7286,-1.7286,-1.7286,-1.7286,-1.7286,-1.7286,-1.7286,-1.7239,-1.7059,-1.6697,-1.6359,-1.6015,-1.4777,-1.3919,-1.3377,-1.2559,-1.1634,-1.0752,-1.0703,-1.056,-1.0314,-1.056,-1.0703,-1.0752,-1.0708,-1.0672,-1.0595,-1.0828,-1.0835,-1.0468,-1.0411,-1.0254,-0.9811,-0.9958,-0.9943,-0.962,-0.9826,-0.9826,-0.9624,-0.9624,-0.9624,-0.9624,-0.9624,-0.9624,-0.9624,-0.9624,-0.9624,-0.9624,-0.9624,-0.9278,-0.8531,-0.8382,-0.8081,-0.7397,-0.7252,-0.7046,-0.6341,-0.6293,-0.6086,-0.542,-0.5357,-0.5382,-0.5382,-0.5382,-0.5382,-0.5382,-0.5382,-0.5382,-0.5382,-0.51,-0.4875,-0.4875,-0.4875,-0.5044,-0.527,-0.5382,-0.5382,-0.5382,-0.5382,-0.5382,-0.5382,-0.5382,-0.5382,-0.5382,-0.5382,-0.5382,-0.5382,-0.5382,-0.5382,-0.5326,-0.5382,-0.5326,-0.4931,-0.5156,-0.5326,-2.5684,-2.5615,-2.5264,-2.3985,-2.21,-2.0617,-1.939,-1.8497,-1.774,-1.7359,-1.7286,-1.7286,-1.7286,-1.7286,-1.7286,-1.7286,-1.7286,-1.7286,-1.7286,-1.7286,-1.7286,-1.7286,-1.7286,-1.7286,-1.7286,-1.7239,-1.7246,-1.7059,-1.6784,-1.6414,-1.6272,-1.6211,-1.5356,-1.4442,-1.3559,-1.2748,-1.158,-1.0314,-1.0167,-0.9969,-0.9727,-0.9969,-1.0167,-1.0162,-1.0167,-1.0167,-1.0216,-1.0556,-1.0605,-1.0216,-1.0167,-1.0019,-0.9628,-0.9624,-0.9624,-0.9624,-0.9624,-0.9624,-0.9624,-0.9624,-0.9624,-0.9624,-0.9624,-0.9624,-0.9624,-0.9624,-0.9624,-0.9624,-0.9624,-0.9229,-0.8233,-0.8118,-0.7688,-0.6793,-0.6691,-0.6552,-0.6035,-0.6067,-0.5875,-0.5475,-0.538,-0.5382,-0.5382,-0.5382,-0.5382,-0.5382,-0.5382,-0.5326,-0.5156,-0.4761,-0.448,-0.4311,-0.4257,-0.448,-0.5044,-0.5326,-0.5382,-0.5382,-0.5382,-0.5382,-0.5382,-0.5382,-0.5214,-0.51,-0.5156,-0.4989,-0.4709,-0.4765,-0.4933,-0.4877,-0.4877,-0.4765,-0.4369,-0.4651,-0.4933,-2.5684,-2.5674,-2.5254,-2.3906,-2.1979,-2.1442,-1.9942,-1.8074,-1.7842,-1.7625,-1.733,-1.7308,-1.7293,-1.7286,-1.7286,-1.7286,-1.7286,-1.7286,-1.7286,-1.7286,-1.7286,-1.7286,-1.7286,-1.7286,-1.72,-1.7066,-1.7026,-1.6791,-1.6319,-1.6224,-1.6076,-1.5778,-1.4921,-1.3854,-1.2829,-1.1901,-1.0739,-0.9821,-0.9723,-0.9628,-0.9624,-0.9624,-0.9673,-0.9677,-0.9677,-0.9677,-0.9677,-0.9677,-0.9677,-0.9628,-0.9677,-0.9628,-0.9624,-0.9624,-0.9624,-0.9624,-0.9624,-0.9624,-0.9624,-0.9624,-0.9624,-0.9624,-0.9624,-0.9624,-0.9624,-0.9624,-0.9624,-0.9624,-0.9624,-0.9031,-0.7612,-0.7494,-0.6896,-0.5485,-0.5256,-0.5296,-0.5277,-0.5404,-0.534,-0.5359,-0.5382,-0.5382,-0.5382,-0.5382,-0.5382,-0.5382,-0.5382,-0.5214,-0.4706,-0.4536,-0.4201,-0.381,-0.3698,-0.3866,-0.4426,-0.4763,-0.5158,-0.5158,-0.4989,-0.527,-0.5382,-0.5326,-0.4989,-0.4763,-0.4594,-0.4314,-0.3867,-0.3755,-0.3811,-0.3867,-0.3924,-0.3811,-0.3699,-0.3699,-0.3979,-2.5684,-2.5616,-2.4791,-2.3885,-2.2854,-2.1391,-2.011,-1.9049,-1.8367,-1.794,-1.7629,-1.7592,-1.7476,-1.7286,-1.7286,-1.7286,-1.7286,-1.7286,-1.7286,-1.7286,-1.7286,-1.7286,-1.7286,-1.7286,-1.7192,-1.7019,-1.6979,-1.6744,-1.6218,-1.6028,-1.5879,-1.5784,-1.5445,-1.443,-1.292,-1.2339,-1.1326,-0.9821,-0.9624,-0.9624,-0.9624,-0.9624,-0.9624,-0.9624,-0.9624,-0.9624,-0.9624,-0.9624,-0.9624,-0.9624,-0.9624,-0.9624,-0.9624,-0.9624,-0.9624,-0.9624,-0.9624,-0.9624,-0.9624,-0.9624,-0.9624,-0.9624,-0.9624,-0.9624,-0.9624,-0.9624,-0.9624,-0.9624,-0.9624,-0.8916,-0.7749,-0.7352,-0.6744,-0.5422,-0.5139,-0.5154,-0.5192,-0.5294,-0.5347,-0.5373,-0.5382,-0.5382,-0.5382,-0.5382,-0.5382,-0.5382,-0.5382,-0.51,-0.4592,-0.4201,-0.3699,-0.3197,-0.303,-0.3085,-0.3253,-0.3867,-0.4204,-0.4203,-0.4203,-0.4204,-0.4316,-0.4372,-0.4147,-0.4035,-0.3923,-0.3811,-0.3419,-0.3363,-0.3307,-0.3085,-0.3139,-0.3139,-0.3085,-0.3139,-0.3475,-2.5684,-2.5586,-2.4913,-2.4039,-2.3068,-2.171,-2.0478,-1.9501,-1.8751,-1.8277,-1.8013,-1.7969,-1.7845,-1.76,-1.749,-1.7439,-1.7417,-1.7337,-1.7286,-1.7286,-1.7286,-1.7286,-1.7286,-1.7286,-1.72,-1.6979,-1.6791,-1.6508,-1.6076,-1.5879,-1.5825,-1.5778,-1.5825,-1.4956,-1.3457,-1.2877,-1.1814,-1.0355,-0.9772,-0.9624,-0.9624,-0.9624,-0.9624,-0.9624,-0.9624,-0.9624,-0.9624,-0.9624,-0.9624,-0.9624,-0.9624,-0.9624,-0.9624,-0.9624,-0.9624,-0.9624,-0.9624,-0.9624,-0.9624,-0.9624,-0.9624,-0.9624,-0.9624,-0.9624,-0.9624,-0.9624,-0.9624,-0.9624,-0.9583,-0.9007,-0.7856,-0.7443,-0.6821,-0.5461,-0.518,-0.5233,-0.5237,-0.5343,-0.5375,-0.5382,-0.5382,-0.5382,-0.5382,-0.5382,-0.5326,-0.5156,-0.51,-0.4819,-0.4035,-0.3587,-0.3085,-0.2525,-0.2412,-0.2412,-0.2524,-0.2861,-0.3533,-0.3589,-0.3643,-0.3531,-0.3475,-0.3475,-0.3419,-0.3365,-0.3253,-0.3195,-0.3139,-0.3027,-0.2859,-0.2524,-0.2524,-0.2523,-0.258,-0.2691,-0.2971,-2.5684,-2.5684,-2.5693,-2.4402,-2.2791,-2.2282,-2.1024,-1.9216,-1.889,-1.8613,-1.8328,-1.8306,-1.8269,-1.8196,-1.7925,-1.7816,-1.7728,-1.7501,-1.7362,-1.7286,-1.7286,-1.7286,-1.7286,-1.7286,-1.72,-1.6925,-1.6461,-1.613,-1.5832,-1.5825,-1.5825,-1.5825,-1.5825,-1.5255,-1.4244,-1.3173,-1.2193,-1.1077,-1.0113,-0.9624,-0.9624,-0.9624,-0.9624,-0.9624,-0.9624,-0.9624,-0.9624,-0.9624,-0.9624,-0.9624,-0.9624,-0.9624,-0.9624,-0.9624,-0.9624,-0.9624,-0.9624,-0.9624,-0.9624,-0.9624,-0.9624,-0.9624,-0.9624,-0.9624,-0.9624,-0.9624,-0.9624,-0.9624,-0.9557,-0.9067,-0.7822,-0.7521,-0.6895,-0.5506,-0.5318,-0.5363,-0.5371,-0.5377,-0.5382,-0.5382,-0.5382,-0.5382,-0.5382,-0.527,-0.51,-0.465,-0.448,-0.4147,-0.3197,-0.2918,-0.2524,-0.2076,-0.197,-0.2033,-0.1914,-0.1908,-0.2581,-0.3143,-0.3253,-0.3251,-0.3083,-0.3083,-0.2915,-0.2805,-0.2692,-0.2635,-0.2411,-0.2355,-0.2243,-0.2019,-0.2019,-0.2075,-0.2131,-0.2243,-0.2355,-2.5684,-2.5577,-2.4913,-2.4245,-2.3384,-2.2038,-2.0915,-2.0174,-1.9523,-1.8935,-1.8679,-1.8635,-1.8511,-1.8321,-1.8189,-1.8028,-1.7816,-1.7699,-1.7545,-1.7315,-1.7286,-1.7286,-1.7286,-1.7286,-1.7099,-1.673,-1.6359,-1.6076,-1.5825,-1.5825,-1.5825,-1.5825,-1.5825,-1.5255,-1.434,-1.3216,-1.2193,-1.1219,-1.0158,-0.9624,-0.9624,-0.9624,-0.9624,-0.9624,-0.9624,-0.9624,-0.9624,-0.9624,-0.9624,-0.9624,-0.9624,-0.9624,-0.9624,-0.9624,-0.9624,-0.9624,-0.9624,-0.9624,-0.9624,-0.9624,-0.9624,-0.9624,-0.9624,-0.9624,-0.9624,-0.9624,-0.9624,-0.9644,-0.9684,-0.9191,-0.7916,-0.7618,-0.7015,-0.5492,-0.5365,-0.5382,-0.5382,-0.5382,-0.5382,-0.5382,-0.5382,-0.5214,-0.4875,-0.4817,-0.4594,-0.4035,-0.3866,-0.3531,-0.2918,-0.2637,-0.2468,-0.1964,-0.1865,-0.1818,-0.1812,-0.1808,-0.2146,-0.2535,-0.264,-0.2747,-0.2634,-0.2578,-0.2412,-0.23,-0.2188,-0.2075,-0.1907,-0.1795,-0.1795,-0.1795,-0.1907,-0.1851,-0.1795,-0.1907,-0.2019,-2.5684,-2.5635,-2.4971,-2.4452,-2.3939,-2.219,-2.1234,-2.0783,-1.9776,-1.9214,-1.8994,-1.8964,-1.8862,-1.8664,-1.854,-1.8299,-1.8006,-1.7833,-1.764,-1.7323,-1.7286,-1.7286,-1.7286,-1.7286,-1.7052,-1.6636,-1.64,-1.617,-1.5825,-1.5825,-1.5825,-1.5825,-1.5825,-1.554,-1.4819,-1.3806,-1.278,-1.176,-1.0739,-1.0015,-0.9673,-0.9624,-0.9624,-0.9624,-0.9624,-0.9624,-0.9624,-0.9624,-0.9624,-0.9624,-0.9624,-0.9624,-0.9624,-0.9624,-0.9624,-0.9624,-0.9624,-0.9624,-0.9624,-0.9624,-0.9624,-0.9624,-0.9624,-0.9624,-0.9624,-0.9624,-0.9624,-0.9648,-0.9778,-0.939,-0.8302,-0.7861,-0.7185,-0.6035,-0.5603,-0.5437,-0.5382,-0.5382,-0.5382,-0.5382,-0.5382,-0.51,-0.4706,-0.448,-0.4147,-0.3531,-0.3253,-0.3027,-0.2581,-0.2356,-0.2075,-0.1909,-0.1861,-0.1812,-0.1819,-0.182,-0.1821,-0.1925,-0.1971,-0.2078,-0.2075,-0.2075,-0.1963,-0.2019,-0.1963,-0.1963,-0.1795,-0.1795,-0.1795,-0.1795,-0.1795,-0.1795,-0.1795,-0.1795,-0.1907,-2.5684,-2.5684,-2.5684,-2.5118,-2.4196,-2.3035,-2.2038,-2.0979,-1.9931,-1.942,-1.9302,-1.9228,-1.9235,-1.9177,-1.8869,-1.8555,-1.8284,-1.7947,-1.764,-1.7359,-1.7286,-1.7286,-1.7286,-1.7286,-1.7052,-1.6683,-1.6588,-1.6298,-1.5825,-1.5825,-1.5825,-1.5825,-1.5825,-1.5825,-1.5445,-1.4771,-1.3661,-1.2533,-1.1609,-1.0592,-0.9673,-0.9624,-0.9624,-0.9624,-0.9624,-0.9624,-0.9624,-0.9624,-0.9624,-0.9624,-0.9624,-0.9624,-0.9624,-0.9624,-0.9624,-0.9624,-0.9624,-0.9624,-0.9624,-0.9624,-0.9624,-0.9624,-0.9624,-0.9624,-0.9624,-0.9624,-0.9644,-0.9677,-0.9823,-0.963,-0.8856,-0.8374,-0.7641,-0.6745,-0.5882,-0.5437,-0.5382,-0.5382,-0.5382,-0.5382,-0.5382,-0.51,-0.4424,-0.4313,-0.3699,-0.2973,-0.2637,-0.2412,-0.2132,-0.1963,-0.1851,-0.1799,-0.1805,-0.1816,-0.1825,-0.1825,-0.1826,-0.1821,-0.1809,-0.1798,-0.1795,-0.1795,-0.1795,-0.1795,-0.1795,-0.1795,-0.1795,-0.1795,-0.1795,-0.1795,-0.1795,-0.1795,-0.1795,-0.1795,-0.1795,-2.5684,-2.5684,-2.5684,-2.5528,-2.5118,-2.4156,-2.3035,-2.1988,-2.0936,-1.9983,-1.9428,-1.9272,-1.9272,-1.9235,-1.8928,-1.8613,-1.8291,-1.7962,-1.764,-1.7323,-1.7286,-1.7286,-1.7286,-1.7286,-1.7052,-1.6683,-1.6588,-1.6353,-1.5825,-1.5825,-1.5825,-1.5825,-1.5825,-1.5825,-1.5635,-1.4819,-1.3757,-1.2732,-1.1755,-1.0739,-0.9821,-0.9624,-0.9624,-0.9624,-0.9624,-0.9624,-0.9624,-0.9624,-0.9624,-0.9624,-0.9624,-0.9624,-0.9624,-0.9624,-0.9624,-0.9624,-0.9624,-0.9624,-0.9624,-0.9624,-0.9624,-0.9624,-0.9624,-0.9624,-0.9624,-0.9624,-0.9689,-0.9803,-0.9981,-0.9839,-0.9211,-0.893,-0.8268,-0.6924,-0.5938,-0.5382,-0.5382,-0.5382,-0.5382,-0.5382,-0.5044,-0.4538,-0.3979,-0.3475,-0.2971,-0.2299,-0.2075,-0.2075,-0.1851,-0.1795,-0.1795,-0.1804,-0.1812,-0.1823,-0.1774,-0.1774,-0.1774,-0.1829,-0.1816,-0.1796,-0.1795,-0.1795,-0.1795,-0.1795,-0.1795,-0.1795,-0.1795,-0.1795,-0.1795,-0.1795,-0.1795,-0.1795,-0.1795,-0.1795,-0.1795,-2.5684,-2.5684,-2.5684,-2.5684,-2.5586,-2.455,-2.3484,-2.2433,-2.1379,-2.0285,-1.948,-1.9272,-1.9272,-1.9242,-1.8935,-1.8613,-1.8291,-1.7962,-1.764,-1.733,-1.7286,-1.7286,-1.7286,-1.7286,-1.7099,-1.6777,-1.6629,-1.6353,-1.6021,-1.5879,-1.5825,-1.5825,-1.5825,-1.5825,-1.5784,-1.5255,-1.443,-1.3409,-1.2339,-1.1321,-1.035,-0.9821,-0.9624,-0.9624,-0.9624,-0.9624,-0.9624,-0.9624,-0.9624,-0.9624,-0.9624,-0.9624,-0.9624,-0.9624,-0.9624,-0.9624,-0.9624,-0.9624,-0.9624,-0.9624,-0.9624,-0.9624,-0.9624,-0.9624,-0.9624,-0.9628,-0.9701,-0.9864,-1.0106,-0.997,-0.9663,-0.9217,-0.8189,-0.6879,-0.5935,-0.5437,-0.5384,-0.5382,-0.527,-0.5044,-0.4706,-0.4145,-0.3365,-0.2918,-0.2412,-0.2019,-0.1851,-0.1851,-0.1795,-0.1795,-0.1795,-0.1802,-0.1806,-0.1812,-0.1816,-0.1816,-0.1817,-0.1817,-0.1815,-0.1796,-0.1795,-0.1795,-0.1795,-0.1795,-0.1795,-0.1795,-0.1795,-0.1795,-0.1795,-0.1795,-0.1795,-0.1795,-0.1795,-0.1795,-0.1795,-2.5684,-2.5684,-2.5684,-2.5684,-2.5528,-2.4658,-2.38,-2.2634,-2.1633,-2.0585,-1.968,-1.9383,-1.9272,-1.9302,-1.8935,-1.8628,-1.835,-1.7991,-1.7592,-1.7366,-1.7286,-1.7286,-1.7286,-1.7286,-1.7192,-1.6972,-1.673,-1.6454,-1.617,-1.5927,-1.5825,-1.5825,-1.5825,-1.5825,-1.5778,-1.5737,-1.5261,-1.4238,-1.3318,-1.2198,-1.1126,-1.0306,-0.992,-0.9624,-0.9624,-0.9624,-0.9624,-0.9624,-0.9624,-0.9624,-0.9624,-0.9624,-0.9624,-0.9624,-0.9624,-0.9624,-0.9624,-0.9624,-0.9624,-0.9624,-0.9624,-0.9624,-0.9624,-0.9624,-0.9632,-0.9611,-0.9758,-0.9933,-1.0135,-1.0237,-1.0192,-0.9071,-0.802,-0.7099,-0.6158,-0.5605,-0.5439,-0.5382,-0.5212,-0.465,-0.4592,-0.3811,-0.3197,-0.2637,-0.2356,-0.1907,-0.1795,-0.1795,-0.1795,-0.1795,-0.1795,-0.1796,-0.1797,-0.1796,-0.1797,-0.1797,-0.1799,-0.18,-0.1802,-0.1795,-0.1795,-0.1795,-0.1795,-0.1795,-0.1795,-0.1795,-0.1795,-0.1795,-0.1795,-0.1795,-0.1795,-0.1795,-0.1795,-0.1795,-0.1795,-2.5684,-2.5684,-2.5684,-2.5684,-2.5684,-2.5421,-2.4716,-2.3642,-2.2584,-2.1489,-2.0534,-1.9672,-1.9324,-1.9309,-1.895,-1.8738,-1.8577,-1.8094,-1.7592,-1.7315,-1.7286,-1.7286,-1.7286,-1.7286,-1.7192,-1.6972,-1.673,-1.6447,-1.6218,-1.5974,-1.5825,-1.5825,-1.5825,-1.5825,-1.5825,-1.5778,-1.5309,-1.4442,-1.4004,-1.3022,-1.1658,-1.0979,-1.0355,-0.9723,-0.9624,-0.9624,-0.9624,-0.9624,-0.9624,-0.9624,-0.9624,-0.9624,-0.9624,-0.9624,-0.9624,-0.9624,-0.9624,-0.9624,-0.9624,-0.9624,-0.9624,-0.9624,-0.9624,-0.9628,-0.9591,-0.9754,-0.99,-1.0087,-1.027,-1.0432,-1.0482,-0.9717,-0.8637,-0.7703,-0.6877,-0.6049,-0.5549,-0.5382,-0.527,-0.5044,-0.437,-0.3699,-0.3365,-0.2412,-0.2076,-0.1851,-0.1795,-0.1795,-0.1795,-0.1795,-0.1795,-0.1795,-0.1795,-0.1795,-0.1795,-0.1795,-0.1795,-0.1795,-0.1795,-0.1795,-0.1795,-0.1795,-0.1795,-0.1795,-0.1795,-0.1795,-0.1795,-0.1795,-0.1795,-0.1795,-0.1795,-0.1795,-0.1795,-0.1795,-0.1795,-2.5684,-2.5684,-2.5684,-2.5684,-2.5684,-2.5684,-2.5069,-2.4048,-2.2944,-2.1887,-2.0834,-1.9783,-1.9324,-1.9242,-1.895,-1.8789,-1.8635,-1.8123,-1.764,-1.7344,-1.7286,-1.7286,-1.7286,-1.7192,-1.7106,-1.6932,-1.673,-1.6447,-1.6218,-1.5981,-1.5825,-1.5825,-1.5825,-1.5825,-1.5825,-1.5825,-1.554,-1.501,-1.449,-1.3709,-1.278,-1.1609,-1.069,-0.9821,-0.9624,-0.9624,-0.9624,-0.9624,-0.9624,-0.9624,-0.9624,-0.9624,-0.9624,-0.9624,-0.9624,-0.9624,-0.9624,-0.9624,-0.9624,-0.9624,-0.9624,-0.9624,-0.9624,-0.9681,-0.973,-0.9839,-1.0014,-1.0225,-1.0383,-1.0447,-1.0609,-0.9915,-0.9027,-0.8088,-0.7263,-0.6381,-0.5661,-0.5382,-0.527,-0.4933,-0.4147,-0.3587,-0.2971,-0.23,-0.1963,-0.1795,-0.1795,-0.1795,-0.1795,-0.1795,-0.1795,-0.1795,-0.1795,-0.1795,-0.1795,-0.1795,-0.1795,-0.1795,-0.1795,-0.1795,-0.1795,-0.1795,-0.1795,-0.1795,-0.1795,-0.1795,-0.1795,-0.1795,-0.1795,-0.1795,-0.1795,-0.1795,-0.1795,-0.1795,-0.1795,-2.5684,-2.5684,-2.5684,-2.5684,-2.5684,-2.5684,-2.5226,-2.4295,-2.3194,-2.2291,-2.1081,-2.0027,-1.9576,-1.9265,-1.9016,-1.8862,-1.8635,-1.8225,-1.7772,-1.7439,-1.7465,-1.7359,-1.7323,-1.7218,-1.7084,-1.6939,-1.6643,-1.6407,-1.6177,-1.5927,-1.5825,-1.5825,-1.5825,-1.5825,-1.5825,-1.5825,-1.573,-1.554,-1.501,-1.4442,-1.3854,-1.2387,-1.0984,-0.9821,-0.9624,-0.9624,-0.9624,-0.9624,-0.9624,-0.9624,-0.9624,-0.9624,-0.9624,-0.9624,-0.9624,-0.9624,-0.9624,-0.9624,-0.9624,-0.9624,-0.9624,-0.9624,-0.9624,-0.9713,-0.9831,-0.9933,-1.0107,-1.0306,-1.0423,-1.055,-1.0617,-1.0194,-0.9306,-0.8364,-0.7485,-0.6546,-0.5826,-0.5493,-0.5156,-0.4594,-0.4035,-0.3475,-0.2859,-0.2244,-0.1963,-0.1795,-0.1795,-0.1795,-0.1795,-0.1795,-0.1795,-0.1795,-0.1795,-0.1795,-0.1795,-0.1795,-0.1795,-0.1795,-0.1795,-0.1795,-0.1795,-0.1795,-0.1795,-0.1795,-0.1795,-0.1795,-0.1795,-0.1795,-0.1795,-0.1795,-0.1795,-0.1795,-0.1795,-0.1795,-0.1795,-2.5684,-2.5684,-2.5684,-2.5684,-2.5684,-2.5684,-2.5577,-2.5274,-2.4196,-2.3235,-2.2181,-2.1089,-2.0078,-1.9502,-1.9235,-1.9045,-1.8738,-1.8335,-1.8021,-1.7765,-1.7706,-1.7604,-1.7447,-1.7497,-1.727,-1.6739,-1.6427,-1.6313,-1.613,-1.5927,-1.5825,-1.5825,-1.5825,-1.5825,-1.5825,-1.5825,-1.5825,-1.5825,-1.5493,-1.5112,-1.4286,-1.3022,-1.1468,-0.9965,-0.9673,-0.9624,-0.9624,-0.9624,-0.9624,-0.9624,-0.9624,-0.9624,-0.9624,-0.9624,-0.9624,-0.9624,-0.9624,-0.9624,-0.9624,-0.9624,-0.9624,-0.9624,-0.9624,-0.9717,-0.9876,-1.0026,-1.0201,-1.0396,-1.0566,-1.0655,-1.0684,-1.0468,-1.0025,-0.9192,-0.8364,-0.7426,-0.6546,-0.5882,-0.5212,-0.4592,-0.3977,-0.3419,-0.2915,-0.2412,-0.2075,-0.1851,-0.1795,-0.1795,-0.1795,-0.1795,-0.1795,-0.1795,-0.1795,-0.1795,-0.1795,-0.1795,-0.1795,-0.1795,-0.1795,-0.1795,-0.1795,-0.1795,-0.1795,-0.1795,-0.1795,-0.1795,-0.1795,-0.1795,-0.1795,-0.1795,-0.1795,-0.1795,-0.1795,-0.1795,-0.1795,-2.5684,-2.5684,-2.5684,-2.5684,-2.5684,-2.5684,-2.5684,-2.5528,-2.455,-2.3831,-2.2935,-2.1684,-2.0629,-2.0078,-1.948,-1.9148,-1.8782,-1.8445,-1.8218,-1.8057,-1.7896,-1.7867,-1.7753,-1.786,-1.7473,-1.6966,-1.6601,-1.6259,-1.5994,-1.5879,-1.5825,-1.5825,-1.5825,-1.5825,-1.5825,-1.5825,-1.5825,-1.5825,-1.5778,-1.5588,-1.4914,-1.3601,-1.1858,-1.0792,-0.9871,-0.9624,-0.9624,-0.9624,-0.9624,-0.9624,-0.9624,-0.9624,-0.9624,-0.9624,-0.9624,-0.9624,-0.9624,-0.9624,-0.9624,-0.9624,-0.9624,-0.9624,-0.9624,-0.9766,-0.9957,-1.0128,-1.0294,-1.0505,-1.0611,-1.0692,-1.0692,-1.0692,-1.0249,-0.9581,-0.8916,-0.8091,-0.7046,-0.6381,-0.5543,-0.4758,-0.4313,-0.381,-0.3307,-0.2747,-0.2187,-0.1963,-0.1851,-0.1795,-0.1795,-0.1795,-0.1795,-0.1795,-0.1795,-0.1795,-0.1795,-0.1795,-0.1795,-0.1795,-0.1795,-0.1795,-0.1795,-0.1795,-0.1795,-0.1795,-0.1795,-0.1795,-0.1795,-0.1795,-0.1795,-0.1795,-0.1795,-0.1795,-0.1795,-0.1795,-0.1795,-2.5684,-2.5684,-2.5684,-2.5684,-2.5684,-2.5684,-2.5684,-2.5528,-2.4815,-2.4295,-2.389,-2.2391,-2.1387,-2.068,-1.9857,-1.9133,-1.8855,-1.8562,-1.8423,-1.8364,-1.8189,-1.8167,-1.8149,-1.8095,-1.7711,-1.7078,-1.678,-1.6367,-1.5926,-1.5825,-1.5825,-1.5825,-1.5825,-1.5825,-1.5825,-1.5825,-1.5825,-1.5825,-1.5825,-1.5778,-1.5057,-1.3698,-1.2193,-1.1224,-1.0162,-0.9624,-0.9624,-0.9624,-0.9624,-0.9624,-0.9624,-0.9624,-0.9624,-0.9624,-0.9624,-0.9624,-0.9624,-0.9624,-0.9624,-0.9624,-0.9624,-0.9624,-0.9624,-0.9819,-1.0087,-1.0253,-1.0461,-1.0627,-1.0692,-1.0692,-1.0692,-1.0692,-1.0359,-0.9919,-0.9471,-0.8809,-0.7543,-0.6657,-0.5933,-0.5262,-0.476,-0.4089,-0.3363,-0.2917,-0.2356,-0.1963,-0.1795,-0.1795,-0.1795,-0.1795,-0.1795,-0.1795,-0.1795,-0.1795,-0.1795,-0.1795,-0.1795,-0.1795,-0.1795,-0.1795,-0.1795,-0.1795,-0.1795,-0.1795,-0.1795,-0.1795,-0.1795,-0.1795,-0.1795,-0.1795,-0.1795,-0.1795,-0.1795,-0.1795,-0.1795,-2.5684,-2.5684,-2.5684,-2.5684,-2.5684,-2.5684,-2.5684,-2.5684,-2.5528,-2.4962,-2.4245,-2.3732,-2.2534,-2.103,-1.9887,-1.9346,-1.9111,-1.8855,-1.8701,-1.8701,-1.8621,-1.8489,-1.8366,-1.8333,-1.791,-1.7344,-1.6933,-1.6347,-1.5973,-1.5858,-1.5825,-1.5825,-1.5825,-1.5825,-1.5825,-1.5825,-1.5825,-1.5825,-1.5825,-1.5445,-1.458,-1.3409,-1.2242,-1.1272,-1.0252,-0.9624,-0.9624,-0.9624,-0.9624,-0.9624,-0.9624,-0.9624,-0.9624,-0.9624,-0.9624,-0.9624,-0.9624,-0.9624,-0.9624,-0.9624,-0.9624,-0.9624,-0.9624,-0.9823,-1.0103,-1.0428,-1.0603,-1.066,-1.0692,-1.0692,-1.0692,-1.0692,-1.0582,-1.0304,-0.986,-0.914,-0.8036,-0.7207,-0.6485,-0.5654,-0.5096,-0.4091,-0.3251,-0.2861,-0.2524,-0.2132,-0.1795,-0.1795,-0.1851,-0.1851,-0.1795,-0.1795,-0.1795,-0.1795,-0.1795,-0.1795,-0.1795,-0.1795,-0.1795,-0.1795,-0.1795,-0.1795,-0.1795,-0.1795,-0.1795,-0.1795,-0.1795,-0.1795,-0.1795,-0.1795,-0.1795,-0.1795,-0.1795,-0.1795,-0.1795,-2.5684,-2.5684,-2.5684,-2.5684,-2.5684,-2.5684,-2.5684,-2.5684,-2.5684,-2.544,-2.4913,-2.4295,-2.2935,-2.1132,-2.0328,-1.9879,-1.9354,-1.895,-1.8906,-1.8964,-1.8899,-1.8811,-1.8899,-1.8869,-1.8477,-1.7853,-1.7386,-1.6932,-1.6422,-1.5946,-1.5825,-1.5825,-1.5825,-1.5825,-1.5825,-1.5825,-1.5825,-1.5825,-1.5778,-1.5588,-1.4867,-1.365,-1.2484,-1.2004,-1.0498,-0.9821,-0.9673,-0.9624,-0.9624,-0.9624,-0.9624,-0.9624,-0.9624,-0.9624,-0.9624,-0.9624,-0.9624,-0.9624,-0.9624,-0.9624,-0.9624,-0.9628,-0.9652,-0.9791,-1.0132,-1.0465,-1.0684,-1.0692,-1.0692,-1.0692,-1.0692,-1.0692,-1.0692,-1.0523,-1.0245,-0.9636,-0.8806,-0.7977,-0.7149,-0.632,-0.5433,-0.4538,-0.3643,-0.3085,-0.2917,-0.2803,-0.2299,-0.1963,-0.1963,-0.2019,-0.1907,-0.1795,-0.1795,-0.1795,-0.1795,-0.1795,-0.1795,-0.1795,-0.1795,-0.1795,-0.1795,-0.1795,-0.1795,-0.1795,-0.1795,-0.1795,-0.1795,-0.1795,-0.1795,-0.1795,-0.1795,-0.1795,-0.1795,-0.1795,-0.1795,-2.5684,-2.5684,-2.5684,-2.5684,-2.5684,-2.5684,-2.5684,-2.5684,-2.5684,-2.5684,-2.543,-2.4559,-2.3044,-2.154,-2.0936,-2.0233,-1.9309,-1.9016,-1.9074,-1.9118,-1.9081,-1.9067,-1.914,-1.9176,-1.8832,-1.8282,-1.7668,-1.7106,-1.6546,-1.6157,-1.5879,-1.5825,-1.5825,-1.5825,-1.5825,-1.5825,-1.5825,-1.5825,-1.5825,-1.5778,-1.5439,-1.404,-1.3366,-1.2495,-1.1277,-1.0015,-0.9965,-0.9677,-0.9624,-0.9624,-0.9624,-0.9624,-0.9624,-0.9624,-0.9624,-0.9624,-0.9624,-0.9624,-0.9624,-0.9624,-0.9624,-0.964,-0.9705,-0.9847,-1.0128,-1.0456,-1.0668,-1.0684,-1.0692,-1.0692,-1.0692,-1.0692,-1.0692,-1.0692,-1.0637,-1.008,-0.9526,-0.8696,-0.7703,-0.6596,-0.5822,-0.532,-0.4424,-0.3531,-0.3251,-0.3363,-0.2915,-0.2243,-0.2131,-0.2131,-0.2019,-0.1907,-0.1851,-0.1851,-0.1851,-0.1851,-0.1795,-0.1851,-0.1851,-0.1851,-0.1907,-0.1851,-0.1795,-0.1795,-0.1851,-0.1795,-0.1795,-0.1795,-0.1795,-0.1795,-0.1795,-0.1795,-0.1795,-0.1795,-0.1795,-2.5684,-2.5684,-2.5684,-2.5684,-2.5684,-2.5684,-2.5684,-2.5684,-2.5684,-2.5684,-2.5577,-2.4559,-2.3443,-2.2291,-2.1234,-2.0336,-1.9331,-1.9257,-1.925,-1.9257,-1.9257,-1.9228,-1.9212,-1.9021,-1.8657,-1.8103,-1.7683,-1.7044,-1.645,-1.6259,-1.6035,-1.5832,-1.5825,-1.5825,-1.5825,-1.5825,-1.5825,-1.5825,-1.5825,-1.5825,-1.554,-1.4723,-1.41,-1.3613,-1.2247,-1.1077,-1.1028,-1.0158,-0.9624,-0.9624,-0.9624,-0.9624,-0.9624,-0.9624,-0.9624,-0.9624,-0.9624,-0.9624,-0.9624,-0.9624,-0.9624,-0.9673,-0.9786,-0.9945,-1.0152,-1.0343,-1.0521,-1.0672,-1.0688,-1.0692,-1.0692,-1.0692,-1.0692,-1.0692,-1.0637,-1.0359,-0.986,-0.9416,-0.8367,-0.7041,-0.6265,-0.5764,-0.515,-0.4257,-0.3924,-0.3979,-0.3194,-0.2467,-0.2299,-0.2243,-0.2131,-0.2019,-0.2019,-0.1963,-0.1907,-0.1963,-0.2243,-0.2187,-0.2075,-0.2075,-0.2075,-0.1963,-0.2019,-0.1963,-0.2019,-0.1907,-0.1795,-0.1795,-0.1795,-0.1795,-0.1795,-0.1795,-0.1795,-0.1795,-0.1795,-2.5684,-2.5684,-2.5684,-2.5684,-2.5684,-2.5684,-2.5684,-2.5684,-2.5684,-2.5684,-2.5635,-2.4609,-2.3534,-2.2433,-2.1387,-2.0336,-1.9428,-1.9272,-1.9272,-1.9272,-1.9272,-1.9272,-1.9176,-1.9015,-1.8673,-1.8282,-1.7796,-1.7372,-1.7028,-1.6456,-1.6191,-1.6028,-1.5879,-1.5825,-1.5825,-1.5825,-1.5825,-1.5825,-1.5825,-1.5825,-1.5588,-1.4873,-1.4298,-1.4154,-1.229,-1.1317,-1.1028,-1.0162,-0.9772,-0.9624,-0.9673,-0.9673,-0.9624,-0.9624,-0.9624,-0.9632,-0.9632,-0.9636,-0.9624,-0.9624,-0.9624,-0.9689,-0.9872,-1.0131,-1.0224,-1.0412,-1.0578,-1.0676,-1.0692,-1.0692,-1.0692,-1.0692,-1.0692,-1.0692,-1.0637,-1.0414,-1.0194,-0.9805,-0.9085,-0.7759,-0.6985,-0.6376,-0.5708,-0.4983,-0.4761,-0.4596,-0.3643,-0.2858,-0.269,-0.2579,-0.2523,-0.2523,-0.2579,-0.2468,-0.2412,-0.2523,-0.2691,-0.2523,-0.2356,-0.2467,-0.2523,-0.2412,-0.2412,-0.2356,-0.23,-0.2244,-0.2076,-0.1907,-0.1795,-0.1795,-0.1795,-0.1795,-0.1795,-0.1795,-0.1795,-2.5684,-2.5684,-2.5684,-2.5684,-2.5684,-2.5684,-2.5684,-2.5684,-2.5684,-2.5684,-2.5586,-2.4559,-2.3493,-2.2442,-2.1387,-2.0328,-1.9524,-1.9272,-1.9272,-1.9272,-1.9272,-1.9272,-1.9162,-1.8979,-1.8687,-1.8497,-1.7956,-1.745,-1.6984,-1.6544,-1.6238,-1.6021,-1.5927,-1.5825,-1.5825,-1.5832,-1.5832,-1.5825,-1.5825,-1.5825,-1.5689,-1.5207,-1.4825,-1.4634,-1.3167,-1.2441,-1.2101,-1.1424,-1.0596,-1.0355,-1.0158,-0.9916,-0.9772,-0.9624,-0.9624,-0.964,-0.9669,-0.9681,-0.964,-0.9624,-0.9624,-0.9665,-0.9872,-1.005,-1.0273,-1.0444,-1.0574,-1.0684,-1.0692,-1.0692,-1.0692,-1.0692,-1.0692,-1.0692,-1.0692,-1.0578,-1.0468,-1.019,-0.9471,-0.853,-0.798,-0.7485,-0.6707,-0.5982,-0.5041,-0.4819,-0.4201,-0.3474,-0.3251,-0.3139,-0.3141,-0.3195,-0.3307,-0.3197,-0.3086,-0.3141,-0.3195,-0.3083,-0.2971,-0.3139,-0.3139,-0.3029,-0.2973,-0.2971,-0.2859,-0.2636,-0.2412,-0.2244,-0.2019,-0.1851,-0.1795,-0.1795,-0.1795,-0.1795,-0.1795,-2.5684,-2.5684,-2.5674,-2.5664,-2.5684,-2.5684,-2.5684,-2.5684,-2.5684,-2.5684,-2.5528,-2.4501,-2.3434,-2.2383,-2.1234,-2.013,-1.9472,-1.9272,-1.9272,-1.9272,-1.9272,-1.9272,-1.914,-1.8928,-1.8584,-1.8291,-1.7836,-1.7311,-1.6732,-1.6609,-1.6298,-1.5967,-1.5879,-1.5852,-1.5832,-1.5791,-1.5791,-1.5838,-1.5858,-1.5865,-1.5778,-1.5635,-1.554,-1.5207,-1.4334,-1.3613,-1.3372,-1.2587,-1.1663,-1.0979,-1.0881,-1.0449,-0.9723,-0.9624,-0.9624,-0.9628,-0.9778,-0.9778,-0.9661,-0.964,-0.9636,-0.9685,-0.9908,-1.0046,-1.018,-1.0363,-1.055,-1.068,-1.0692,-1.0692,-1.0692,-1.0692,-1.0692,-1.0692,-1.0692,-1.0692,-1.0578,-1.0523,-0.9801,-0.9137,-0.914,-0.892,-0.8036,-0.7038,-0.565,-0.4927,-0.4536,-0.4145,-0.3867,-0.3755,-0.3699,-0.398,-0.4148,-0.3867,-0.3757,-0.3701,-0.3701,-0.3587,-0.3643,-0.3755,-0.3755,-0.3699,-0.3643,-0.3587,-0.3475,-0.3307,-0.2973,-0.2693,-0.2412,-0.2132,-0.1851,-0.1795,-0.1795,-0.1795,-0.1795,-2.5684,-2.5664,-2.542,-2.5459,-2.5664,-2.5684,-2.5684,-2.5684,-2.5684,-2.5684,-2.5274,-2.3899,-2.2935,-2.208,-2.0783,-1.9732,-1.9376,-1.9272,-1.9272,-1.9272,-1.9257,-1.9272,-1.9118,-1.8745,-1.8416,-1.8182,-1.7775,-1.7305,-1.6892,-1.6683,-1.64,-1.6123,-1.5966,-1.5952,-1.6072,-1.6119,-1.6126,-1.6126,-1.6112,-1.6046,-1.5865,-1.5852,-1.5811,-1.577,-1.4904,-1.4466,-1.4418,-1.3437,-1.2484,-1.1512,-1.1317,-1.0739,-0.9867,-0.9624,-0.9632,-0.9665,-0.9791,-0.986,-0.977,-0.9726,-0.9689,-0.9803,-0.9953,-1.0132,-1.0327,-1.0505,-1.0623,-1.0672,-1.0688,-1.0692,-1.0692,-1.0692,-1.0692,-1.0692,-1.0692,-1.0692,-1.0637,-1.0633,-1.0245,-0.9581,-0.9361,-0.8975,-0.8254,-0.77,-0.6538,-0.5485,-0.5039,-0.4929,-0.4707,-0.4426,-0.437,-0.4765,-0.4933,-0.4596,-0.4428,-0.4372,-0.426,-0.4203,-0.4314,-0.4426,-0.4426,-0.4316,-0.4258,-0.4203,-0.4145,-0.4033,-0.3587,-0.3141,-0.2748,-0.2412,-0.2243,-0.1963,-0.1795,-0.1795,-0.1795,-2.5684,-2.5645,-2.542,-2.5459,-2.5684,-2.5528,-2.5586,-2.5654,-2.5684,-2.5684,-2.5323,-2.3859,-2.2835,-2.208,-2.0783,-1.948,-1.9376,-1.9272,-1.9272,-1.9257,-1.9184,-1.9096,-1.8884,-1.8496,-1.8174,-1.7928,-1.7533,-1.7066,-1.6784,-1.6548,-1.6381,-1.6197,-1.6189,-1.6402,-1.6502,-1.6489,-1.6313,-1.6359,-1.6406,-1.6359,-1.6226,-1.6172,-1.6117,-1.5939,-1.5493,-1.5078,-1.4793,-1.4105,-1.3119,-1.215,-1.1521,-1.0984,-1.0113,-0.9628,-0.9661,-0.9738,-0.9803,-0.988,-0.9839,-0.9713,-0.9746,-1.002,-1.0155,-1.0245,-1.0416,-1.0574,-1.0647,-1.0688,-1.0692,-1.0692,-1.0692,-1.0692,-1.0692,-1.0692,-1.0692,-1.0692,-1.0692,-1.0692,-1.0633,-0.997,-0.9695,-0.9196,-0.864,-0.8029,-0.7368,-0.6485,-0.5654,-0.5491,-0.5326,-0.5044,-0.4819,-0.51,-0.5382,-0.5044,-0.4933,-0.5044,-0.4933,-0.4819,-0.4875,-0.4931,-0.4989,-0.4877,-0.4875,-0.4819,-0.4763,-0.454,-0.4035,-0.3587,-0.3195,-0.2973,-0.2859,-0.2467,-0.1907,-0.1909,-0.1967,-2.5684,-2.5684,-2.5723,-2.5635,-2.5625,-2.5273,-2.5342,-2.5674,-2.5684,-2.5684,-2.5577,-2.4501,-2.3534,-2.2534,-2.1387,-2.0297,-1.9509,-1.9361,-1.9162,-1.9089,-1.8869,-1.8811,-1.8584,-1.8182,-1.7969,-1.7669,-1.7341,-1.7019,-1.6643,-1.6395,-1.6293,-1.641,-1.6543,-1.6754,-1.6878,-1.6777,-1.6636,-1.6723,-1.6714,-1.6653,-1.654,-1.658,-1.6547,-1.6388,-1.6196,-1.6055,-1.583,-1.5422,-1.4256,-1.3277,-1.2478,-1.1292,-1.031,-0.9624,-0.9734,-0.9827,-0.9876,-0.9888,-0.9908,-0.9782,-0.9888,-1.0119,-1.0233,-1.029,-1.0436,-1.0611,-1.0668,-1.0692,-1.0692,-1.0692,-1.0692,-1.0692,-1.0692,-1.0692,-1.0692,-1.0692,-1.0692,-1.0692,-1.0692,-1.0523,-1.0523,-1.008,-0.9471,-0.8861,-0.8033,-0.7149,-0.6265,-0.5656,-0.5493,-0.5382,-0.5212,-0.5214,-0.5382,-0.5382,-0.5382,-0.5326,-0.527,-0.51,-0.5156,-0.527,-0.5326,-0.5326,-0.5212,-0.5156,-0.5326,-0.51,-0.4596,-0.4147,-0.3698,-0.3531,-0.3371,-0.3033,-0.2529,-0.2312,-0.2315,-2.5684,-2.5654,-2.54,-2.5273,-2.5244,-2.5117,-2.5322,-2.5654,-2.5684,-2.5684,-2.5635,-2.455,-2.3835,-2.3493,-2.1735,-2.071,-1.9941,-1.9342,-1.8839,-1.8628,-1.8525,-1.8467,-1.8284,-1.8013,-1.7845,-1.7651,-1.7381,-1.6986,-1.6665,-1.6389,-1.6749,-1.7157,-1.6908,-1.7105,-1.7206,-1.7132,-1.7065,-1.7038,-1.7065,-1.6927,-1.6814,-1.6787,-1.678,-1.6727,-1.6667,-1.6587,-1.6477,-1.5711,-1.4479,-1.3353,-1.2247,-1.1015,-0.9871,-0.9632,-0.9701,-0.9855,-0.99,-0.9984,-1.0094,-1.0034,-1.0095,-1.027,-1.0339,-1.0452,-1.0578,-1.0651,-1.0692,-1.0692,-1.0692,-1.0692,-1.0692,-1.0692,-1.0692,-1.0692,-1.0692,-1.0692,-1.0692,-1.0692,-1.0692,-1.0692,-1.0692,-1.0582,-1.0025,-0.9416,-0.8585,-0.7703,-0.6877,-0.6158,-0.5603,-0.5437,-0.5382,-0.5382,-0.5382,-0.5382,-0.5382,-0.5382,-0.5382,-0.5382,-0.5382,-0.5382,-0.5382,-0.5382,-0.5382,-0.5382,-0.5382,-0.5382,-0.5214,-0.4707,-0.4258,-0.4055,-0.3951,-0.3553,-0.3215,-0.3005,-0.2781,-2.5635,-2.5449,-2.5185,-2.5059,-2.5077,-2.4893,-2.5146,-2.5606,-2.5684,-2.5615,-2.5382,-2.4793,-2.3971,-2.2806,-2.1601,-2.0528,-1.9441,-1.8885,-1.8503,-1.8401,-1.816,-1.8123,-1.7999,-1.7808,-1.7633,-1.749,-1.7359,-1.7098,-1.6922,-1.7023,-1.7321,-1.7636,-1.732,-1.7475,-1.7571,-1.7492,-1.7328,-1.7367,-1.7347,-1.7201,-1.7101,-1.7027,-1.7054,-1.7007,-1.6954,-1.6887,-1.6709,-1.5688,-1.4432,-1.3299,-1.2172,-1.0964,-0.9967,-0.9738,-0.975,-0.9896,-0.9981,-1.0094,-1.0175,-1.0196,-1.0257,-1.0379,-1.0444,-1.0526,-1.0611,-1.0684,-1.0692,-1.0692,-1.0692,-1.0692,-1.0692,-1.0692,-1.0692,-1.0692,-1.0692,-1.0692,-1.0692,-1.0692,-1.0692,-1.0692,-1.0692,-1.0692,-1.0359,-0.9805,-0.903,-0.8036,-0.7096,-0.627,-0.5714,-0.5437,-0.5382,-0.5382,-0.5382,-0.5382,-0.5382,-0.5382,-0.5382,-0.5382,-0.5382,-0.5382,-0.5384,-0.5386,-0.539,-0.5388,-0.5382,-0.539,-0.5348,-0.5162,-0.4823,-0.4685,-0.4593,-0.4467,-0.4144,-0.3786,-0.3495,-2.5391,-2.501,-2.5028,-2.4979,-2.4941,-2.456,-2.4787,-2.5538,-2.5499,-2.542,-2.5117,-2.5029,-2.3757,-2.2345,-2.1485,-2.0257,-1.9244,-1.8493,-1.8189,-1.8211,-1.7896,-1.7779,-1.7691,-1.7501,-1.745,-1.7276,-1.7203,-1.7286,-1.7566,-1.7647,-1.7754,-1.8016,-1.7922,-1.7871,-1.7759,-1.7654,-1.7502,-1.7495,-1.7561,-1.7475,-1.7508,-1.7542,-1.7582,-1.7495,-1.7387,-1.7174,-1.6858,-1.5831,-1.4458,-1.3429,-1.2164,-1.0956,-1.0281,-0.9815,-0.9835,-0.9933,-1.0086,-1.0148,-1.0225,-1.027,-1.0347,-1.0424,-1.0461,-1.0554,-1.0647,-1.0692,-1.0692,-1.0692,-1.0692,-1.0692,-1.0692,-1.0692,-1.0692,-1.0692,-1.0692,-1.0692,-1.0692,-1.0692,-1.0692,-1.0692,-1.0692,-1.0692,-1.0637,-1.0084,-0.9581,-0.8423,-0.7482,-0.6654,-0.5993,-0.5605,-0.5493,-0.5437,-0.5382,-0.5382,-0.5382,-0.5382,-0.5382,-0.5382,-0.5384,-0.5406,-0.5424,-0.5414,-0.5398,-0.5426,-0.5459,-0.5435,-0.5376,-0.5273,-0.5232,-0.5238,-0.5191,-0.5332,-0.5083,-0.4591,-0.4224,-2.4668,-2.4531,-2.4228,-2.4277,-2.4492,-2.4121,-2.4238,-2.4727,-2.4727,-2.4853,-2.4971,-2.4623,-2.3776,-2.2382,-2.1553,-2.0365,-1.9136,-1.8152,-1.782,-1.7684,-1.7454,-1.7523,-1.7472,-1.7352,-1.7286,-1.7286,-1.7319,-1.7504,-1.7885,-1.806,-1.81,-1.823,-1.8167,-1.7964,-1.7806,-1.7641,-1.7589,-1.7589,-1.7589,-1.7589,-1.7589,-1.7589,-1.7582,-1.7569,-1.7514,-1.7501,-1.6879,-1.5429,-1.4477,-1.3556,-1.1689,-1.0558,-0.9967,-0.9778,-0.9778,-0.9888,-1.0079,-1.0229,-1.0363,-1.0448,-1.0534,-1.0578,-1.0619,-1.0651,-1.068,-1.0688,-1.0692,-1.0692,-1.0692,-1.0692,-1.0692,-1.0692,-1.0692,-1.0692,-1.0692,-1.0692,-1.0692,-1.0692,-1.0692,-1.0692,-1.0692,-1.0692,-1.0637,-1.0359,-0.9915,-0.9192,-0.8306,-0.7423,-0.6546,-0.6049,-0.5717,-0.5605,-0.5437,-0.5382,-0.5382,-0.5382,-0.5382,-0.539,-0.5394,-0.5424,-0.5467,-0.5478,-0.5486,-0.5527,-0.5551,-0.5522,-0.5524,-0.5518,-0.5526,-0.5497,-0.5563,-0.5555,-0.5625,-0.5301,-0.4941,-2.4307,-2.4102,-2.3682,-2.375,-2.4023,-2.3682,-2.3838,-2.4277,-2.3978,-2.4092,-2.4443,-2.4147,-2.3284,-2.2023,-2.1098,-1.9997,-1.8738,-1.7881,-1.7578,-1.7337,-1.7286,-1.7301,-1.7286,-1.7286,-1.7286,-1.7301,-1.753,-1.7782,-1.8235,-1.8427,-1.8474,-1.8537,-1.8331,-1.8062,-1.7799,-1.7694,-1.7589,-1.7589,-1.7589,-1.7589,-1.7589,-1.7589,-1.7589,-1.7589,-1.7589,-1.7589,-1.6829,-1.5476,-1.4388,-1.3349,-1.1692,-1.0566,-1.0079,-0.9957,-0.9937,-1.0034,-1.0193,-1.0359,-1.0513,-1.0619,-1.0692,-1.0692,-1.0692,-1.0684,-1.0684,-1.0692,-1.0692,-1.0692,-1.0692,-1.0692,-1.0692,-1.0692,-1.0692,-1.0692,-1.0692,-1.0692,-1.0692,-1.0692,-1.0692,-1.0692,-1.0692,-1.0692,-1.0692,-1.0637,-1.0135,-0.9526,-0.8696,-0.8251,-0.7374,-0.6546,-0.6158,-0.5828,-0.5717,-0.5493,-0.5382,-0.5382,-0.5382,-0.5392,-0.542,-0.5486,-0.5547,-0.5563,-0.5524,-0.5616,-0.5568,-0.5544,-0.556,-0.5607,-0.5592,-0.5552,-0.5584,-0.5682,-0.5761,-0.5814,-0.5508,-2.4023,-2.3662,-2.3257,-2.3315,-2.3623,-2.3276,-2.35,-2.3988,-2.3442,-2.3325,-2.3711,-2.3721,-2.2303,-2.1023,-2.0141,-1.8872,-1.7994,-1.7594,-1.7347,-1.7293,-1.7286,-1.7286,-1.7286,-1.7286,-1.7286,-1.7443,-1.7633,-1.794,-1.8306,-1.8535,-1.8679,-1.8738,-1.8541,-1.8213,-1.7957,-1.7747,-1.7589,-1.7589,-1.7589,-1.7589,-1.7589,-1.7589,-1.7589,-1.7589,-1.7589,-1.7589,-1.6882,-1.5855,-1.4561,-1.3457,-1.2272,-1.1208,-1.0496,-1.0383,-1.0152,-1.0213,-1.0306,-1.0481,-1.0627,-1.0672,-1.0692,-1.0692,-1.0692,-1.0692,-1.0692,-1.0692,-1.0692,-1.0692,-1.0692,-1.0692,-1.0692,-1.0692,-1.0692,-1.0692,-1.0692,-1.0692,-1.0692,-1.0692,-1.0692,-1.0692,-1.0692,-1.0692,-1.0692,-1.0692,-1.0359,-0.975,-0.9251,-0.8806,-0.8254,-0.7429,-0.6821,-0.6437,-0.6105,-0.5882,-0.551,-0.5408,-0.5416,-0.5473,-0.5516,-0.5578,-0.5568,-0.5651,-0.5674,-0.5696,-0.5637,-0.5686,-0.5639,-0.5675,-0.5647,-0.5631,-0.5677,-0.5784,-0.5784,-0.5827,-0.5823,-2.3296,-2.3252,-2.312,-2.3159,-2.3208,-2.313,-2.3198,-2.3296,-2.3198,-2.3159,-2.3237,-2.3139,-2.246,-2.1329,-2.0503,-1.9505,-1.8603,-1.7878,-1.7419,-1.7286,-1.7333,-1.7333,-1.7286,-1.7286,-1.7286,-1.7443,-1.764,-1.7969,-1.8218,-1.8569,-1.8679,-1.8478,-1.8475,-1.816,-1.7747,-1.7589,-1.7589,-1.7589,-1.7589,-1.7589,-1.7589,-1.7589,-1.7589,-1.7589,-1.7589,-1.7589,-1.7206,-1.6234,-1.5749,-1.482,-1.3258,-1.2076,-1.1296,-1.0752,-1.0396,-1.0335,-1.0375,-1.0538,-1.0647,-1.0684,-1.0692,-1.0692,-1.0692,-1.0692,-1.0692,-1.0692,-1.0692,-1.0692,-1.0692,-1.0692,-1.0692,-1.0692,-1.0692,-1.0692,-1.0692,-1.0692,-1.0692,-1.0692,-1.0692,-1.0692,-1.0692,-1.0692,-1.0692,-1.0692,-1.0692,-1.0139,-0.975,-0.9361,-0.9192,-0.8367,-0.7537,-0.7157,-0.672,-0.605,-0.564,-0.5469,-0.5486,-0.5547,-0.561,-0.5667,-0.5714,-0.5745,-0.5767,-0.5786,-0.579,-0.5784,-0.58,-0.5746,-0.5768,-0.5764,-0.5796,-0.5884,-0.5863,-0.5849,-0.5855]},{"header":{"parameterUnit":"m.s-1","parameterCategory":1,"la1":31.0,"la2":29.5877,"lo1":-88.7671,"lo2":-86.6584,"dy":0.0162,"dx":0.0185,"nx":115,"ny":88,"refTime":"2024-05-29T00:00:00:Z","depth":0,"parameterNumber":3,"parameterNumberName":"V-component_of_WINDS"},"data":[0.0,0.0,0.0,0.0,0.0,0.0,0.0,0.0,0.0,0.0,0.0,0.0,0.0,0.0,0.0,0.0,0.0,0.0,0.0,0.0,0.0,0.0,0.0,0.0,0.0,0.0,0.0,0.0,0.0,0.0,0.0,0.0,0.0,0.0,0.0,0.0,0.0,0.0,0.0,0.0,0.0,0.0,0.0,0.0,0.0,0.0,0.0,0.0,0.0,0.0,0.0,0.0,0.0,0.0,0.0,0.0,0.0,0.0,0.0,0.0,0.0,0.0,0.0,0.0,0.0,0.0,0.0,0.0,0.0,0.0,0.0,0.0,0.0,0.0,0.0,0.0,0.0,0.0,0.0,0.0,0.0,0.0,0.0,0.0,0.0,0.0,0.0,0.0,0.0,0.0,0.0,0.0,0.0,0.0,0.0,0.0,0.0,0.0,0.0,0.0,0.0,0.0,0.0,0.0,0.0,0.0,0.0,0.0,0.0,0.0,0.0,0.0,0.0,0.0,0.0,0.0,0.0,0.0,0.0,0.0,0.0,0.0,0.0,0.0,0.0,0.0,0.0,0.0,0.0,0.0,0.0,0.0,0.0,0.0,0.0,0.0,0.0,0.0,0.0,0.0,0.0,0.0,0.0,0.0,0.0,0.0,0.0,0.0,0.0,0.0,0.0,0.0,0.0,0.0,0.0,0.0,0.0,0.0,0.0,0.0,0.0,0.0,0.0,0.0,0.0,0.0,0.0,0.0,0.0,0.0,0.0,0.0,0.0,0.0,0.0,0.0,0.0,0.0,0.0,0.0,0.0,0.0,0.0,0.0,0.0,0.0,0.0,0.0,0.0,0.0,0.0,0.0,0.0,0.0,0.0,0.0,0.0,0.0,0.0,0.0,0.0,0.0,0.0,0.0,0.0,0.0,0.0,0.0,0.0,0.0,0.0,0.0,0.0,0.0,0.0,0.0,0.0,0.0,0.0,0.0,0.0,0.0,0.0,0.0,0.0,0.0,0.0,0.0,0.0,0.0,0.0,0.0,0.0,0.0,0.0,0.0,0.0,0.0,0.0,0.0,0.0,0.0,0.0,0.0,0.0,0.0,0.0,0.0,0.0,0.0,0.0,0.0,0.0,0.0,0.0,0.0,0.0,0.0,0.0,0.0,0.0,0.0,0.0,0.0,0.0,0.0,0.0,0.0,0.0,0.0,0.0,0.0,0.0,0.0,0.0,0.0,0.0,0.0,0.0,0.0,0.0,0.0,0.0,0.0,0.0,0.0,0.0,0.0,0.0,0.0,0.0,0.0,0.0,0.0,0.0,0.0,0.0,0.0,0.0,0.0,0.0,0.0,0.0,0.0,0.0,0.0,0.0,0.0,0.0,0.0,0.0,0.0,0.0,0.0,0.0,0.0,0.0,0.0,0.0,0.0,0.0,0.0,0.0,0.0,0.0,0.0,0.0,0.0,0.0,0.0,0.0,0.0,0.0,0.0,0.0,0.0,0.0,0.0,0.0,0.0,0.0,0.0,0.0,0.0,0.0,0.0,0.0,0.0,0.0,0.0,0.0,0.0,0.0,0.0,0.0,0.0,0.0,0.0,0.0,0.0,0.0,0.0,0.0,0.0,0.0,0.0,0.0,0.0,0.0,0.0,0.0,0.0,0.0,0.0,0.0,0.0,0.0,0.0,0.0,0.0,0.0,0.0,0.0,0.0,0.0,0.0,0.0,0.0,0.0,0.0,0.0,0.0,0.0,0.0,0.0,0.0,0.0,0.0,0.0,0.0,0.0,0.0,0.0,0.0,0.0,0.0,0.0,0.0,0.0,0.0,0.0,0.0,0.0,0.0,0.0,0.0,0.0,0.0,0.0,0.0,0.0,0.0,0.0,0.0,0.0,0.0,0.0,0.0,0.0,0.0,0.0,0.0,0.0,0.0,0.0,0.0,0.0,0.0,0.0,0.0,0.0,0.0,0.0,0.0,0.0,0.0,0.0,0.0,0.0,0.0,0.0,0.0,0.0,0.0,0.0,0.0,0.0,0.0,0.0,0.0,0.0,0.0,0.0,0.0,0.0,0.0,0.0,0.0,0.0,0.0,0.0,0.0,0.0,0.0,0.0,0.0,0.0,0.0,0.0,0.0,0.0,0.0,0.0,0.0,0.0,0.0,0.0,0.0,0.0,0.0,0.0,0.0,0.0,0.0,0.0,0.0,0.0,0.0,0.0,0.0,0.0,0.0,0.0,0.0,0.0,0.0,0.0,0.0,0.0,0.0,0.0,0.0,0.0,0.0,0.0,0.0,0.0,0.0,0.0,0.0,0.0,0.0,0.0,0.0,0.0,0.0,0.0,0.0,0.0,0.0,0.0,0.0,0.0,0.0,0.0,0.0,0.0,0.0,0.0,0.0,0.0,0.0,0.0,0.0,0.0,0.0,0.0,0.0,0.0,0.0,0.0,0.0,0.0,0.0,0.0,0.0,0.0,0.0,0.0,0.0,0.0,0.0,0.0,0.0,0.0,0.0,0.0,0.0,0.0,0.0,0.0,0.0,0.0,0.0,0.0,0.0,0.0,0.0,0.0,0.0,0.0,0.0,0.0,0.0,0.0,0.0,0.0,0.0,0.0,0.0,0.0,0.0,0.0,0.0,0.0,0.0,0.0,0.0,0.0,0.0,0.0,0.0,0.0,0.0,0.0,0.0,0.0,0.0,0.0,0.0,0.0,0.0,0.0,0.0,0.0,0.0,0.0,0.0,0.0,0.0,0.0,0.0,0.0,0.0,0.0,0.0,0.0,0.0,0.0,0.0,0.0,0.0,0.0,0.0,0.0,0.0,0.0,0.0,0.0,0.0,0.0,0.0,0.0,0.0,0.0,0.0,0.0,0.0,0.0,0.0,0.0,0.0,0.0,0.0,0.0,0.0,0.0,0.0,0.0,0.0,0.0,0.0,0.0,0.0,0.0,0.0,0.0,0.0,0.0,0.0,0.0,0.0,0.0,0.0,0.0,0.0,0.0,0.0,0.0,0.0,0.0,0.0,0.0,0.0,0.0,0.0,0.0,0.0,0.0,0.0,0.0,0.0,0.0,0.0,0.0,0.0,0.0,0.0,0.0,0.0,0.0,0.0,0.0,0.0,0.0,0.0,0.0,0.0,0.0,0.0,0.0,0.0,0.0,0.0,0.0,0.0,0.0,0.0,0.0,0.0,0.0,0.0,0.0,0.0,0.0,0.0,0.0,0.0,0.0,0.0,0.0,0.0,0.0,0.0,0.0,0.0,0.0,0.0,0.0,0.0,0.0,0.0,0.0,0.0,0.0,0.0,0.0,0.0,0.0,0.0,0.0,0.0,0.0,0.0,0.0,0.0,0.0,0.0,0.0,0.0,0.0,0.0,0.0,0.0,0.0,0.0,0.0,0.0,0.0,0.0,0.0,0.0,0.0,0.0,0.0,0.0,0.0,0.0,0.0,0.0,0.0,0.0,0.0,0.0,0.0,0.0,0.0,0.0,0.0,0.0,0.0,0.0,0.0,0.0,0.0,0.0,0.0,0.0,0.0,0.0,0.0,0.0,0.0,0.0,0.0,0.0,0.0,0.0,0.0,0.0,0.0,0.0,0.0,0.0,0.0,0.0,0.0,0.0,0.0,0.0,0.0,0.0,0.0,0.0,0.0,0.0,0.0,0.0,0.0,0.0,0.0,0.0,0.0,0.0,0.0,0.0,0.0,0.0,0.0,0.0,0.0,0.0,0.0,0.0,0.0,0.0,0.0,0.0,0.0,0.0,0.0,0.0,0.0,0.0,0.0,0.0,0.0,0.0,0.0,0.0,0.0,0.0,0.0,0.0,0.0,0.0,0.0,0.0,0.0,0.0,0.0,0.0,0.0,0.0,0.0,0.0,0.0,0.0,0.0,0.0,0.0,0.0,0.0,0.0,0.0,0.0,0.0,0.0,0.0,0.0,0.0,0.0,0.0,0.0,0.0,0.0,0.0,0.0,0.0,0.0,0.0,0.0,0.0,0.0,0.0,0.0,0.0,0.0,0.0,0.0,0.0,0.0,0.0,0.0,0.0,0.0,0.0,0.0,0.0,0.0,0.0,0.0,0.0,0.0,0.0,0.0,0.0,0.0,0.0,0.0,0.0,0.0,0.0,0.0,0.0,0.0,0.0,0.0,0.0,0.0,0.0,0.0,0.0,0.0,0.0,0.0,0.0,0.0,0.0,0.0,0.0,0.0,0.0,0.0,0.0,0.0,0.0,0.0,0.0,0.0,0.0,0.0,0.0,0.0,0.0,0.0,2.7109,0.0,0.0,0.0,0.0,0.0,0.0,0.0,0.0,0.0,0.0,0.0,0.0,0.0,0.0,0.0,0.0,0.0,0.0,0.0,0.0,0.0,0.0,0.0,0.0,0.0,0.0,0.0,0.0,0.0,0.0,0.0,0.0,0.0,0.0,0.0,0.0,0.0,0.0,0.0,0.0,0.0,0.0,0.0,0.0,0.0,0.0,0.0,0.0,0.0,0.0,0.0,0.0,0.0,0.0,0.0,0.0,0.0,0.0,0.0,0.0,0.0,0.0,0.0,0.0,0.0,0.0,0.0,0.0,0.0,0.0,0.0,0.0,0.0,0.0,0.0,0.0,0.0,0.0,0.0,0.0,0.0,0.0,0.0,0.0,0.0,0.0,0.0,0.0,0.0,0.0,0.0,0.0,0.0,0.0,0.0,0.0,0.0,0.0,0.0,0.0,0.0,0.0,0.0,0.0,0.0,0.0,0.0,0.0,0.0,0.0,2.7315,2.7315,2.7315,2.7315,2.7297,0.0,0.0,0.0,0.0,0.0,0.0,0.0,0.0,0.0,0.0,0.0,0.0,0.0,0.0,0.0,0.0,0.0,0.0,0.0,0.0,0.0,0.0,0.0,0.0,0.0,0.0,0.0,0.0,0.0,0.0,0.0,0.0,0.0,0.0,0.0,0.0,0.0,0.0,0.0,0.0,0.0,0.0,0.0,0.0,0.0,0.0,0.0,0.0,0.0,0.0,0.0,0.0,0.0,0.0,0.0,0.0,0.0,0.0,0.0,0.0,0.0,0.0,0.0,0.0,0.0,0.0,0.0,0.0,0.0,0.0,0.0,0.0,0.0,0.0,0.0,0.0,0.0,0.0,0.0,0.0,0.0,0.0,0.0,0.0,0.0,0.0,0.0,0.0,0.0,0.0,0.0,0.0,0.0,0.0,0.0,0.0,0.0,0.0,0.0,0.0,0.0,0.0,0.0,0.0,0.0,0.0,0.0,0.0,0.0,0.0,0.0,0.0,2.754,2.7368,2.704,0.0,0.0,0.0,0.0,0.0,0.0,0.0,0.0,0.0,0.0,0.0,0.0,0.0,0.0,0.0,0.0,0.0,0.0,0.0,0.0,0.0,0.0,0.0,0.0,0.0,0.0,0.0,0.0,0.0,0.0,0.0,0.0,0.0,0.0,0.0,0.0,0.0,0.0,0.0,0.0,0.0,0.0,0.0,0.0,0.0,0.0,0.0,0.0,0.0,0.0,0.0,0.0,0.0,0.0,0.0,0.0,0.0,0.0,0.0,0.0,0.0,0.0,0.0,0.0,0.0,0.0,0.0,0.0,0.0,0.0,0.0,0.0,0.0,0.0,0.0,0.0,0.0,0.0,0.0,0.0,0.0,0.0,0.0,0.0,0.0,0.0,0.0,0.0,0.0,0.0,0.0,0.0,0.0,0.0,0.0,0.0,0.0,0.0,0.0,0.0,0.0,0.0,0.0,0.0,0.0,0.0,0.0,0.0,0.0,0.0,2.7609,2.8265,2.8299,0.0,2.6385,0.0,0.0,0.0,0.0,0.0,0.0,0.0,0.0,0.0,0.0,0.0,0.0,0.0,0.0,0.0,0.0,0.0,0.0,0.0,0.0,0.0,0.0,0.0,0.0,0.0,0.0,0.0,0.0,0.0,0.0,0.0,0.0,0.0,0.0,0.0,0.0,0.0,0.0,0.0,0.0,0.0,0.0,0.0,0.0,0.0,0.0,0.0,0.0,0.0,0.0,0.0,0.0,0.0,0.0,0.0,0.0,0.0,0.0,0.0,0.0,0.0,0.0,0.0,0.0,0.0,0.0,0.0,0.0,0.0,0.0,0.0,0.0,0.0,0.0,0.0,0.0,0.0,0.0,0.0,0.0,0.0,0.0,0.0,0.0,0.0,0.0,0.0,0.0,0.0,0.0,0.0,0.0,0.0,0.0,0.0,0.0,0.0,0.0,0.0,0.0,0.0,0.0,0.0,0.0,0.0,0.0,0.0,0.0,0.0,0.0,2.8092,2.8403,2.842,2.7678,0.0,0.0,0.0,0.0,0.0,0.0,0.0,0.0,0.0,0.0,0.0,0.0,0.0,0.0,0.0,0.0,0.0,0.0,0.0,0.0,0.0,0.0,0.0,0.0,0.0,0.0,0.0,0.0,0.0,0.0,0.0,0.0,0.0,0.0,0.0,0.0,0.0,0.0,0.0,0.0,0.0,0.0,0.0,0.0,0.0,0.0,0.0,0.0,0.0,0.0,0.0,0.0,0.0,0.0,0.0,0.0,0.0,0.0,0.0,0.0,0.0,0.0,0.0,0.0,0.0,0.0,0.0,0.0,0.0,0.0,0.0,0.0,0.0,0.0,0.0,0.0,0.0,0.0,0.0,0.0,0.0,0.0,0.0,0.0,0.0,0.0,0.0,0.0,0.0,0.0,0.0,0.0,0.0,0.0,0.0,0.0,0.0,0.0,0.0,0.0,0.0,0.0,0.0,0.0,0.0,0.0,0.0,0.0,0.0,0.0,2.823,0.0,2.8696,2.8713,2.7885,2.6161,0.0,0.0,0.0,0.0,0.0,0.0,0.0,0.0,0.0,0.0,0.0,0.0,0.0,0.0,0.0,0.0,0.0,0.0,0.0,0.0,0.0,0.0,0.0,0.0,0.0,0.0,0.0,0.0,0.0,0.0,0.0,0.0,0.0,0.0,0.0,0.0,0.0,0.0,0.0,0.0,0.0,0.0,0.0,0.0,0.0,0.0,0.0,0.0,0.0,0.0,0.0,0.0,0.0,0.0,0.0,0.0,0.0,0.0,0.0,0.0,0.0,0.0,0.0,0.0,0.0,0.0,0.0,0.0,0.0,0.0,0.0,0.0,0.0,0.0,0.0,0.0,0.0,0.0,0.0,0.0,0.0,0.0,0.0,0.0,0.0,0.0,0.0,0.0,0.0,0.0,0.0,0.0,0.0,0.0,0.0,0.0,0.0,0.0,0.0,0.0,0.0,0.0,0.0,0.0,0.0,0.0,0.0,0.0,0.0,2.8747,2.8747,2.9437,2.9455,2.8403,0.0,0.0,0.0,0.0,0.0,0.0,0.0,0.0,0.0,0.0,0.0,0.0,0.0,0.0,0.0,0.0,0.0,0.0,0.0,0.0,0.0,0.0,0.0,0.0,0.0,0.0,0.0,0.0,0.0,0.0,0.0,0.0,0.0,0.0,0.0,0.0,0.0,0.0,0.0,0.0,0.0,0.0,0.0,0.0,0.0,0.0,0.0,0.0,0.0,0.0,0.0,0.0,0.0,0.0,0.0,0.0,0.0,0.0,0.0,0.0,0.0,0.0,0.0,0.0,0.0,0.0,0.0,0.0,0.0,0.0,0.0,0.0,0.0,0.0,0.0,0.0,0.0,0.0,0.0,0.0,0.0,0.0,0.0,0.0,0.0,0.0,0.0,0.0,0.0,0.0,0.0,0.0,0.0,0.0,0.0,0.0,0.0,0.0,0.0,0.0,0.0,0.0,0.0,0.0,0.0,0.0,0.0,0.0,0.0,2.8058,2.8282,2.9006,3.0179,2.9317,2.8178,0.0,0.0,0.0,0.0,0.0,0.0,0.0,0.0,0.0,0.0,0.0,0.0,0.0,0.0,0.0,0.0,0.0,0.0,0.0,0.0,0.0,0.0,0.0,0.0,0.0,0.0,0.0,0.0,0.0,0.0,0.0,0.0,0.0,0.0,0.0,0.0,0.0,0.0,0.0,0.0,0.0,0.0,0.0,0.0,0.0,0.0,0.0,0.0,0.0,0.0,0.0,0.0,0.0,0.0,0.0,0.0,0.0,0.0,0.0,0.0,0.0,0.0,0.0,0.0,0.0,0.0,0.0,0.0,0.0,0.0,0.0,0.0,0.0,0.0,0.0,0.0,0.0,0.0,0.0,0.0,0.0,0.0,0.0,0.0,0.0,0.0,0.0,0.0,0.0,0.0,0.0,0.0,0.0,0.0,0.0,0.0,0.0,0.0,0.0,0.0,0.0,0.0,0.0,0.0,0.0,0.0,0.0,0.0,0.0,2.8023,0.0,2.9506,0.0,2.9299,2.8178,0.0,0.0,0.0,0.0,0.0,0.0,0.0,0.0,0.0,0.0,0.0,0.0,0.0,0.0,0.0,0.0,0.0,0.0,0.0,0.0,0.0,0.0,0.0,0.0,0.0,0.0,0.0,0.0,0.0,0.0,0.0,0.0,0.0,0.0,0.0,0.0,0.0,0.0,0.0,0.0,0.0,0.0,0.0,0.0,0.0,0.0,0.0,0.0,0.0,0.0,0.0,0.0,0.0,0.0,0.0,0.0,0.0,0.0,0.0,0.0,0.0,0.0,0.0,0.0,0.0,0.0,0.0,0.0,0.0,0.0,0.0,0.0,0.0,0.0,0.0,0.0,0.0,0.0,0.0,0.0,0.0,0.0,0.0,0.0,0.0,0.0,0.0,0.0,0.0,0.0,0.0,0.0,0.0,0.0,0.0,0.0,0.0,0.0,0.0,0.0,0.0,0.0,0.0,0.0,0.0,0.0,0.0,0.0,2.804,2.9403,3.0196,3.0231,2.9558,2.9455,2.842,0.0,0.0,0.0,0.0,0.0,0.0,0.0,0.0,0.0,0.0,0.0,0.0,0.0,0.0,0.0,0.0,0.0,0.0,0.0,0.0,0.0,0.0,0.0,0.0,0.0,0.0,0.0,0.0,0.0,0.0,0.0,0.0,0.0,0.0,0.0,0.0,0.0,0.0,0.0,0.0,0.0,0.0,0.0,0.0,0.0,0.0,0.0,0.0,0.0,0.0,0.0,0.0,0.0,0.0,0.0,0.0,0.0,0.0,0.0,0.0,0.0,0.0,0.0,0.0,0.0,0.0,0.0,0.0,0.0,0.0,0.0,0.0,0.0,0.0,0.0,0.0,0.0,0.0,0.0,0.0,0.0,0.0,0.0,0.0,0.0,0.0,0.0,0.0,0.0,0.0,0.0,0.0,0.0,0.0,0.0,0.0,0.0,0.0,0.0,0.0,0.0,0.0,0.0,0.0,0.0,0.0,0.0,0.0,0.0,2.8747,2.9489,3.0024,3.0282,2.9299,2.842,0.0,0.0,0.0,0.0,0.0,0.0,0.0,0.0,0.0,0.0,0.0,0.0,0.0,0.0,0.0,0.0,0.0,0.0,0.0,0.0,0.0,0.0,0.0,0.0,0.0,0.0,0.0,0.0,0.0,0.0,0.0,0.0,0.0,0.0,0.0,0.0,0.0,0.0,0.0,0.0,0.0,0.0,0.0,0.0,0.0,0.0,0.0,0.0,0.0,0.0,0.0,0.0,0.0,0.0,0.0,0.0,0.0,0.0,0.0,0.0,0.0,0.0,0.0,0.0,0.0,0.0,0.0,0.0,0.0,0.0,0.0,0.0,0.0,0.0,0.0,0.0,0.0,0.0,0.0,0.0,0.0,0.0,0.0,0.0,0.0,0.0,0.0,0.0,0.0,0.0,0.0,0.0,0.0,0.0,0.0,0.0,0.0,0.0,0.0,0.0,0.0,0.0,0.0,0.0,0.0,0.0,0.0,0.0,0.0,2.9696,3.0127,3.0593,3.1094,2.9627,2.8678,2.8368,0.0,0.0,0.0,0.0,0.0,0.0,0.0,0.0,0.0,0.0,0.0,0.0,0.0,0.0,0.0,0.0,0.0,0.0,0.0,0.0,0.0,0.0,0.0,0.0,0.0,0.0,0.0,0.0,0.0,0.0,0.0,0.0,0.0,0.0,0.0,0.0,0.0,0.0,0.0,0.0,0.0,0.0,0.0,0.0,0.0,0.0,0.0,0.0,0.0,0.0,0.0,0.0,0.0,0.0,0.0,0.0,0.0,0.0,0.0,0.0,0.0,0.0,0.0,0.0,0.0,0.0,0.0,0.0,0.0,0.0,0.0,0.0,0.0,0.0,0.0,0.0,0.0,0.0,0.0,0.0,0.0,0.0,0.0,0.0,0.0,0.0,0.0,0.0,0.0,0.0,0.0,0.0,0.0,0.0,0.0,0.0,0.0,0.0,0.0,0.0,0.0,0.0,0.0,0.0,0.0,0.0,0.0,0.0,3.1921,3.1938,3.1903,3.1834,3.042,2.9265,0.0,0.0,0.0,0.0,0.0,0.0,0.0,0.0,0.0,0.0,0.0,0.0,0.0,0.0,0.0,0.0,0.0,0.0,0.0,0.0,0.0,0.0,0.0,0.0,0.0,0.0,0.0,0.0,0.0,0.0,0.0,0.0,0.0,0.0,0.0,0.0,0.0,0.0,0.0,0.0,0.0,0.0,0.0,0.0,0.0,0.0,0.0,0.0,0.0,0.0,0.0,0.0,0.0,0.0,0.0,0.0,0.0,0.0,0.0,0.0,0.0,0.0,0.0,0.0,0.0,0.0,0.0,0.0,0.0,0.0,0.0,0.0,0.0,0.0,0.0,0.0,0.0,0.0,0.0,0.0,0.0,0.0,0.0,0.0,0.0,0.0,0.0,0.0,0.0,0.0,0.0,0.0,0.0,0.0,0.0,0.0,0.0,0.0,0.0,0.0,0.0,0.0,0.0,0.0,0.0,0.0,0.0,0.0,0.0,3.344,3.3509,3.3233,3.2628,3.1696,3.0575,0.0,0.0,0.0,0.0,0.0,0.0,0.0,0.0,0.0,0.0,0.0,0.0,0.0,0.0,0.0,0.0,0.0,0.0,0.0,0.0,0.0,0.0,0.0,0.0,0.0,0.0,0.0,0.0,0.0,0.0,0.0,0.0,0.0,0.0,0.0,0.0,0.0,0.0,0.0,0.0,0.0,0.0,0.0,0.0,0.0,0.0,0.0,0.0,0.0,0.0,0.0,0.0,0.0,0.0,0.0,0.0,0.0,0.0,0.0,0.0,0.0,0.0,0.0,0.0,0.0,0.0,0.0,0.0,0.0,0.0,0.0,0.0,0.0,0.0,0.0,0.0,0.0,0.0,0.0,0.0,0.0,0.0,0.0,0.0,0.0,0.0,0.0,0.0,0.0,0.0,0.0,0.0,0.0,0.0,0.0,0.0,0.0,0.0,0.0,0.0,0.0,0.0,0.0,0.0,0.0,0.0,0.0,0.0,3.3007,3.4525,3.4852,3.4663,3.3886,3.2835,3.1558,0.0,0.0,0.0,0.0,0.0,0.0,0.0,0.0,0.0,0.0,0.0,0.0,0.0,0.0,0.0,0.0,0.0,0.0,0.0,0.0,0.0,0.0,0.0,0.0,0.0,0.0,0.0,0.0,0.0,0.0,0.0,0.0,0.0,0.0,0.0,0.0,0.0,0.0,0.0,0.0,0.0,0.0,0.0,0.0,0.0,0.0,0.0,0.0,0.0,0.0,0.0,0.0,0.0,0.0,0.0,0.0,0.0,0.0,0.0,0.0,0.0,0.0,0.0,0.0,0.0,0.0,0.0,0.0,0.0,0.0,0.0,0.0,0.0,0.0,0.0,0.0,0.0,0.0,0.0,0.0,0.0,0.0,0.0,0.0,0.0,0.0,0.0,0.0,0.0,0.0,0.0,0.0,0.0,0.0,0.0,0.0,0.0,0.0,0.0,0.0,0.0,0.0,0.0,0.0,0.0,0.0,0.0,0.0,3.38,3.5163,3.5921,3.599,3.5301,3.3904,3.2403,0.0,0.0,0.0,0.0,0.0,0.0,0.0,0.0,0.0,0.0,0.0,0.0,0.0,0.0,0.0,0.0,0.0,0.0,0.0,0.0,0.0,0.0,0.0,0.0,0.0,0.0,0.0,0.0,0.0,0.0,0.0,0.0,0.0,0.0,0.0,0.0,0.0,0.0,0.0,0.0,0.0,0.0,0.0,0.0,0.0,0.0,0.0,0.0,0.0,0.0,0.0,0.0,0.0,0.0,0.0,0.0,0.0,0.0,0.0,0.0,0.0,0.0,0.0,0.0,0.0,0.0,0.0,0.0,0.0,0.0,0.0,0.0,0.0,0.0,0.0,0.0,0.0,0.0,0.0,0.0,0.0,0.0,0.0,0.0,0.0,0.0,0.0,0.0,0.0,0.0,0.0,0.0,0.0,0.0,0.0,0.0,0.0,0.0,0.0,0.0,0.0,0.0,0.0,0.0,0.0,0.0,0.0,0.0,3.4869,3.5197,3.5904,3.6215,3.6077,3.518,3.3731,0.0,0.0,0.0,0.0,0.0,0.0,0.0,0.0,0.0,0.0,0.0,0.0,0.0,0.0,0.0,0.0,0.0,0.0,0.0,0.0,0.0,0.0,0.0,0.0,0.0,0.0,0.0,0.0,0.0,0.0,0.0,0.0,0.0,0.0,0.0,0.0,0.0,0.0,0.0,0.0,0.0,0.0,0.0,0.0,0.0,0.0,0.0,0.0,3.2129,0.0,0.0,0.0,0.0,0.0,0.0,0.0,0.0,0.0,0.0,0.0,0.0,0.0,0.0,0.0,0.0,0.0,0.0,0.0,0.0,0.0,0.0,0.0,0.0,0.0,0.0,0.0,0.0,0.0,0.0,0.0,0.0,0.0,0.0,0.0,0.0,0.0,0.0,0.0,0.0,0.0,0.0,0.0,0.0,0.0,0.0,0.0,0.0,0.0,0.0,0.0,0.0,0.0,0.0,0.0,0.0,0.0,0.0,0.0,3.537,3.5697,3.6094,3.6284,3.6266,3.5921,3.4645,0.0,0.0,0.0,0.0,0.0,0.0,0.0,0.0,0.0,0.0,0.0,0.0,0.0,0.0,0.0,0.0,0.0,0.0,0.0,0.0,0.0,0.0,0.0,0.0,0.0,0.0,0.0,0.0,0.0,0.0,0.0,0.0,0.0,0.0,0.0,0.0,0.0,0.0,0.0,0.0,0.0,0.0,0.0,0.0,0.0,0.0,0.0,0.0,0.0,0.0,0.0,0.0,0.0,0.0,0.0,0.0,0.0,0.0,0.0,0.0,0.0,0.0,0.0,0.0,0.0,0.0,0.0,0.0,0.0,0.0,0.0,0.0,0.0,0.0,0.0,0.0,0.0,0.0,0.0,0.0,0.0,0.0,0.0,0.0,0.0,0.0,0.0,0.0,0.0,0.0,0.0,0.0,0.0,0.0,0.0,0.0,0.0,0.0,0.0,0.0,0.0,0.0,0.0,0.0,0.0,0.0,0.0,3.4214,3.5559,3.6249,3.6284,3.6284,3.6284,3.6284,3.5283,3.3179,0.0,0.0,0.0,0.0,0.0,0.0,0.0,0.0,0.0,0.0,0.0,0.0,0.0,0.0,0.0,0.0,0.0,0.0,0.0,0.0,0.0,0.0,0.0,0.0,0.0,0.0,0.0,0.0,0.0,0.0,0.0,0.0,0.0,0.0,0.0,0.0,0.0,0.0,3.1716,3.3928,0.0,0.0,0.0,0.0,0.0,0.0,0.0,0.0,3.4638,0.0,0.0,0.0,0.0,0.0,0.0,0.0,0.0,0.0,0.0,0.0,0.0,0.0,0.0,0.0,0.0,0.0,0.0,0.0,0.0,0.0,0.0,0.0,0.0,0.0,0.0,0.0,0.0,0.0,0.0,0.0,0.0,0.0,0.0,0.0,0.0,0.0,0.0,0.0,0.0,0.0,0.0,0.0,0.0,0.0,0.0,0.0,0.0,0.0,0.0,0.0,0.0,0.0,0.0,0.0,0.0,3.4594,3.5007,3.5559,3.6266,3.6284,3.6284,3.6284,3.6284,3.5542,3.3958,0.0,0.0,0.0,0.0,0.0,0.0,0.0,0.0,0.0,0.0,0.0,0.0,0.0,0.0,0.0,0.0,0.0,0.0,0.0,0.0,0.0,0.0,0.0,0.0,0.0,0.0,0.0,0.0,0.0,0.0,0.0,0.0,0.0,0.0,0.0,0.0,0.0,0.0,0.0,3.5219,3.631,0.0,0.0,0.0,0.0,0.0,0.0,0.0,0.0,3.4603,0.0,0.0,0.0,0.0,0.0,0.0,0.0,0.0,0.0,0.0,0.0,0.0,0.0,0.0,0.0,0.0,0.0,0.0,0.0,0.0,0.0,0.0,0.0,0.0,0.0,0.0,0.0,0.0,0.0,0.0,0.0,0.0,0.0,0.0,0.0,0.0,0.0,0.0,0.0,0.0,0.0,0.0,0.0,0.0,0.0,0.0,0.0,0.0,0.0,0.0,0.0,0.0,0.0,0.0,0.0,3.4071,3.5261,3.6039,3.6385,3.6322,3.6284,3.6284,3.5939,3.5197,0.0,0.0,0.0,0.0,0.0,0.0,0.0,0.0,0.0,0.0,0.0,0.0,0.0,0.0,0.0,0.0,0.0,0.0,0.0,0.0,0.0,0.0,0.0,0.0,0.0,0.0,0.0,0.0,0.0,0.0,0.0,0.0,0.0,0.0,0.0,0.0,0.0,0.0,0.0,0.0,3.6456,3.7183,3.7224,0.0,0.0,0.0,0.0,0.0,0.0,3.5769,3.5776,0.0,0.0,0.0,0.0,0.0,0.0,0.0,0.0,0.0,0.0,0.0,0.0,0.0,0.0,0.0,0.0,0.0,0.0,0.0,0.0,0.0,0.0,0.0,0.0,0.0,0.0,0.0,0.0,0.0,0.0,0.0,0.0,0.0,0.0,0.0,0.0,0.0,0.0,0.0,0.0,0.0,0.0,0.0,0.0,0.0,0.0,0.0,0.0,0.0,0.0,0.0,0.0,0.0,0.0,0.0,3.337,3.5295,3.6367,3.6485,3.6402,3.6322,3.6284,3.5732,3.4921,0.0,0.0,0.0,0.0,0.0,0.0,0.0,0.0,0.0,0.0,0.0,0.0,0.0,0.0,0.0,0.0,0.0,0.0,0.0,0.0,0.0,0.0,0.0,0.0,0.0,0.0,0.0,0.0,0.0,0.0,0.0,0.0,0.0,0.0,0.0,0.0,0.0,0.0,0.0,0.0,0.0,3.834,3.839,3.8146,0.0,0.0,0.0,0.0,3.7508,3.7409,0.0,0.0,0.0,0.0,0.0,0.0,0.0,0.0,0.0,0.0,0.0,0.0,0.0,0.0,0.0,0.0,0.0,0.0,0.0,0.0,0.0,0.0,0.0,0.0,0.0,0.0,0.0,0.0,0.0,0.0,0.0,0.0,0.0,0.0,0.0,0.0,0.0,0.0,0.0,0.0,0.0,0.0,0.0,0.0,0.0,0.0,0.0,0.0,0.0,0.0,0.0,0.0,0.0,0.0,0.0,0.0,3.4196,3.5151,3.5911,3.6468,3.6485,3.644,3.6301,3.6215,3.518,0.0,0.0,0.0,0.0,0.0,0.0,0.0,0.0,0.0,0.0,0.0,0.0,0.0,0.0,0.0,0.0,0.0,0.0,0.0,0.0,0.0,0.0,0.0,0.0,0.0,0.0,0.0,0.0,0.0,0.0,0.0,0.0,0.0,0.0,0.0,0.0,0.0,0.0,0.0,0.0,0.0,4.0198,4.044,3.9541,3.8987,0.0,0.0,3.835,3.8727,3.8917,0.0,0.0,0.0,0.0,0.0,0.0,0.0,0.0,0.0,0.0,0.0,0.0,0.0,0.0,0.0,0.0,0.0,0.0,0.0,0.0,0.0,0.0,0.0,0.0,0.0,0.0,0.0,0.0,0.0,0.0,0.0,0.0,0.0,0.0,0.0,0.0,0.0,0.0,0.0,0.0,0.0,0.0,0.0,0.0,0.0,0.0,0.0,0.0,0.0,0.0,0.0,0.0,0.0,0.0,0.0,3.2563,3.443,3.5632,3.6397,3.667,3.6643,3.6582,3.6523,3.6073,3.4978,0.0,0.0,0.0,0.0,0.0,0.0,0.0,0.0,0.0,0.0,0.0,0.0,0.0,0.0,0.0,0.0,0.0,0.0,0.0,0.0,0.0,0.0,0.0,0.0,0.0,0.0,0.0,0.0,0.0,0.0,0.0,0.0,0.0,0.0,0.0,0.0,0.0,0.0,0.0,0.0,0.0,0.0,4.0779,4.0841,0.0,0.0,0.0,4.0195,4.0329,0.0,0.0,0.0,0.0,0.0,0.0,0.0,0.0,0.0,0.0,0.0,0.0,0.0,0.0,0.0,0.0,0.0,0.0,0.0,0.0,0.0,0.0,0.0,0.0,0.0,0.0,0.0,0.0,0.0,0.0,0.0,0.0,0.0,0.0,0.0,0.0,0.0,0.0,0.0,0.0,0.0,0.0,0.0,0.0,0.0,0.0,0.0,0.0,0.0,0.0,0.0,0.0,0.0,0.0,0.0,0.0,0.0,3.4541,3.6044,3.6831,3.6809,3.6745,3.6705,3.6702,3.5919,0.0,0.0,0.0,0.0,0.0,0.0,0.0,0.0,0.0,0.0,0.0,0.0,0.0,0.0,0.0,0.0,0.0,0.0,0.0,0.0,0.0,0.0,0.0,0.0,0.0,0.0,0.0,2.9388,0.0,0.0,0.0,0.0,0.0,0.0,0.0,0.0,0.0,0.0,0.0,0.0,0.0,0.0,4.1237,4.156,4.2191,4.2693,0.0,0.0,4.1676,4.1523,4.111,4.0469,0.0,0.0,0.0,0.0,0.0,0.0,0.0,0.0,0.0,0.0,0.0,0.0,0.0,0.0,0.0,0.0,0.0,0.0,0.0,0.0,0.0,0.0,0.0,0.0,0.0,0.0,0.0,0.0,0.0,0.0,0.0,0.0,0.0,0.0,0.0,0.0,0.0,0.0,0.0,0.0,0.0,0.0,0.0,0.0,0.0,0.0,0.0,0.0,0.0,0.0,0.0,0.0,0.0,0.0,0.0,3.467,3.6197,3.6928,3.6809,3.6809,3.6766,3.6684,3.5919,3.4474,0.0,0.0,0.0,0.0,0.0,0.0,0.0,0.0,0.0,0.0,0.0,0.0,0.0,0.0,0.0,0.0,0.0,0.0,0.0,0.0,0.0,0.0,0.0,0.0,0.0,0.0,0.0,0.0,0.0,0.0,0.0,0.0,0.0,0.0,0.0,0.0,0.0,0.0,0.0,0.0,0.0,4.2378,4.3611,4.3634,4.3664,0.0,0.0,4.2412,4.1863,4.1769,4.1154,3.9565,0.0,0.0,0.0,0.0,0.0,0.0,0.0,0.0,0.0,0.0,0.0,0.0,0.0,0.0,0.0,0.0,0.0,0.0,0.0,0.0,0.0,0.0,0.0,0.0,0.0,0.0,0.0,0.0,0.0,0.0,0.0,0.0,0.0,0.0,0.0,0.0,0.0,0.0,0.0,0.0,0.0,0.0,0.0,0.0,0.0,0.0,0.0,0.0,0.0,0.0,0.0,0.0,0.0,3.3143,3.4689,3.6217,3.6987,3.6928,3.6911,3.6891,3.6886,3.6571,3.531,0.0,0.0,0.0,0.0,0.0,0.0,0.0,0.0,0.0,0.0,0.0,0.0,0.0,0.0,0.0,0.0,0.0,0.0,0.0,0.0,0.0,0.0,0.0,0.0,0.0,0.0,0.0,0.0,3.0681,3.1003,3.1003,0.0,0.0,0.0,0.0,0.0,0.0,0.0,0.0,0.0,0.0,4.2819,4.3855,4.4479,0.0,0.0,4.4744,4.4227,4.3442,4.2931,4.2008,4.0323,4.0035,0.0,0.0,0.0,0.0,0.0,0.0,0.0,0.0,0.0,0.0,0.0,0.0,0.0,0.0,0.0,0.0,0.0,0.0,0.0,0.0,0.0,0.0,0.0,0.0,0.0,0.0,0.0,0.0,0.0,0.0,0.0,0.0,0.0,0.0,0.0,0.0,0.0,0.0,0.0,0.0,0.0,0.0,0.0,0.0,0.0,0.0,0.0,0.0,0.0,0.0,0.0,0.0,3.3161,3.4688,3.6217,3.6989,3.6989,3.6989,3.6989,3.6989,3.6779,3.5634,0.0,0.0,0.0,0.0,0.0,0.0,0.0,0.0,0.0,0.0,0.0,0.0,0.0,0.0,0.0,0.0,0.0,0.0,0.0,0.0,0.0,0.0,0.0,0.0,0.0,0.0,0.0,0.0,3.1659,3.1936,3.1703,0.0,0.0,0.0,0.0,0.0,0.0,0.0,0.0,0.0,0.0,4.3465,4.4384,4.5138,4.5631,4.5631,4.5391,4.5086,4.4739,4.4008,4.3055,4.1859,0.0,0.0,0.0,0.0,0.0,0.0,0.0,0.0,0.0,0.0,0.0,0.0,0.0,0.0,0.0,0.0,0.0,0.0,0.0,0.0,0.0,0.0,0.0,0.0,0.0,0.0,0.0,0.0,0.0,0.0,2.7841,0.0,0.0,0.0,0.0,0.0,0.0,0.0,0.0,0.0,0.0,0.0,0.0,0.0,0.0,0.0,0.0,0.0,0.0,0.0,0.0,0.0,0.0,3.3178,3.4706,3.6234,3.6989,3.6989,3.6989,3.6989,3.6989,3.625,3.5108,3.3546,0.0,0.0,0.0,0.0,0.0,0.0,0.0,0.0,0.0,0.0,0.0,0.0,0.0,0.0,0.0,0.0,0.0,0.0,0.0,0.0,0.0,0.0,0.0,0.0,0.0,0.0,3.1998,3.2048,3.1819,0.0,0.0,0.0,0.0,0.0,0.0,0.0,0.0,0.0,0.0,4.2881,4.4456,4.5502,4.5679,4.5701,4.572,4.4966,4.4652,4.5479,4.4883,4.4295,0.0,0.0,0.0,0.0,0.0,0.0,0.0,0.0,0.0,0.0,0.0,0.0,0.0,0.0,0.0,0.0,0.0,0.0,0.0,0.0,0.0,0.0,0.0,0.0,0.0,0.0,0.0,3.1672,3.0442,0.0,0.0,0.0,0.0,0.0,0.0,0.0,0.0,0.0,0.0,0.0,3.5563,3.7091,0.0,0.0,0.0,0.0,0.0,0.0,0.0,0.0,0.0,0.0,0.0,0.0,3.3898,3.5407,3.648,3.6989,3.6989,3.6989,3.6989,3.6989,3.6724,3.5618,3.3564,0.0,0.0,0.0,0.0,0.0,0.0,0.0,0.0,0.0,0.0,0.0,0.0,0.0,0.0,0.0,0.0,0.0,0.0,0.0,0.0,0.0,0.0,0.0,0.0,0.0,3.3098,0.0,0.0,0.0,0.0,0.0,0.0,0.0,0.0,0.0,0.0,0.0,4.0657,4.2699,4.377,4.468,4.5565,4.5692,4.5915,0.0,0.0,0.0,0.0,0.0,0.0,0.0,0.0,0.0,0.0,0.0,0.0,0.0,0.0,4.3387,4.1117,4.0454,4.0184,3.9875,0.0,0.0,0.0,0.0,0.0,0.0,0.0,0.0,0.0,0.0,0.0,0.0,0.0,0.0,3.3354,0.0,3.2423,0.0,0.0,0.0,0.0,0.0,0.0,0.0,0.0,3.7535,3.8286,3.7792,3.9292,3.9203,0.0,3.7167,3.574,0.0,0.0,0.0,0.0,0.0,0.0,0.0,0.0,3.4465,3.5965,3.6796,3.7203,3.7203,3.7143,3.7105,3.7087,3.69,3.6004,3.4355,3.3587,3.2326,0.0,0.0,0.0,0.0,0.0,0.0,0.0,0.0,0.0,0.0,0.0,0.0,0.0,0.0,0.0,0.0,0.0,0.0,0.0,0.0,0.0,0.0,0.0,3.3864,0.0,0.0,0.0,0.0,0.0,0.0,0.0,0.0,0.0,3.9657,4.0549,4.1918,4.374,4.4456,4.5047,4.5642,0.0,0.0,0.0,0.0,0.0,0.0,0.0,4.7695,4.7151,4.6804,4.6233,4.5148,4.5421,4.581,4.581,0.0,0.0,4.2871,4.2246,4.2052,4.2052,4.2239,4.2232,4.1698,4.2007,4.2232,0.0,0.0,0.0,0.0,0.0,0.0,0.0,0.0,3.4753,3.4882,0.0,3.483,0.0,0.0,0.0,0.0,0.0,3.6007,0.0,0.0,3.8524,3.9292,3.999,4.0116,4.0079,4.0061,4.0027,3.9187,3.756,3.4698,0.0,0.0,0.0,0.0,0.0,0.0,3.4917,3.6417,3.7202,3.7613,3.7577,3.7392,3.7316,3.7317,3.6773,3.6284,3.5831,3.5154,3.4043,3.2452,3.1683,0.0,0.0,0.0,0.0,0.0,0.0,0.0,0.0,0.0,0.0,0.0,0.0,0.0,0.0,0.0,0.0,0.0,0.0,0.0,0.0,3.366,0.0,0.0,0.0,0.0,0.0,0.0,0.0,0.0,0.0,0.0,4.0349,4.2109,4.3784,4.4282,0.0,0.0,0.0,0.0,4.6155,4.7024,4.7109,4.7676,4.9296,4.9536,4.9525,4.9547,0.0,0.0,4.6167,4.5896,4.5942,4.5904,4.5942,4.5845,4.5787,4.5045,4.4555,4.4536,4.3936,4.3421,4.3382,4.3414,4.3414,3.6644,0.0,0.0,0.0,0.0,3.7636,3.788,3.7523,3.7996,3.7893,3.7416,3.7552,0.0,0.0,0.0,0.0,0.0,0.0,3.8598,3.9552,4.0306,4.0848,4.1231,4.1809,4.1791,4.1213,4.1231,4.069,3.9662,3.8778,3.6479,3.2923,0.0,0.0,0.0,0.0,3.6256,3.7202,3.7488,3.7595,3.7595,3.7558,3.7577,3.7721,3.7557,3.724,3.6747,3.652,3.578,3.4442,3.362,0.0,0.0,0.0,0.0,0.0,0.0,0.0,0.0,0.0,0.0,0.0,0.0,0.0,0.0,0.0,0.0,0.0,0.0,0.0,3.2918,3.4553,3.5672,0.0,0.0,0.0,0.0,0.0,0.0,0.0,0.0,0.0,4.3099,4.3646,4.4364,0.0,0.0,4.573,4.58,4.6334,4.7042,4.7893,4.8543,0.0,5.0325,5.0499,5.0314,4.9761,4.8957,4.8203,4.7753,4.7657,4.7657,4.7657,4.7154,4.6735,4.6689,4.6051,4.5497,4.5432,4.5239,4.5091,4.5072,4.5084,4.5065,3.8808,3.842,3.8866,3.8691,3.8218,3.9083,3.9347,3.9164,3.9479,3.9572,3.9544,3.9663,3.9203,3.831,3.8097,0.0,0.0,0.0,3.9967,4.087,4.1321,4.1756,4.2194,4.2665,4.2647,4.2194,4.2176,4.1759,4.0981,4.0963,3.912,3.5635,0.0,0.0,3.6127,3.7093,3.7989,3.869,3.8438,3.8331,3.8313,3.7918,3.7792,3.7964,3.8082,3.8059,3.7875,3.7993,3.754,3.6433,3.5343,3.4223,0.0,0.0,0.0,0.0,0.0,0.0,0.0,0.0,0.0,0.0,0.0,3.1986,3.0713,0.0,0.0,0.0,3.1898,3.3193,3.5165,3.6254,0.0,0.0,0.0,0.0,0.0,0.0,0.0,4.4183,4.4854,4.5261,4.5414,4.5159,4.5106,4.5568,4.565,4.5696,4.578,0.0,4.7405,4.8275,4.9146,4.9977,5.0763,5.0898,5.0627,4.9842,4.9281,4.8778,4.845,4.8411,4.8411,4.8333,4.7966,4.7599,4.7599,4.7154,4.6554,4.5962,4.5807,4.5807,4.5807,4.5807,4.5807,4.0364,4.029,3.8639,3.8389,3.9054,3.912,3.941,3.9797,3.9835,4.0364,4.1201,4.1239,4.1205,4.1116,4.0648,0.0,4.0418,4.0601,4.1089,4.1777,4.1795,4.2194,4.2882,4.2919,4.2919,4.2919,4.2919,4.252,4.1813,4.1795,4.1035,3.9623,3.9641,3.9498,3.9158,3.9354,3.9822,4.0474,3.9822,3.9477,3.9404,3.8453,3.8037,3.8201,3.8428,3.8707,3.9031,3.9341,3.9133,3.8309,3.6876,3.5691,3.4789,0.0,0.0,0.0,0.0,0.0,0.0,0.0,0.0,0.0,0.0,0.0,0.0,0.0,0.0,0.0,3.4282,0.0,3.8169,3.8469,0.0,0.0,0.0,4.1213,4.1395,4.3778,4.5444,4.5587,0.0,0.0,4.7107,4.6448,4.5983,4.5917,4.5708,4.5621,4.5889,4.6684,4.7516,4.8464,4.9277,5.0082,5.0805,5.0933,5.0709,5.0031,4.9811,4.9548,4.889,4.8716,4.865,4.8735,4.8573,4.8522,4.8503,4.8426,4.7903,4.6382,4.6007,4.5923,4.5826,4.5807,4.5807,4.0016,4.0681,4.0247,4.0494,4.1201,4.1818,4.1934,4.1693,4.1817,4.2024,4.2225,4.2383,4.2116,4.1538,4.1432,4.1378,4.1396,4.2049,4.2411,4.2611,4.2629,4.2701,4.2919,4.2919,4.2919,4.2919,4.2919,4.2792,4.2611,4.2611,4.2122,4.1234,4.1759,4.1144,3.9425,3.9949,4.0311,4.0492,4.0329,4.0036,3.9621,3.8786,3.8538,3.8927,3.8998,3.917,3.9445,3.9527,3.9489,3.9245,3.8269,3.7361,3.6528,3.417,0.0,0.0,0.0,0.0,0.0,0.0,0.0,0.0,0.0,3.5063,3.233,0.0,3.5889,0.0,3.5645,3.7279,3.912,3.9919,0.0,0.0,4.2269,4.2853,4.4802,4.4709,4.501,4.6328,4.6322,4.6221,4.6221,4.6622,4.6888,4.6868,4.6242,4.6041,4.6771,4.7624,4.8476,4.931,5.0162,5.0821,5.0988,5.1053,5.0969,5.0801,5.0743,5.0685,5.0472,5.0472,5.0453,5.0414,4.9891,4.9529,4.9465,4.8948,4.8406,4.7902,4.73,4.6573,4.5962,4.5826,4.5807,4.0118,4.0336,4.0731,4.1185,4.1666,4.2423,4.2617,4.2468,4.255,4.265,4.2747,4.2844,4.2647,4.2248,4.223,4.2248,4.2285,4.2701,4.2919,4.2919,4.2919,4.2919,4.2919,4.2919,4.2919,4.2919,4.2919,4.2919,4.2919,4.2919,4.2683,4.2248,4.2665,4.2267,4.1035,4.1361,4.1615,4.1759,4.1395,4.0736,3.9737,3.9371,3.9165,3.9064,3.9142,3.9264,3.9419,3.954,3.942,3.9026,3.8563,3.7943,3.7129,3.5465,3.4301,0.0,0.0,0.0,0.0,0.0,0.0,0.0,0.0,0.0,0.0,0.0,3.7434,3.6964,3.8124,3.9611,4.1278,4.1886,4.2728,4.3983,4.382,4.4186,4.5712,4.5266,4.5266,4.6275,4.6126,4.6088,4.6496,4.6936,4.7402,4.7751,4.7408,4.726,4.7734,4.8522,4.9278,4.9744,5.0538,5.1081,5.1081,5.1081,5.1081,5.1081,5.1081,5.1081,5.1081,5.1081,5.1081,5.1062,5.0693,5.0383,5.0364,5.0015,4.9569,4.9104,4.867,4.7868,4.6687,4.6125,4.5848,4.0467,4.0027,4.0741,4.1202,4.1477,4.2107,4.2472,4.2649,4.2631,4.2728,4.2919,4.2919,4.2919,4.2919,4.2919,4.2919,4.2919,4.2919,4.2919,4.2919,4.2919,4.2919,4.2919,4.2919,4.2919,4.2919,4.2939,4.2957,4.2939,4.2995,4.2995,4.3013,4.3013,4.3032,4.3069,4.3013,4.3069,4.3249,4.248,4.1454,4.0097,4.0105,3.983,3.9197,3.9217,3.9269,3.9251,3.947,3.9251,3.8525,3.8469,3.815,3.7448,3.6554,3.6066,0.0,3.5146,0.0,0.0,0.0,0.0,0.0,0.0,0.0,0.0,3.8235,3.9185,4.0049,4.0976,4.2162,4.3706,4.3869,4.4192,4.4957,4.5083,4.5164,4.5361,4.5554,4.5761,4.5887,4.605,4.6463,4.7137,4.7453,4.7958,4.8633,4.8885,4.8932,4.8923,4.9395,4.9802,4.9931,5.0629,5.1121,5.1121,5.1114,5.1095,5.1114,5.1114,5.1114,5.1114,5.1114,5.1114,5.1114,5.1075,5.1075,5.1114,5.1075,5.0823,5.0112,4.9821,4.9117,4.7553,4.6616,4.6054,4.0998,4.1304,4.1244,4.1565,4.2074,4.2575,4.2806,4.2825,4.2862,4.2863,4.2919,4.2919,4.2919,4.2919,4.2919,4.2919,4.2919,4.2919,4.2919,4.2919,4.2919,4.2919,4.2919,4.2919,4.2919,4.2919,4.3142,4.3214,4.3232,4.3442,4.3545,4.3545,4.3545,4.3644,4.3857,0.0,0.0,0.0,4.2393,4.2067,4.1936,4.0904,4.0374,4.0437,3.9839,0.0,3.9527,3.9583,3.9533,3.9364,3.9364,0.0,0.0,0.0,0.0,0.0,0.0,0.0,0.0,0.0,0.0,0.0,3.9232,3.8877,3.8354,4.0303,4.1703,4.1897,4.2708,4.363,4.4585,4.4763,4.5163,4.5912,4.557,4.5351,4.559,4.5684,4.5771,4.5958,4.6588,4.7104,4.7395,4.8502,4.944,4.9654,5.027,5.0672,5.0641,5.0194,5.0155,5.0777,5.1081,5.1178,5.1184,5.1178,5.1178,5.1204,5.1184,5.1178,5.1198,5.1198,5.1178,5.1198,5.1184,5.1178,5.1178,5.1184,5.112,5.0951,5.0388,4.9347,4.7585,4.7088,4.6758,4.1647,0.0,4.1504,4.17,0.0,4.2692,4.2919,4.2919,4.2919,4.2919,4.2919,4.2919,4.2919,4.2919,4.2919,4.2919,4.2919,4.2919,4.2919,4.2919,4.2919,4.2919,4.2919,4.2919,4.2919,4.2919,4.3032,4.3087,4.3105,4.3373,4.3511,4.3511,4.3629,4.3761,4.3908,4.3761,4.3543,4.3303,4.3155,4.2963,4.2684,4.2136,4.1499,4.0835,4.0403,0.0,0.0,0.0,0.0,0.0,0.0,0.0,0.0,0.0,0.0,3.8312,3.7562,3.7517,3.8384,3.8515,3.9318,4.1002,4.1589,4.1464,4.0499,4.2117,4.3141,4.316,4.3958,4.4657,4.5045,4.5159,4.5363,4.5745,4.5568,4.5476,4.5676,4.5761,4.6035,4.6571,4.704,4.7589,4.8483,4.9304,5.0062,5.0484,5.0911,5.1202,5.1183,5.0833,5.0736,5.1125,5.1202,5.1222,5.1202,5.1202,5.1202,5.1222,5.1202,5.1202,5.1202,5.1202,5.1202,5.1202,5.1202,5.1202,5.1202,5.1202,5.1202,5.1183,5.0853,5.0128,4.8792,4.8204,4.779,4.2295,4.1963,4.1777,4.1841,4.2115,4.2655,4.2919,4.2919,0.0,0.0,0.0,4.2919,4.2919,4.2919,4.2919,4.2919,4.2919,4.2919,4.2919,4.2919,4.2919,4.2919,4.2919,4.2919,4.2919,4.2919,4.2957,4.2994,4.2976,4.3232,4.339,4.3441,4.3662,4.3793,4.3844,4.3825,4.3825,4.3841,4.3999,4.3793,4.3144,4.3226,4.2637,4.1267,4.1079,4.0628,3.9833,3.9815,3.942,3.8601,3.9232,3.9357,3.8843,3.9432,3.9896,4.0076,4.013,4.0483,4.1229,4.1378,4.1805,4.2644,4.3607,4.3721,4.2735,4.3558,4.4146,4.4138,4.4853,4.5277,4.5277,4.5277,4.5277,4.5288,4.5409,4.5522,4.5684,4.5945,4.641,4.7154,4.7589,4.8269,4.9615,5.0023,5.0367,5.1008,5.1183,5.1202,5.1202,5.1163,5.1144,5.1202,5.1202,5.1202,5.1202,5.1202,5.1202,5.1202,5.1202,5.1202,5.1202,5.1202,5.1202,5.1202,5.1202,5.1202,5.1202,5.1202,5.1202,5.1202,5.1202,5.1008,5.0289,4.9576,4.8977,4.2838,4.226,4.238,4.2118,4.1674,4.2537,4.2919,4.2919,4.2919,4.2919,4.2919,4.2919,4.2919,4.2919,4.2919,4.2919,4.2919,4.2919,4.2919,4.2919,4.2919,4.2919,4.2919,4.2919,4.2919,4.292,4.3142,4.3268,4.3267,4.3511,4.3779,4.3952,4.403,4.4155,4.4368,4.4397,4.4383,4.4383,4.4199,4.4035,4.3923,4.3521,4.32,4.2938,4.2211,4.146,4.0685,4.0647,4.0253,3.9477,3.9533,3.9895,4.0575,4.061,4.1042,4.1919,4.1886,4.2028,4.2346,4.2417,4.2802,4.3706,4.4597,4.4717,4.3808,4.4543,4.5104,4.5104,4.522,4.5277,4.5277,4.5277,4.5277,4.5277,4.5328,4.5438,4.5714,4.6329,4.6909,4.7392,4.8658,4.9518,4.9926,5.0542,5.0989,5.1163,5.1202,5.1202,5.1202,5.1202,5.1202,5.1202,5.1202,5.1202,5.1202,5.1202,5.1202,5.1202,5.1202,5.1202,5.1202,5.1202,5.1202,5.1202,5.1202,5.1202,5.1202,5.1202,5.1202,5.1202,5.1202,5.1105,5.093,5.0755,5.0283,4.3345,4.3185,4.2511,4.2316,4.2494,4.2776,4.2919,4.2919,4.2919,4.2919,4.2919,4.2919,4.2919,4.2919,4.2919,4.2919,4.2919,4.2919,4.2919,4.2919,4.2919,4.2919,4.2919,4.2919,4.2919,4.2901,4.3014,4.3087,4.3124,4.3355,4.3597,4.3779,4.4067,4.4233,4.4292,4.4426,4.4524,4.4605,4.4407,4.4306,4.4321,4.4148,4.3847,4.3414,4.3,4.2416,4.1607,4.1493,4.1311,4.1004,4.1017,4.1235,4.1706,4.1697,4.1891,4.2348,4.2416,4.269,4.3276,4.3778,4.4232,4.4685,4.5048,4.5133,4.4698,4.5065,4.5277,4.5277,4.5277,4.5277,4.5277,4.5277,4.5277,4.5277,4.536,4.5658,4.6254,4.6696,4.7435,4.8518,4.9382,5.0081,5.0561,5.095,5.1202,5.1202,5.1202,5.1202,5.1202,5.1202,5.1202,5.1202,5.1202,5.1202,5.1202,5.1202,5.1202,5.1202,5.1202,5.1202,5.1202,5.1202,5.1202,5.1202,5.1202,5.1202,5.1202,5.1202,5.1202,5.1202,5.1202,5.1202,5.1202,5.1202,5.0891,4.3756,4.3829,4.2848,4.2731,4.3265,4.2899,4.2806,4.2882,4.2919,4.2919,4.2919,4.2919,4.2919,4.2919,4.2919,4.2919,4.2919,4.2919,4.2919,4.2919,4.2919,4.2919,4.2919,4.2919,4.2919,4.2919,4.2919,4.2919,4.292,4.3142,4.3357,4.3565,4.4085,4.4296,4.4199,4.4449,4.4627,4.4719,4.4646,4.4578,4.4592,4.4699,4.4461,4.387,4.3819,4.3416,4.2591,4.2435,4.2347,4.2258,4.2252,4.2406,4.2705,4.2712,4.28,4.3027,4.314,4.3469,4.4168,4.4891,4.5277,4.5277,4.5277,4.5277,4.5277,4.5277,4.5277,4.5277,4.5277,4.5317,4.5339,4.5339,4.535,4.539,4.5476,4.5918,4.6773,4.72,4.8012,4.9579,5.0081,5.0484,5.1008,5.1202,5.1202,5.1202,5.1202,5.1202,5.1202,5.1202,5.1202,5.1202,5.1202,5.1202,5.1202,5.1202,5.1202,5.1202,5.1202,5.1202,5.1202,5.1202,5.1202,5.1202,5.1202,5.1202,5.1202,5.1202,5.1202,5.1202,5.1202,5.1202,5.1202,5.1202,5.1202,4.4073,4.3556,4.3734,4.365,4.3198,4.2557,4.2516,4.2863,4.2919,4.2919,4.2919,4.2919,4.2919,4.2919,4.2919,4.2919,4.2919,4.2919,4.2919,4.2919,4.2919,4.2919,4.2919,4.2919,4.2919,4.2919,4.2919,4.2919,4.2919,4.3068,4.3286,4.3631,4.4185,4.4468,4.4496,4.4719,4.4877,4.487,4.4858,4.4877,4.4858,4.487,4.4852,4.4776,4.4757,4.439,4.3587,4.3538,4.3197,4.2469,4.2431,4.283,4.3623,4.365,4.4019,4.49,4.4892,4.4976,4.5123,4.5258,4.5277,4.5277,4.5277,4.5277,4.5277,4.5277,4.5277,4.5277,4.5277,4.5339,4.5477,4.5476,4.5522,4.5627,4.5698,4.6047,4.7013,4.7791,4.871,4.9759,5.0581,5.1125,5.1183,5.1202,5.1202,5.1202,5.1202,5.1202,5.1202,5.1208,5.1208,5.1208,5.1202,5.1202,5.1202,5.1202,5.1202,5.1202,5.1202,5.1202,5.1202,5.1202,5.1202,5.1202,5.1202,5.1202,5.1202,5.1202,5.1202,5.1202,5.1202,5.1202,5.1202,5.1202,5.1202,4.4412,4.4107,4.3817,4.3201,4.2538,4.2707,4.2708,4.2516,4.2787,4.2919,4.2919,4.2919,4.2919,4.2919,4.2919,4.2919,4.2919,4.2919,4.2919,4.2919,4.2919,4.2919,4.2919,4.2919,4.2919,4.2919,4.2919,4.2938,4.3031,4.3215,4.3323,4.341,4.3846,4.4147,4.4273,4.4532,4.4783,4.5003,4.5014,4.5068,4.5125,4.5068,4.5014,4.5003,4.5033,4.4881,4.4558,4.4462,4.4279,4.4026,4.4,4.4197,4.4717,4.4685,4.4848,4.5258,4.5254,4.5254,4.5277,4.5277,4.5277,4.5277,4.5277,4.5277,4.5277,4.5277,4.5277,4.5277,4.5277,4.535,4.5476,4.5504,4.5538,4.5734,4.6113,4.6797,4.7764,4.8618,4.9569,5.0511,5.0969,5.1202,5.1202,5.1202,5.1202,5.1202,5.1202,5.1202,5.1202,5.1211,5.1214,5.1214,5.1214,5.1217,5.1214,5.1202,5.1202,5.1202,5.1202,5.1202,5.1202,5.1202,5.1202,5.1202,5.1202,5.1202,5.1202,5.1202,5.1202,5.1208,5.1202,5.1208,5.1208,5.1206,5.1208,4.4598,4.4479,4.3758,4.3158,4.2794,4.3225,4.317,4.2795,4.3093,4.31,4.2919,4.2919,4.2919,4.2919,4.2919,4.2919,4.2919,4.2919,4.2919,4.2919,4.2919,4.2919,4.2919,4.2919,4.2919,4.2938,4.2956,4.3031,4.316,4.3323,4.3376,4.3358,4.3667,4.3958,4.4177,4.4458,4.4777,4.5125,4.5159,4.5203,4.5275,4.5203,4.5159,4.514,4.5159,4.5159,4.5148,4.5049,4.5038,4.5148,4.5159,4.5192,4.5297,4.5277,4.5277,4.5277,4.5277,4.5277,4.5277,4.5277,4.5277,4.5277,4.5277,4.5277,4.5277,4.5277,4.5277,4.5277,4.5277,4.536,4.5531,4.575,4.5943,4.6143,4.6868,4.7756,4.871,4.9414,5.0106,5.1016,5.1183,5.1202,5.1202,5.1202,5.1202,5.1202,5.1202,5.1208,5.1206,5.1205,5.1211,5.1205,5.123,5.1211,5.1217,5.1208,5.1202,5.1202,5.1202,5.1202,5.1202,5.1202,5.122,5.1211,5.1206,5.1222,5.1249,5.1244,5.1228,5.1233,5.1233,5.1244,5.122,5.1234,5.1228,4.4598,4.4468,4.3741,4.3915,4.4692,4.4085,4.3885,4.3906,4.4022,4.3625,4.3028,4.2973,4.2937,4.2919,4.2919,4.2919,4.2919,4.2919,4.2919,4.2919,4.2919,4.2919,4.2919,4.2919,4.2975,4.3049,4.3086,4.3178,4.3359,4.3394,4.3429,4.3496,4.3798,4.4106,4.4374,4.4612,4.4946,4.5235,4.5256,4.5297,4.5277,4.5277,4.5267,4.5286,4.5286,4.5286,4.5286,4.5286,4.5286,4.5297,4.5286,4.5297,4.5277,4.5277,4.5277,4.5277,4.5277,4.5277,4.5277,4.5277,4.5277,4.5277,4.5277,4.5277,4.5277,4.5277,4.5277,4.5277,4.5277,4.54,4.5797,4.6331,4.6839,4.7222,4.7994,4.8854,4.9681,4.9845,5.0283,5.0989,5.1202,5.1202,5.1202,5.1202,5.1202,5.1202,5.1202,5.122,5.121,5.1206,5.1234,5.1265,5.1273,5.1261,5.1235,5.1224,5.1225,5.1225,5.1222,5.1214,5.1202,5.1208,5.1222,5.1224,5.122,5.1244,5.128,5.1288,5.1284,5.128,5.1295,5.1284,5.1292,5.1292,5.1272,4.4598,4.4592,4.4609,4.4569,4.4493,4.4847,4.4773,4.4471,4.4757,4.4403,4.3771,4.368,4.339,4.2919,4.2919,4.2919,4.2919,4.2919,4.2919,4.2919,4.2919,4.2919,4.2919,4.2919,4.2957,4.3068,4.3104,4.3196,4.3376,4.3446,4.348,4.3515,4.3615,4.3921,4.4327,4.4493,4.4801,4.5235,4.5277,4.5277,4.5277,4.5277,4.5277,4.5277,4.5277,4.5277,4.5277,4.5277,4.5277,4.5277,4.5277,4.5277,4.5277,4.5277,4.5277,4.5277,4.5277,4.5277,4.5277,4.5277,4.5277,4.5277,4.5277,4.5277,4.5277,4.5277,4.5277,4.5277,4.5277,4.5601,4.6309,4.675,4.7236,4.8054,4.8891,4.9557,4.9926,5.0367,5.0872,5.1125,5.1202,5.1202,5.1202,5.1202,5.1202,5.1202,5.1202,5.1211,5.1201,5.1234,5.1292,5.1346,5.1375,5.1353,5.1342,5.128,5.1273,5.1254,5.1254,5.1273,5.1264,5.1259,5.1258,5.1267,5.1276,5.1284,5.1312,5.1316,5.1319,5.1353,5.133,5.133,5.1353,5.133,5.1308,4.4598,4.4654,4.4944,4.4974,4.491,4.5517,4.5593,4.5254,4.5549,4.5236,4.4584,4.4476,4.4168,4.3698,4.3426,4.33,4.3245,4.3046,4.2919,4.2919,4.2919,4.2919,4.2919,4.2919,4.2975,4.3104,4.3178,4.3287,4.3429,4.348,4.3479,4.3496,4.3479,4.3744,4.4188,4.436,4.4675,4.5076,4.5246,4.5277,4.5277,4.5277,4.5277,4.5277,4.5277,4.5277,4.5277,4.5277,4.5277,4.5277,4.5277,4.5277,4.5277,4.5277,4.5277,4.5277,4.5277,4.5277,4.5277,4.5277,4.5277,4.5277,4.5277,4.5277,4.5277,4.5277,4.5277,4.5277,4.5326,4.5802,4.6945,4.7328,4.7777,4.8875,4.9809,5.0314,5.0353,5.0833,5.1144,5.1202,5.1202,5.1202,5.1202,5.1202,5.1208,5.1206,5.1211,5.1219,5.1267,5.13,5.1353,5.1403,5.1389,5.1389,5.1383,5.1366,5.1324,5.132,5.1296,5.1304,5.1308,5.1308,5.1312,5.1335,5.1342,5.1326,5.133,5.1336,5.1346,5.1383,5.1383,5.1364,5.138,5.1355,5.134,4.4598,4.4598,4.4615,4.5178,4.5838,4.6066,4.6267,4.6392,4.6463,4.6069,4.5363,4.5309,4.5218,4.5037,4.4367,4.4095,4.3878,4.3317,4.2973,4.2919,4.2919,4.2919,4.2919,4.2919,4.2975,4.3105,4.3305,4.3429,4.3497,4.3479,4.3479,4.3479,4.3479,4.3682,4.4002,4.4294,4.4533,4.4843,4.5151,4.5277,4.5277,4.5277,4.5277,4.5277,4.5277,4.5277,4.5277,4.5277,4.5277,4.5277,4.5277,4.5277,4.5277,4.5277,4.5277,4.5277,4.5277,4.5277,4.5277,4.5277,4.5277,4.5277,4.5277,4.5277,4.5277,4.5277,4.5277,4.5277,4.5451,4.6109,4.7703,4.8166,4.8674,4.9774,5.06,5.1027,5.1105,5.1163,5.1202,5.1202,5.1202,5.1202,5.1202,5.1214,5.1211,5.1215,5.1211,5.1258,5.1346,5.1382,5.1383,5.1403,5.1564,5.1737,5.1585,5.1429,5.14,5.1388,5.1342,5.1323,5.1333,5.1333,5.1343,5.1369,5.1375,5.1358,5.1369,5.1372,5.1377,5.1386,5.1386,5.1384,5.1381,5.1377,5.1372,4.4598,4.4637,4.4944,4.5241,4.5648,4.6334,4.6702,4.6815,4.7132,4.6866,4.6232,4.6124,4.5816,4.5345,4.5019,4.4621,4.4095,4.3806,4.3425,4.2992,4.2919,4.2919,4.2919,4.2919,4.2994,4.316,4.3323,4.3429,4.3479,4.3479,4.3479,4.3479,4.3479,4.3682,4.3971,4.426,4.4533,4.4788,4.5121,4.5277,4.5277,4.5277,4.5277,4.5277,4.5277,4.5277,4.5277,4.5277,4.5277,4.5277,4.5277,4.5277,4.5277,4.5277,4.5277,4.5277,4.5277,4.5277,4.5277,4.5277,4.5277,4.5277,4.5277,4.5277,4.5277,4.5277,4.5277,4.5373,4.5804,4.6741,4.7945,4.8784,4.9525,5.066,5.1047,5.1202,5.1202,5.1202,5.1202,5.1202,5.1202,5.122,5.1214,5.12,5.122,5.1267,5.1261,5.1304,5.1382,5.1397,5.1386,5.1408,5.1783,5.2058,5.1882,5.1765,5.1752,5.1598,5.1456,5.1352,5.1339,5.1341,5.1389,5.1394,5.1399,5.1384,5.139,5.1394,5.1394,5.1394,5.139,5.1392,5.1394,5.139,5.1386,4.4598,4.4626,4.4934,4.5152,4.5381,4.6262,4.673,4.6954,4.745,4.7407,4.7011,4.6939,4.6685,4.6196,4.5888,4.5291,4.4566,4.4278,4.3661,4.301,4.2919,4.2919,4.2919,4.2919,4.3013,4.3196,4.3286,4.3394,4.3479,4.3479,4.3479,4.3479,4.3479,4.3582,4.3812,4.4121,4.4388,4.4669,4.4946,4.5173,4.5267,4.5277,4.5277,4.5277,4.5277,4.5277,4.5277,4.5277,4.5277,4.5277,4.5277,4.5277,4.5277,4.5277,4.5277,4.5277,4.5277,4.5277,4.5277,4.5277,4.5277,4.5277,4.5277,4.5277,4.5277,4.5277,4.5277,4.5392,4.6003,4.6941,4.7998,4.8943,4.9935,5.0992,5.1159,5.1196,5.1202,5.1202,5.1202,5.1202,5.1202,5.1211,5.121,5.1211,5.1258,5.1304,5.1342,5.1336,5.14,5.1391,5.1384,5.1449,5.1666,5.1902,5.2097,5.2117,5.2136,5.1878,5.1603,5.1462,5.1384,5.1384,5.1388,5.1386,5.1388,5.1388,5.1394,5.1394,5.1394,5.1394,5.1394,5.1394,5.1394,5.1394,5.139,4.4598,4.4598,4.4598,4.4852,4.5267,4.5825,4.6334,4.6845,4.7385,4.7618,4.7624,4.7591,4.7609,4.7464,4.6703,4.5924,4.5254,4.4421,4.3661,4.31,4.2919,4.2919,4.2919,4.2919,4.3013,4.3178,4.3214,4.3304,4.3479,4.3479,4.3479,4.3479,4.3479,4.3479,4.3615,4.3828,4.4166,4.4438,4.4688,4.4981,4.5267,4.5277,4.5277,4.5277,4.5277,4.5277,4.5277,4.5277,4.5277,4.5277,4.5277,4.5277,4.5277,4.5277,4.5277,4.5277,4.5277,4.5277,4.5277,4.5277,4.5277,4.5277,4.5277,4.5277,4.5277,4.5277,4.5373,4.5526,4.6214,4.7072,4.8078,4.9056,5.0005,5.0804,5.1128,5.1196,5.1202,5.1202,5.1202,5.1202,5.1202,5.1211,5.1215,5.1225,5.1292,5.1359,5.1397,5.1389,5.1401,5.1388,5.1392,5.1511,5.1687,5.1999,5.2273,5.2273,5.2292,5.2156,5.1804,5.1492,5.1394,5.1394,5.1394,5.1394,5.1394,5.1394,5.1394,5.1394,5.1394,5.1394,5.1394,5.1394,5.1394,5.1394,5.1394,4.4598,4.4598,4.4598,4.4665,4.4852,4.5311,4.5825,4.6358,4.6886,4.7363,4.7636,4.7699,4.7699,4.7609,4.6848,4.6069,4.5273,4.4458,4.3661,4.301,4.2919,4.2919,4.2919,4.2919,4.3013,4.3178,4.3214,4.3304,4.3479,4.3479,4.3479,4.3479,4.3479,4.3479,4.3548,4.3812,4.4136,4.4402,4.465,4.4946,4.5235,4.5277,4.5277,4.5277,4.5277,4.5277,4.5277,4.5277,4.5277,4.5277,4.5277,4.5277,4.5277,4.5277,4.5277,4.5277,4.5277,4.5277,4.5277,4.5277,4.5277,4.5277,4.5277,4.5277,4.5277,4.5277,4.5583,4.6118,4.6959,4.7826,4.8806,4.9692,5.042,5.0879,5.1121,5.1202,5.1202,5.1202,5.1202,5.1202,5.1217,5.1225,5.1272,5.1308,5.134,5.1374,5.1384,5.1384,5.1392,5.1394,5.1394,5.1648,5.1882,5.2214,5.245,5.245,5.2431,5.237,5.1999,5.1433,5.1394,5.1394,5.1394,5.1394,5.1394,5.1394,5.1394,5.1394,5.1394,5.1394,5.1394,5.1394,5.1394,5.1394,5.1394,4.4598,4.4598,4.4598,4.4598,4.4654,4.5098,4.5597,4.6123,4.6642,4.7214,4.7615,4.7699,4.7699,4.7627,4.6866,4.6069,4.5273,4.4458,4.3661,4.3028,4.2919,4.2919,4.2919,4.2919,4.2994,4.3142,4.3178,4.3304,4.3428,4.348,4.3479,4.3479,4.3479,4.3479,4.3515,4.3682,4.3921,4.4202,4.4493,4.4782,4.5057,4.5235,4.5277,4.5277,4.5277,4.5277,4.5277,4.5277,4.5277,4.5277,4.5277,4.5277,4.5277,4.5277,4.5277,4.5277,4.5277,4.5277,4.5277,4.5277,4.5277,4.5277,4.5277,4.5277,4.5277,4.5297,4.564,4.6405,4.7292,4.8198,4.9137,5.0037,5.0631,5.0963,5.1102,5.1196,5.1222,5.1202,5.1214,5.1217,5.121,5.1239,5.1335,5.1382,5.1389,5.1386,5.1392,5.1392,5.1394,5.1394,5.1414,5.1609,5.1707,5.1902,5.1999,5.1999,5.2019,5.2038,5.198,5.1433,5.1394,5.1394,5.1394,5.1394,5.1394,5.1394,5.1394,5.1394,5.1394,5.1394,5.1394,5.1394,5.1394,5.1394,5.1394,4.4598,4.4598,4.4598,4.4598,4.4665,4.5062,4.5477,4.6024,4.6525,4.7062,4.7511,4.7675,4.7699,4.7624,4.6866,4.6106,4.5417,4.453,4.368,4.3118,4.2919,4.2919,4.2919,4.2919,4.2957,4.3086,4.316,4.3287,4.3394,4.3463,4.3479,4.3479,4.3479,4.3479,4.3496,4.3532,4.3701,4.3983,4.425,4.4552,4.4831,4.5087,4.5213,4.5277,4.5277,4.5277,4.5277,4.5277,4.5277,4.5277,4.5277,4.5277,4.5277,4.5277,4.5277,4.5277,4.5277,4.5277,4.5277,4.5277,4.5277,4.5277,4.5277,4.5277,4.5316,4.546,4.5908,4.6729,4.7425,4.8422,4.9269,5.0163,5.0638,5.0914,5.1075,5.1178,5.1216,5.1202,5.12,5.1215,5.1201,5.1284,5.1346,5.1397,5.1391,5.139,5.1394,5.1394,5.1394,5.1394,5.1394,5.1433,5.1472,5.1433,5.1472,5.1472,5.1511,5.155,5.1609,5.1394,5.1394,5.1394,5.1394,5.1394,5.1394,5.1394,5.1394,5.1394,5.1394,5.1394,5.1394,5.1394,5.1394,5.1394,5.1394,4.4598,4.4598,4.4598,4.4598,4.4598,4.4703,4.5052,4.5537,4.6049,4.6613,4.7084,4.7493,4.7678,4.7642,4.6902,4.6377,4.5979,4.4784,4.368,4.2992,4.2919,4.2919,4.2919,4.2919,4.2957,4.3086,4.316,4.3269,4.3376,4.3445,4.3479,4.3479,4.3479,4.3479,4.3479,4.3496,4.3684,4.3958,4.4079,4.4318,4.4676,4.4868,4.5076,4.5256,4.5277,4.5277,4.5277,4.5277,4.5277,4.5277,4.5277,4.5277,4.5277,4.5277,4.5277,4.5277,4.5277,4.5277,4.5277,4.5277,4.5277,4.5277,4.5277,4.5297,4.5364,4.5889,4.6577,4.7455,4.8315,4.9079,4.9847,5.0281,5.0596,5.0786,5.0944,5.1108,5.1184,5.1202,5.1214,5.1217,5.124,5.1292,5.1335,5.1389,5.1403,5.1392,5.1394,5.1394,5.1394,5.1394,5.1394,5.1394,5.1394,5.1394,5.1394,5.1394,5.1394,5.1394,5.1394,5.1394,5.1394,5.1394,5.1394,5.1394,5.1394,5.1394,5.1394,5.1394,5.1394,5.1394,5.1394,5.1394,5.1394,5.1394,5.1394,4.4598,4.4598,4.4598,4.4598,4.4598,4.4598,4.4879,4.5346,4.5893,4.6406,4.6931,4.7468,4.7678,4.7627,4.6902,4.6504,4.6124,4.4856,4.3661,4.3064,4.2919,4.2919,4.2919,4.2957,4.3012,4.3123,4.316,4.3269,4.3376,4.3464,4.3479,4.3479,4.3479,4.3479,4.3479,4.3479,4.3582,4.3747,4.3942,4.4151,4.4388,4.4688,4.4957,4.5235,4.5277,4.5277,4.5277,4.5277,4.5277,4.5277,4.5277,4.5277,4.5277,4.5277,4.5277,4.5277,4.5277,4.5277,4.5277,4.5277,4.5277,4.5277,4.5277,4.5545,4.5774,4.629,4.7111,4.8105,4.885,4.9415,5.018,5.0421,5.0548,5.0707,5.0871,5.1048,5.1172,5.1202,5.1214,5.1228,5.1258,5.13,5.134,5.1394,5.1388,5.1394,5.1394,5.1394,5.1394,5.1394,5.1394,5.1394,5.1394,5.1394,5.1394,5.1394,5.1394,5.1394,5.1394,5.1394,5.1394,5.1394,5.1394,5.1394,5.1394,5.1394,5.1394,5.1394,5.1394,5.1394,5.1394,5.1394,5.1394,5.1394,5.1394,4.4598,4.4598,4.4598,4.4598,4.4598,4.4598,4.4814,4.5214,4.5767,4.6213,4.6799,4.7323,4.7554,4.7533,4.7065,4.6685,4.6124,4.511,4.3987,4.33,4.3226,4.31,4.301,4.3157,4.3231,4.3141,4.3215,4.3305,4.3412,4.3463,4.3479,4.3479,4.3479,4.3479,4.3479,4.3479,4.3513,4.3582,4.3747,4.3958,4.4106,4.4479,4.4887,4.5235,4.5277,4.5277,4.5277,4.5277,4.5277,4.5277,4.5277,4.5277,4.5277,4.5277,4.5277,4.5277,4.5277,4.5277,4.5277,4.5277,4.5277,4.5277,4.5277,4.5698,4.6252,4.6729,4.7551,4.8487,4.9301,4.9633,5.0218,5.0385,5.0517,5.0662,5.0839,5.1007,5.1134,5.119,5.1206,5.122,5.1267,5.1308,5.1346,5.1396,5.1388,5.1394,5.1394,5.1394,5.1394,5.1394,5.1394,5.1394,5.1394,5.1394,5.1394,5.1394,5.1394,5.1394,5.1394,5.1394,5.1394,5.1394,5.1394,5.1394,5.1394,5.1394,5.1394,5.1394,5.1394,5.1394,5.1394,5.1394,5.1394,5.1394,5.1394,4.4598,4.4598,4.4598,4.4598,4.4598,4.4598,4.4637,4.4786,4.5267,4.5724,4.6244,4.6817,4.7302,4.7521,4.7609,4.7138,4.6377,4.5381,4.4603,4.3969,4.3824,4.357,4.3318,4.3718,4.3703,4.3324,4.3359,4.3486,4.3429,4.3463,4.3479,4.3479,4.3479,4.3479,4.3479,4.3479,4.3479,4.3479,4.3599,4.3732,4.3968,4.4318,4.4745,4.5184,4.5267,4.5277,4.5277,4.5277,4.5277,4.5277,4.5277,4.5277,4.5277,4.5277,4.5277,4.5277,4.5277,4.5277,4.5277,4.5277,4.5277,4.5277,4.5277,4.5717,4.6462,4.7169,4.799,4.8907,4.971,5.013,5.0264,5.0329,5.0399,5.0518,5.0662,5.0827,5.1007,5.1128,5.12,5.1201,5.1252,5.1312,5.1343,5.1389,5.1384,5.1392,5.1394,5.1394,5.1394,5.1394,5.1394,5.1394,5.1394,5.1394,5.1394,5.1394,5.1394,5.1394,5.1394,5.1394,5.1394,5.1394,5.1394,5.1394,5.1394,5.1394,5.1394,5.1394,5.1394,5.1394,5.1394,5.1394,5.1394,5.1394,5.1394,4.4598,4.4598,4.4598,4.4598,4.4598,4.4598,4.4598,4.4665,4.5098,4.5416,4.5875,4.6501,4.7022,4.7302,4.7615,4.7244,4.6486,4.5653,4.5091,4.4693,4.4295,4.4222,4.4079,4.4625,4.4358,4.4053,4.3962,4.3777,4.35,4.348,4.3479,4.3479,4.3479,4.3479,4.3479,4.3479,4.3479,4.3479,4.3496,4.3565,4.3779,4.4143,4.4643,4.4953,4.5224,4.5277,4.5277,4.5277,4.5277,4.5277,4.5277,4.5277,4.5277,4.5277,4.5277,4.5277,4.5277,4.5277,4.5277,4.5277,4.5277,4.5277,4.5277,4.5946,4.6844,4.7646,4.843,4.9423,4.992,5.0302,5.0302,5.0302,5.0374,5.0466,5.0567,5.0726,5.0941,5.1048,5.1126,5.1166,5.1225,5.1265,5.1319,5.1352,5.1379,5.1388,5.1392,5.1394,5.1394,5.1394,5.1394,5.1394,5.1394,5.1394,5.1394,5.1394,5.1394,5.1394,5.1394,5.1394,5.1394,5.1394,5.1394,5.1394,5.1394,5.1394,5.1394,5.1394,5.1394,5.1394,5.1394,5.1394,5.1394,5.1394,5.1394,4.4598,4.4598,4.4598,4.4598,4.4598,4.4598,4.4598,4.4665,4.4998,4.5214,4.5407,4.6165,4.666,4.6999,4.7353,4.7355,4.6667,4.5943,4.5599,4.5454,4.5019,4.4965,4.5204,4.5499,4.5251,4.4345,4.4437,4.4216,4.3609,4.3479,4.3479,4.3479,4.3479,4.3479,4.3479,4.3479,4.3479,4.3479,4.3479,4.3496,4.373,4.4114,4.4533,4.4807,4.514,4.5277,4.5277,4.5277,4.5277,4.5277,4.5277,4.5277,4.5277,4.5277,4.5277,4.5277,4.5277,4.5277,4.5277,4.5277,4.5277,4.5277,4.5277,4.6194,4.7455,4.8239,4.8953,4.9996,5.0302,5.0302,5.0302,5.0302,5.0352,5.044,5.0486,5.0606,5.085,5.0993,5.1082,5.1136,5.1185,5.1243,5.1316,5.1362,5.1391,5.1388,5.1394,5.1394,5.1394,5.1394,5.1394,5.1394,5.1394,5.1394,5.1394,5.1394,5.1394,5.1394,5.1394,5.1394,5.1394,5.1394,5.1394,5.1394,5.1394,5.1394,5.1394,5.1394,5.1394,5.1394,5.1394,5.1394,5.1394,5.1394,5.1394,4.4598,4.4598,4.4598,4.4598,4.4598,4.4598,4.4598,4.4598,4.4665,4.4917,4.5241,4.5468,4.6074,4.6822,4.7425,4.7585,4.7301,4.6667,4.6287,4.6287,4.6087,4.5761,4.56,4.6245,4.576,4.4891,4.4693,4.4161,4.3737,4.3571,4.3479,4.3479,4.3479,4.3479,4.3479,4.3479,4.3479,4.3479,4.3479,4.3615,4.3892,4.4202,4.4519,4.4795,4.5079,4.5277,4.5277,4.5277,4.5277,4.5277,4.5277,4.5277,4.5277,4.5277,4.5277,4.5277,4.5277,4.5277,4.5277,4.5277,4.5277,4.5277,4.5277,4.6214,4.7532,4.906,4.9882,5.0149,5.0302,5.0302,5.0302,5.0302,5.0325,5.0363,5.0432,5.0547,5.0735,5.0879,5.0976,5.1114,5.1173,5.1263,5.1323,5.1366,5.1383,5.1401,5.1394,5.1394,5.1392,5.1392,5.1394,5.1394,5.1394,5.1394,5.1394,5.1394,5.1394,5.1394,5.1394,5.1394,5.1394,5.1394,5.1394,5.1394,5.1394,5.1394,5.1394,5.1394,5.1394,5.1394,5.1394,5.1394,5.1394,5.1394,5.1394,4.4598,4.4598,4.4598,4.4598,4.4598,4.4598,4.4598,4.4598,4.4598,4.4737,4.4944,4.5214,4.5875,4.6776,4.7173,4.7407,4.7455,4.6902,4.6794,4.6939,4.6776,4.6558,4.6776,4.6998,4.6608,4.5762,4.5293,4.4839,4.4217,4.3664,4.3479,4.3479,4.3479,4.3479,4.3479,4.3479,4.3479,4.3479,4.3496,4.3565,4.3795,4.4129,4.4452,4.4604,4.5023,4.5235,4.5267,4.5277,4.5277,4.5277,4.5277,4.5277,4.5277,4.5277,4.5277,4.5277,4.5277,4.5277,4.5277,4.5277,4.5277,4.5297,4.5411,4.6061,4.7665,4.9232,5.0264,5.0302,5.0302,5.0302,5.0302,5.0302,5.0302,5.0317,5.0355,5.0455,5.0587,5.0724,5.0867,5.1016,5.1157,5.1225,5.1296,5.1353,5.1362,5.1349,5.1374,5.1388,5.1388,5.1386,5.139,5.1394,5.1394,5.1394,5.1394,5.1394,5.1394,5.1394,5.1394,5.1394,5.1394,5.1394,5.1394,5.1394,5.1394,5.1394,5.1394,5.1394,5.1394,5.1394,5.1394,5.1394,5.1394,5.1394,5.1394,4.4598,4.4598,4.4598,4.4598,4.4598,4.4598,4.4598,4.4598,4.4598,4.4598,4.472,4.5115,4.5843,4.659,4.6886,4.7236,4.7642,4.7065,4.721,4.7319,4.7228,4.7192,4.7373,4.7611,4.7202,4.6412,4.5729,4.5003,4.4254,4.3794,4.348,4.3479,4.3479,4.3479,4.3479,4.3479,4.3479,4.3479,4.3479,4.3496,4.3597,4.4026,4.4236,4.449,4.4814,4.5173,4.5184,4.5286,4.5277,4.5277,4.5277,4.5277,4.5277,4.5277,4.5277,4.5277,4.5277,4.5277,4.5277,4.5277,4.5277,4.5354,4.566,4.6328,4.7646,4.9194,5.0187,5.0264,5.0302,5.0302,5.0302,5.0302,5.0302,5.0302,5.0314,5.0388,5.0476,5.0606,5.0786,5.0961,5.1095,5.115,5.1215,5.1304,5.1323,5.1316,5.1343,5.1377,5.1381,5.1381,5.1386,5.139,5.1392,5.1392,5.1392,5.1392,5.1394,5.1392,5.1392,5.1392,5.139,5.1392,5.1394,5.1394,5.1392,5.1394,5.1394,5.1394,5.1394,5.1394,5.1394,5.1394,5.1394,5.1394,5.1394,4.4598,4.4598,4.4598,4.4598,4.4598,4.4598,4.4598,4.4598,4.4598,4.4598,4.4637,4.5115,4.564,4.6213,4.673,4.7191,4.7696,4.7663,4.7645,4.7663,4.7663,4.7591,4.7702,4.7526,4.7062,4.5957,4.5472,4.4692,4.3852,4.3631,4.3465,4.3497,4.3479,4.3479,4.3479,4.3479,4.3479,4.3479,4.3479,4.3479,4.3582,4.3844,4.4048,4.4181,4.4538,4.4843,4.4856,4.5121,4.5277,4.5277,4.5277,4.5277,4.5277,4.5277,4.5277,4.5277,4.5277,4.5277,4.5277,4.5277,4.5277,4.5507,4.6042,4.6787,4.7761,4.8659,4.95,5.0206,5.0283,5.0302,5.0302,5.0302,5.0302,5.0302,5.0314,5.0352,5.0432,5.0497,5.0681,5.0902,5.1023,5.1082,5.1147,5.123,5.1295,5.1272,5.1307,5.1366,5.1374,5.1377,5.1381,5.1386,5.1386,5.1388,5.139,5.1388,5.1377,5.1379,5.1384,5.1384,5.1384,5.1388,5.1386,5.1388,5.1386,5.139,5.1394,5.1394,5.1394,5.1394,5.1394,5.1394,5.1394,5.1394,5.1394,4.4598,4.4598,4.4598,4.4598,4.4598,4.4598,4.4598,4.4598,4.4598,4.4598,4.4626,4.5089,4.5571,4.6123,4.666,4.7191,4.7636,4.7699,4.7699,4.7699,4.7699,4.7699,4.7611,4.7213,4.6656,4.5971,4.5323,4.4671,4.4071,4.3578,4.3448,4.3446,4.348,4.3479,4.3479,4.3479,4.3479,4.3479,4.3479,4.3479,4.3565,4.3814,4.4005,4.4051,4.4506,4.4763,4.4856,4.514,4.5246,4.5277,4.5267,4.5267,4.5277,4.5277,4.5277,4.5316,4.5316,4.5335,4.5277,4.5277,4.5277,4.5583,4.6443,4.7406,4.7845,4.8984,4.9767,5.0225,5.0302,5.0302,5.0302,5.0302,5.0302,5.0302,5.0314,5.034,5.0385,5.0442,5.0557,5.0778,5.091,5.1009,5.1088,5.1164,5.1205,5.124,5.1296,5.1327,5.1336,5.1361,5.1364,5.1364,5.1361,5.1386,5.1389,5.1364,5.1355,5.1364,5.1391,5.1366,5.1364,5.1389,5.1389,5.1391,5.1394,5.1396,5.1403,5.139,5.1394,5.1394,5.1394,5.1394,5.1394,5.1394,5.1394,4.4598,4.4598,4.4598,4.4598,4.4598,4.4598,4.4598,4.4598,4.4598,4.4598,4.4654,4.5115,4.5614,4.614,4.666,4.7173,4.7575,4.7699,4.7699,4.7699,4.7699,4.7699,4.7428,4.6975,4.6398,4.5927,4.5007,4.4158,4.3816,4.3524,4.3431,4.3428,4.3463,4.3479,4.3479,4.3497,4.3497,4.3479,4.3479,4.3479,4.3549,4.3699,4.383,4.3894,4.4275,4.4484,4.4578,4.4777,4.5,4.5076,4.5121,4.5194,4.5246,4.5277,4.5277,4.5354,4.5488,4.5545,4.5354,4.5277,4.5277,4.5468,4.6443,4.7283,4.8075,4.9137,4.9748,5.0264,5.0302,5.0302,5.0302,5.0302,5.0302,5.0302,5.0302,5.0306,5.0329,5.0366,5.0486,5.0634,5.0743,5.0839,5.0947,5.1018,5.1178,5.1219,5.1234,5.1289,5.1323,5.133,5.1349,5.1326,5.1319,5.1346,5.1372,5.1349,5.1326,5.1333,5.134,5.133,5.133,5.1356,5.1359,5.134,5.1346,5.1378,5.1389,5.1396,5.1386,5.1392,5.1394,5.1394,5.1394,5.1394,5.1394,4.4598,4.4598,4.4581,4.4564,4.4598,4.4598,4.4598,4.4598,4.4598,4.4598,4.4665,4.5125,4.5622,4.6147,4.673,4.728,4.7597,4.7699,4.7699,4.7699,4.7699,4.7699,4.7373,4.6848,4.5997,4.5273,4.4424,4.3666,4.3306,4.3269,4.3304,4.3427,4.348,4.3552,4.3497,4.3533,4.3533,4.3516,4.3571,4.3589,4.3496,4.3548,4.3582,4.3699,4.3952,4.4181,4.4254,4.4443,4.4695,4.4868,4.4891,4.5034,4.5256,4.5277,4.5277,4.5297,4.6003,4.6003,4.5449,4.5354,4.5335,4.5564,4.6615,4.7264,4.7895,4.8754,4.9633,5.0245,5.0302,5.0302,5.0302,5.0302,5.0302,5.0302,5.0302,5.0302,5.0306,5.0317,5.0423,5.0528,5.0547,5.0587,5.0735,5.0883,5.1075,5.1169,5.1206,5.1239,5.128,5.1288,5.1292,5.1291,5.1278,5.128,5.1308,5.1312,5.1312,5.13,5.1296,5.1288,5.1288,5.1292,5.1296,5.13,5.1308,5.1319,5.1359,5.1394,5.1389,5.1401,5.1392,5.1394,5.1394,5.1394,5.1394,4.4598,4.4564,4.4028,4.4096,4.4564,4.4598,4.4598,4.4598,4.4598,4.4598,4.4786,4.5425,4.5875,4.6293,4.6954,4.749,4.7657,4.7699,4.7699,4.7699,4.7663,4.7699,4.7319,4.6395,4.558,4.5001,4.4133,4.3375,4.316,4.3178,4.3286,4.3411,4.3719,4.3828,4.4158,4.4287,4.4305,4.4305,4.4268,4.4085,4.3589,4.3552,4.3588,4.3624,4.3906,4.4032,4.4048,4.4296,4.4452,4.4714,4.4763,4.4946,4.5205,4.5277,4.5316,4.5468,4.6061,4.6385,4.5965,4.5755,4.5583,4.6118,4.6825,4.7665,4.8582,4.9423,4.9977,5.0206,5.0283,5.0302,5.0302,5.0302,5.0302,5.0302,5.0302,5.0302,5.0314,5.0294,5.0355,5.0466,5.0507,5.0577,5.068,5.0767,5.0949,5.1113,5.1159,5.1189,5.1229,5.1235,5.124,5.1244,5.1228,5.124,5.1254,5.1259,5.1269,5.1254,5.1244,5.1235,5.1235,5.1264,5.1249,5.1254,5.1239,5.1248,5.13,5.1349,5.1372,5.1389,5.1377,5.1388,5.1394,5.1394,5.1394,4.4598,4.453,4.4028,4.4096,4.4485,4.4327,4.4316,4.4547,4.4598,4.4598,4.4759,4.5468,4.5925,4.6293,4.6954,4.7615,4.7657,4.7699,4.7699,4.7663,4.7334,4.7265,4.6739,4.578,4.4983,4.4513,4.3809,4.3049,4.316,4.3251,4.3523,4.3904,4.4178,4.4911,4.5186,4.515,4.4819,4.4947,4.5076,4.4947,4.458,4.4433,4.4433,4.4393,4.4365,4.426,4.4212,4.4231,4.4289,4.4565,4.4752,4.4887,4.5151,4.5297,4.5449,4.5812,4.6118,4.6481,4.629,4.5698,4.5851,4.689,4.7521,4.82,4.9003,4.9748,5.0092,5.0283,5.0302,5.0302,5.0302,5.0302,5.0302,5.0302,5.0302,5.0302,5.0302,5.0302,5.0294,5.041,5.0464,5.0537,5.0615,5.0696,5.0816,5.0976,5.1114,5.1171,5.1208,5.1217,5.1219,5.1211,5.1202,5.1217,5.1228,5.1217,5.1228,5.1219,5.1214,5.1208,5.1222,5.1233,5.1214,5.1219,5.1224,5.1245,5.1267,5.13,5.1326,5.1359,5.1346,5.1366,5.139,5.1449,5.1505,4.4598,4.4598,4.4553,4.4513,4.4384,4.3775,4.3893,4.4581,4.4598,4.4598,4.4637,4.5125,4.5571,4.6074,4.666,4.7102,4.7391,4.7473,4.7428,4.7246,4.6703,4.6558,4.5997,4.5001,4.4476,4.4007,4.3465,4.3068,4.3215,4.356,4.4015,4.4783,4.5296,4.603,4.6214,4.5938,4.5553,4.5792,4.592,4.5755,4.5443,4.5553,4.5461,4.5332,4.511,4.487,4.4702,4.4472,4.4368,4.4466,4.4616,4.487,4.5106,4.5277,4.5793,4.6233,4.6462,4.6519,4.6615,4.6023,4.6519,4.7608,4.7884,4.8411,4.9098,4.992,5.0187,5.0302,5.0302,5.0302,5.0302,5.0302,5.0302,5.0302,5.0302,5.0302,5.0302,5.0302,5.0302,5.0317,5.0317,5.0388,5.0486,5.0577,5.0715,5.0867,5.1023,5.1133,5.119,5.1202,5.12,5.122,5.1202,5.1202,5.1202,5.1208,5.1214,5.1211,5.1206,5.1214,5.1208,5.1208,5.12,5.1206,5.1208,5.1211,5.124,5.1258,5.1273,5.1304,5.1432,5.1434,5.1481,5.1667,5.1725,4.4598,4.4547,4.3995,4.3775,4.3724,4.3504,4.3859,4.4547,4.4598,4.4598,4.4626,4.5098,4.5304,4.5614,4.6478,4.6516,4.6553,4.6552,4.6336,4.6106,4.5852,4.5707,4.5254,4.4584,4.4168,4.3825,4.3428,4.3123,4.3415,4.3833,4.5096,4.6194,4.614,4.6837,4.7113,4.6911,4.6727,4.6654,4.6727,4.6507,4.6195,4.6122,4.6104,4.5957,4.5792,4.5571,4.5424,4.5467,4.5403,4.5259,4.551,4.5663,4.5224,4.5316,4.564,4.6366,4.6577,4.6719,4.7234,4.7207,4.7494,4.8315,4.864,4.9175,4.9767,5.0111,5.0302,5.0302,5.0302,5.0302,5.0302,5.0302,5.0302,5.0302,5.0302,5.0302,5.0302,5.0302,5.0302,5.0302,5.0302,5.0325,5.0399,5.0497,5.0625,5.0786,5.0944,5.1075,5.1159,5.1196,5.1202,5.1202,5.1202,5.1202,5.1202,5.1202,5.1202,5.1202,5.1202,5.1202,5.1202,5.1202,5.1202,5.1202,5.1202,5.1202,5.122,5.1229,5.1249,5.152,5.1646,5.1616,5.1638,5.1925,5.1976,4.4401,4.4079,4.3623,4.3403,4.3325,4.3115,4.3555,4.4462,4.4598,4.4479,4.4185,4.4385,4.4612,4.4759,4.5288,4.557,4.5662,4.5874,4.5798,4.5544,4.4947,4.4856,4.4548,4.4077,4.3643,4.3426,4.3374,4.3267,4.3798,4.493,4.6174,4.6703,4.6634,4.7368,4.779,4.7736,4.7609,4.7553,4.7498,4.726,4.6985,4.6783,4.6856,4.6728,4.6581,4.6397,4.6379,4.6548,4.6299,4.619,4.6439,4.6338,4.5903,4.5812,4.587,4.6557,4.6959,4.7234,4.7616,4.7712,4.8258,4.8831,4.9137,4.9519,4.992,5.0264,5.0302,5.0302,5.0302,5.0302,5.0302,5.0302,5.0302,5.0302,5.0302,5.0302,5.0302,5.0302,5.0302,5.0302,5.0302,5.0302,5.0352,5.0442,5.0567,5.0735,5.0894,5.1062,5.1146,5.1196,5.1202,5.1202,5.1202,5.1202,5.1202,5.1202,5.1202,5.1202,5.1202,5.1202,5.1222,5.1241,5.128,5.126,5.1202,5.128,5.1422,5.1264,5.1258,5.1604,5.1848,5.1702,5.1925,5.25,5.2442,4.3978,4.3318,4.324,4.3156,4.32,4.254,4.3041,4.4344,4.4276,4.4028,4.3504,4.3352,4.3529,4.3854,4.4173,4.4578,4.4791,4.5064,4.5019,4.5073,4.4295,4.4005,4.3788,4.3317,4.319,4.3029,4.3121,4.3466,4.4595,4.5674,4.6554,4.6934,4.7618,4.8117,4.8137,4.8176,4.8086,4.8067,4.8085,4.8012,4.8104,4.8196,4.8306,4.8067,4.7608,4.7186,4.7114,4.6974,4.6741,4.7026,4.7248,4.7222,4.6614,4.6175,4.6271,4.6729,4.7196,4.7742,4.8105,4.8315,4.8678,4.9041,4.9213,4.9652,5.0092,5.0302,5.0302,5.0302,5.0302,5.0302,5.0302,5.0302,5.0302,5.0302,5.0302,5.0302,5.0302,5.0302,5.0302,5.0302,5.0302,5.0302,5.0314,5.0407,5.0466,5.0672,5.0819,5.0974,5.1115,5.1178,5.119,5.1196,5.1202,5.1202,5.1202,5.1202,5.1202,5.1202,5.1222,5.1435,5.161,5.1513,5.1358,5.163,5.194,5.1707,5.1694,5.1802,5.1964,5.2022,5.2125,5.1816,5.2194,5.3142,5.2937,4.2726,4.2489,4.1965,4.2049,4.2422,4.1779,4.1982,4.2828,4.2828,4.3047,4.325,4.2864,4.2783,4.311,4.3465,4.3798,4.388,4.4233,4.3967,4.3769,4.3336,4.3371,4.3244,4.3082,4.2919,4.2919,4.3137,4.3736,4.4972,4.6142,4.7153,4.7647,4.811,4.8207,4.8265,4.8305,4.8324,4.8324,4.8324,4.8324,4.8324,4.8324,4.8306,4.8269,4.7957,4.792,4.7997,4.8381,4.8103,4.8066,4.8454,4.7873,4.6642,4.6003,4.6003,4.6519,4.7417,4.8124,4.8754,4.9156,4.9557,4.9767,4.9958,5.0111,5.0245,5.0283,5.0302,5.0302,5.0302,5.0302,5.0302,5.0302,5.0302,5.0302,5.0302,5.0302,5.0302,5.0302,5.0302,5.0302,5.0302,5.0302,5.0314,5.0352,5.0421,5.0518,5.0652,5.0808,5.1007,5.1108,5.1166,5.1178,5.1196,5.1202,5.1202,5.1202,5.1202,5.128,5.1319,5.161,5.2018,5.2115,5.2193,5.2581,5.2814,5.2542,5.2562,5.3054,5.3131,5.2859,5.2931,5.2853,5.3514,5.443,5.3777,4.21,4.1745,4.1018,4.1136,4.161,4.1018,4.1288,4.2049,4.1636,4.1728,4.2337,4.2035,4.2006,4.2306,4.2666,4.3129,4.3095,4.3436,4.337,4.3046,4.2919,4.2955,4.2919,4.2919,4.2919,4.2955,4.3389,4.4151,4.5274,4.6186,4.705,4.7822,4.8068,4.8149,4.8247,4.8286,4.8324,4.8324,4.8324,4.8324,4.8324,4.8324,4.8324,4.8324,4.8324,4.8324,4.8532,4.8898,4.8965,4.8752,4.8935,4.8411,4.7417,4.6844,4.6748,4.7207,4.7952,4.8735,4.9461,4.9958,5.0302,5.0302,5.0302,5.0264,5.0264,5.0302,5.0302,5.0302,5.0302,5.0302,5.0302,5.0302,5.0302,5.0302,5.0302,5.0302,5.0302,5.0302,5.0302,5.0302,5.0302,5.0302,5.0302,5.0314,5.0377,5.0476,5.0606,5.0661,5.0855,5.1007,5.1075,5.1153,5.1166,5.119,5.1202,5.1202,5.1202,5.1299,5.1571,5.2193,5.2776,5.2931,5.3112,5.3436,5.3539,5.3306,5.3462,5.3908,5.3772,5.3384,5.3695,5.4058,5.4815,5.532,5.4704,4.161,4.0984,4.0383,4.0485,4.0916,4.0417,4.0807,4.1653,4.0705,4.0502,4.1068,4.1085,4.1184,4.1371,4.1525,4.2139,4.2649,4.3005,4.2936,4.2937,4.2919,4.2919,4.2919,4.2919,4.2919,4.3172,4.3643,4.4403,4.5309,4.6164,4.6969,4.7722,4.7988,4.8072,4.8189,4.8267,4.8324,4.8324,4.8324,4.8324,4.8324,4.8324,4.8324,4.8324,4.8324,4.8324,4.8514,4.8797,4.9158,4.9148,4.8994,4.8547,4.8087,4.7571,4.7761,4.8048,4.8487,4.9308,4.9996,5.0206,5.0302,5.0302,5.0302,5.0302,5.0302,5.0302,5.0302,5.0302,5.0302,5.0302,5.0302,5.0302,5.0302,5.0302,5.0302,5.0302,5.0302,5.0302,5.0302,5.0302,5.0302,5.0302,5.0302,5.0302,5.0352,5.0453,5.0527,5.0587,5.068,5.0847,5.0952,5.1041,5.1101,5.1128,5.1346,5.1455,5.1532,5.2076,5.2484,5.3067,5.3539,5.3766,5.398,5.4194,5.42,5.4096,5.4219,5.4569,5.4297,5.4141,5.4588,5.5029,5.5029,5.5437,5.5398,4.0451,4.0273,4.0146,4.0214,4.0299,4.0163,4.0282,4.0451,4.0282,4.0214,4.035,4.0383,4.0519,4.0972,4.1348,4.1828,4.2279,4.2634,4.2844,4.2919,4.29,4.29,4.2919,4.2919,4.2919,4.3172,4.3661,4.4476,4.5091,4.5961,4.6969,4.7824,4.7972,4.8092,4.8267,4.8324,4.8324,4.8324,4.8324,4.8324,4.8324,4.8324,4.8324,4.8324,4.8324,4.8324,4.842,4.8693,4.8832,4.8856,4.8838,4.8661,4.8446,4.825,4.8388,4.8621,4.9071,4.9576,5.0092,5.0264,5.0302,5.0302,5.0302,5.0302,5.0302,5.0302,5.0302,5.0302,5.0302,5.0302,5.0302,5.0302,5.0302,5.0302,5.0302,5.0302,5.0302,5.0302,5.0302,5.0302,5.0302,5.0302,5.0302,5.0302,5.0302,5.0396,5.0453,5.0507,5.0518,5.0681,5.0811,5.0925,5.1044,5.16,5.2019,5.2037,5.2193,5.2776,5.3378,5.3922,5.4368,5.466,5.4873,5.5048,5.5087,5.5029,5.5184,5.5249,5.5462,5.5424,5.5734,5.5981,5.5786,5.565,5.5709]}]]